<?xml version='1.0' encoding='UTF-8'?><gpx version="1.1" creator="JPX - https://github.com/jenetics/jpx" xmlns="http://www.topografix.com/GPX/1/1"><trk><trkseg><trkpt lat="45.8538666" lon="8.8411145"><ele>414.0</ele><time>2026-04-08T16:47:00.309Z</time></trkpt><trkpt lat="45.8537946" lon="8.8410468"><ele>414.0</ele><time>2026-04-08T16:47:03.308Z</time></trkpt><trkpt lat="45.8537725" lon="8.8409416"><ele>414.0</ele><time>2026-04-08T16:47:06.311Z</time></trkpt><trkpt lat="45.8537377" lon="8.8408548"><ele>414.0</ele><time>2026-04-08T16:47:08.305Z</time></trkpt><trkpt lat="45.8536885" lon="8.8407879"><ele>414.0</ele><time>2026-04-08T16:47:10.321Z</time></trkpt><trkpt lat="45.8536004" lon="8.8407353"><ele>414.0</ele><time>2026-04-08T16:47:13.299Z</time></trkpt><trkpt lat="45.8535215" lon="8.8407021"><ele>412.3333333333333</ele><time>2026-04-08T16:47:15.307Z</time></trkpt><trkpt lat="45.8534481" lon="8.8406728"><ele>410.66666666666663</ele><time>2026-04-08T16:47:17.32Z</time></trkpt><trkpt lat="45.8533268" lon="8.8406478"><ele>409.0</ele><time>2026-04-08T16:47:24.297Z</time></trkpt><trkpt lat="45.8532831" lon="8.8407712"><ele>407.3333333333333</ele><time>2026-04-08T16:47:29.301Z</time></trkpt><trkpt lat="45.8533" lon="8.8408645"><ele>405.66666666666663</ele><time>2026-04-08T16:47:30.309Z</time></trkpt><trkpt lat="45.8533317" lon="8.8409574"><ele>404.0</ele><time>2026-04-08T16:47:31.315Z</time></trkpt><trkpt lat="45.8533599" lon="8.8410625"><ele>404.0</ele><time>2026-04-08T16:47:32.315Z</time></trkpt><trkpt lat="45.8533977" lon="8.8411787"><ele>404.0</ele><time>2026-04-08T16:47:33.306Z</time></trkpt><trkpt lat="45.8534364" lon="8.8413005"><ele>404.0</ele><time>2026-04-08T16:47:34.29Z</time></trkpt><trkpt lat="45.8534728" lon="8.8414231"><ele>404.0</ele><time>2026-04-08T16:47:35.3Z</time></trkpt><trkpt lat="45.853502" lon="8.8415517"><ele>404.0</ele><time>2026-04-08T16:47:36.309Z</time></trkpt><trkpt lat="45.8535353" lon="8.8416893"><ele>405.75</ele><time>2026-04-08T16:47:37.303Z</time></trkpt><trkpt lat="45.8535714" lon="8.8418435"><ele>407.5</ele><time>2026-04-08T16:47:38.307Z</time></trkpt><trkpt lat="45.8536033" lon="8.8420126"><ele>409.25</ele><time>2026-04-08T16:47:39.318Z</time></trkpt><trkpt lat="45.8536342" lon="8.8421665"><ele>411.0</ele><time>2026-04-08T16:47:40.302Z</time></trkpt><trkpt lat="45.8536684" lon="8.8423134"><ele>411.0</ele><time>2026-04-08T16:47:41.309Z</time></trkpt><trkpt lat="45.853701" lon="8.8424467"><ele>411.0</ele><time>2026-04-08T16:47:42.311Z</time></trkpt><trkpt lat="45.8537323" lon="8.8425694"><ele>411.0</ele><time>2026-04-08T16:47:43.31Z</time></trkpt><trkpt lat="45.853762" lon="8.8426855"><ele>411.0</ele><time>2026-04-08T16:47:44.3Z</time></trkpt><trkpt lat="45.8537946" lon="8.842795"><ele>411.0</ele><time>2026-04-08T16:47:45.317Z</time></trkpt><trkpt lat="45.8538271" lon="8.8429095"><ele>411.0</ele><time>2026-04-08T16:47:46.312Z</time></trkpt><trkpt lat="45.8538573" lon="8.8430278"><ele>410.3333333333333</ele><time>2026-04-08T16:47:47.31Z</time></trkpt><trkpt lat="45.853887" lon="8.8431469"><ele>409.66666666666663</ele><time>2026-04-08T16:47:48.323Z</time></trkpt><trkpt lat="45.8539211" lon="8.8432663"><ele>409.0</ele><time>2026-04-08T16:47:49.294Z</time></trkpt><trkpt lat="45.8539525" lon="8.8433851"><ele>408.3333333333333</ele><time>2026-04-08T16:47:50.306Z</time></trkpt><trkpt lat="45.8539824" lon="8.843502"><ele>407.66666666666663</ele><time>2026-04-08T16:47:51.311Z</time></trkpt><trkpt lat="45.8540113" lon="8.8436038"><ele>407.0</ele><time>2026-04-08T16:47:52.307Z</time></trkpt><trkpt lat="45.8540379" lon="8.8436965"><ele>406.3333333333333</ele><time>2026-04-08T16:47:53.302Z</time></trkpt><trkpt lat="45.8540654" lon="8.8437908"><ele>405.66666666666663</ele><time>2026-04-08T16:47:54.317Z</time></trkpt><trkpt lat="45.8540957" lon="8.8438973"><ele>405.0</ele><time>2026-04-08T16:47:55.297Z</time></trkpt><trkpt lat="45.8541287" lon="8.8440104"><ele>404.33333333333337</ele><time>2026-04-08T16:47:56.295Z</time></trkpt><trkpt lat="45.854162" lon="8.8441228"><ele>403.6666666666667</ele><time>2026-04-08T16:47:57.313Z</time></trkpt><trkpt lat="45.8541962" lon="8.8442421"><ele>403.0</ele><time>2026-04-08T16:47:58.318Z</time></trkpt><trkpt lat="45.8542353" lon="8.8443598"><ele>403.00000000000006</ele><time>2026-04-08T16:47:59.316Z</time></trkpt><trkpt lat="45.8542797" lon="8.8444771"><ele>403.0</ele><time>2026-04-08T16:48:00.307Z</time></trkpt><trkpt lat="45.8543229" lon="8.844593"><ele>403.0</ele><time>2026-04-08T16:48:01.302Z</time></trkpt><trkpt lat="45.8543629" lon="8.8446918"><ele>403.0</ele><time>2026-04-08T16:48:02.313Z</time></trkpt><trkpt lat="45.8543937" lon="8.8447791"><ele>403.00000000000006</ele><time>2026-04-08T16:48:03.33Z</time></trkpt><trkpt lat="45.8544241" lon="8.8448793"><ele>403.0</ele><time>2026-04-08T16:48:05.321Z</time></trkpt><trkpt lat="45.8544906" lon="8.8449837"><ele>403.6666666666667</ele><time>2026-04-08T16:48:23.319Z</time></trkpt><trkpt lat="45.8545333" lon="8.845052"><ele>404.33333333333337</ele><time>2026-04-08T16:48:24.307Z</time></trkpt><trkpt lat="45.854575" lon="8.8451616"><ele>405.0</ele><time>2026-04-08T16:48:25.308Z</time></trkpt><trkpt lat="45.8546168" lon="8.8452557"><ele>405.66666666666663</ele><time>2026-04-08T16:48:26.308Z</time></trkpt><trkpt lat="45.8546606" lon="8.8453569"><ele>406.3333333333333</ele><time>2026-04-08T16:48:27.323Z</time></trkpt><trkpt lat="45.8547042" lon="8.8454646"><ele>407.0</ele><time>2026-04-08T16:48:28.308Z</time></trkpt><trkpt lat="45.854747" lon="8.8455838"><ele>407.0</ele><time>2026-04-08T16:48:29.292Z</time></trkpt><trkpt lat="45.8547951" lon="8.845712"><ele>407.0</ele><time>2026-04-08T16:48:30.323Z</time></trkpt><trkpt lat="45.8548472" lon="8.8458463"><ele>407.0</ele><time>2026-04-08T16:48:31.312Z</time></trkpt><trkpt lat="45.8548973" lon="8.8459783"><ele>407.0</ele><time>2026-04-08T16:48:32.306Z</time></trkpt><trkpt lat="45.8549478" lon="8.8461065"><ele>407.0</ele><time>2026-04-08T16:48:33.314Z</time></trkpt><trkpt lat="45.8549969" lon="8.8462339"><ele>406.8</ele><time>2026-04-08T16:48:34.316Z</time></trkpt><trkpt lat="45.855045" lon="8.8463615"><ele>406.6</ele><time>2026-04-08T16:48:35.297Z</time></trkpt><trkpt lat="45.8550941" lon="8.8464836"><ele>406.40000000000003</ele><time>2026-04-08T16:48:36.304Z</time></trkpt><trkpt lat="45.8551442" lon="8.8466086"><ele>406.20000000000005</ele><time>2026-04-08T16:48:37.342Z</time></trkpt><trkpt lat="45.8551932" lon="8.8467314"><ele>406.0</ele><time>2026-04-08T16:48:38.312Z</time></trkpt><trkpt lat="45.8552415" lon="8.8468514"><ele>406.4</ele><time>2026-04-08T16:48:39.31Z</time></trkpt><trkpt lat="45.8552878" lon="8.8469706"><ele>406.8</ele><time>2026-04-08T16:48:40.333Z</time></trkpt><trkpt lat="45.8553358" lon="8.8470911"><ele>407.2</ele><time>2026-04-08T16:48:41.337Z</time></trkpt><trkpt lat="45.8553839" lon="8.8472116"><ele>407.59999999999997</ele><time>2026-04-08T16:48:42.313Z</time></trkpt><trkpt lat="45.8554333" lon="8.847334"><ele>408.0</ele><time>2026-04-08T16:48:43.315Z</time></trkpt><trkpt lat="45.8554888" lon="8.8474714"><ele>408.0</ele><time>2026-04-08T16:48:44.309Z</time></trkpt><trkpt lat="45.8555488" lon="8.8476218"><ele>408.0</ele><time>2026-04-08T16:48:45.31Z</time></trkpt><trkpt lat="45.8556113" lon="8.8477824"><ele>408.0</ele><time>2026-04-08T16:48:46.315Z</time></trkpt><trkpt lat="45.8556769" lon="8.8479471"><ele>408.0</ele><time>2026-04-08T16:48:47.286Z</time></trkpt><trkpt lat="45.8557422" lon="8.8481099"><ele>407.79999999999995</ele><time>2026-04-08T16:48:48.317Z</time></trkpt><trkpt lat="45.8558034" lon="8.8482616"><ele>407.6</ele><time>2026-04-08T16:48:49.311Z</time></trkpt><trkpt lat="45.8558625" lon="8.8484098"><ele>407.4</ele><time>2026-04-08T16:48:50.304Z</time></trkpt><trkpt lat="45.8559129" lon="8.8485395"><ele>407.20000000000005</ele><time>2026-04-08T16:48:51.304Z</time></trkpt><trkpt lat="45.8559603" lon="8.8486585"><ele>407.0</ele><time>2026-04-08T16:48:52.319Z</time></trkpt><trkpt lat="45.8560039" lon="8.8487722"><ele>407.0</ele><time>2026-04-08T16:48:53.31Z</time></trkpt><trkpt lat="45.8560515" lon="8.8488925"><ele>407.0</ele><time>2026-04-08T16:48:54.313Z</time></trkpt><trkpt lat="45.8560998" lon="8.8490249"><ele>407.0</ele><time>2026-04-08T16:48:55.307Z</time></trkpt><trkpt lat="45.8561523" lon="8.8491677"><ele>407.0</ele><time>2026-04-08T16:48:56.315Z</time></trkpt><trkpt lat="45.8562094" lon="8.8493146"><ele>407.0</ele><time>2026-04-08T16:48:57.335Z</time></trkpt><trkpt lat="45.856266" lon="8.8494533"><ele>405.75</ele><time>2026-04-08T16:48:58.313Z</time></trkpt><trkpt lat="45.85632" lon="8.8495871"><ele>404.5</ele><time>2026-04-08T16:48:59.302Z</time></trkpt><trkpt lat="45.8563757" lon="8.8497249"><ele>403.25</ele><time>2026-04-08T16:49:00.314Z</time></trkpt><trkpt lat="45.8564339" lon="8.8498698"><ele>402.0</ele><time>2026-04-08T16:49:01.315Z</time></trkpt><trkpt lat="45.856496" lon="8.8500214"><ele>400.75</ele><time>2026-04-08T16:49:02.326Z</time></trkpt><trkpt lat="45.8565585" lon="8.8501781"><ele>399.5</ele><time>2026-04-08T16:49:03.321Z</time></trkpt><trkpt lat="45.8566217" lon="8.8503386"><ele>398.25</ele><time>2026-04-08T16:49:04.348Z</time></trkpt><trkpt lat="45.8566846" lon="8.8504988"><ele>397.0</ele><time>2026-04-08T16:49:05.339Z</time></trkpt><trkpt lat="45.8567473" lon="8.8506557"><ele>396.6</ele><time>2026-04-08T16:49:06.334Z</time></trkpt><trkpt lat="45.8568064" lon="8.8508036"><ele>396.20000000000005</ele><time>2026-04-08T16:49:07.332Z</time></trkpt><trkpt lat="45.8568625" lon="8.8509398"><ele>395.8</ele><time>2026-04-08T16:49:08.306Z</time></trkpt><trkpt lat="45.8569151" lon="8.8510671"><ele>395.4</ele><time>2026-04-08T16:49:09.308Z</time></trkpt><trkpt lat="45.8569627" lon="8.8511847"><ele>395.0</ele><time>2026-04-08T16:49:10.315Z</time></trkpt><trkpt lat="45.8570007" lon="8.8512983"><ele>394.99999999999994</ele><time>2026-04-08T16:49:11.324Z</time></trkpt><trkpt lat="45.8570237" lon="8.8514097"><ele>395.0</ele><time>2026-04-08T16:49:12.305Z</time></trkpt><trkpt lat="45.857029" lon="8.8515214"><ele>395.0</ele><time>2026-04-08T16:49:13.307Z</time></trkpt><trkpt lat="45.8570143" lon="8.8516347"><ele>395.0</ele><time>2026-04-08T16:49:14.308Z</time></trkpt><trkpt lat="45.8569829" lon="8.8517492"><ele>394.99999999999994</ele><time>2026-04-08T16:49:15.342Z</time></trkpt><trkpt lat="45.8569518" lon="8.8518638"><ele>395.0</ele><time>2026-04-08T16:49:16.333Z</time></trkpt><trkpt lat="45.8569351" lon="8.8519699"><ele>394.2</ele><time>2026-04-08T16:49:17.318Z</time></trkpt><trkpt lat="45.8569807" lon="8.8520469"><ele>393.4</ele><time>2026-04-08T16:49:18.341Z</time></trkpt><trkpt lat="45.8570538" lon="8.8521045"><ele>392.6</ele><time>2026-04-08T16:49:19.328Z</time></trkpt><trkpt lat="45.8571319" lon="8.8521636"><ele>391.8</ele><time>2026-04-08T16:49:20.3Z</time></trkpt><trkpt lat="45.8572267" lon="8.8522244"><ele>391.0</ele><time>2026-04-08T16:49:21.33Z</time></trkpt><trkpt lat="45.857316" lon="8.8523164"><ele>391.0</ele><time>2026-04-08T16:49:22.319Z</time></trkpt><trkpt lat="45.8573917" lon="8.8524253"><ele>391.0</ele><time>2026-04-08T16:49:23.309Z</time></trkpt><trkpt lat="45.8574575" lon="8.8525495"><ele>391.0</ele><time>2026-04-08T16:49:24.333Z</time></trkpt><trkpt lat="45.8575191" lon="8.8526843"><ele>391.0</ele><time>2026-04-08T16:49:25.315Z</time></trkpt><trkpt lat="45.8575817" lon="8.8528311"><ele>391.0</ele><time>2026-04-08T16:49:26.309Z</time></trkpt><trkpt lat="45.8576448" lon="8.8529817"><ele>391.5</ele><time>2026-04-08T16:49:27.329Z</time></trkpt><trkpt lat="45.8577096" lon="8.853132"><ele>392.0</ele><time>2026-04-08T16:49:28.321Z</time></trkpt><trkpt lat="45.8577736" lon="8.8532868"><ele>392.5</ele><time>2026-04-08T16:49:29.307Z</time></trkpt><trkpt lat="45.8578394" lon="8.8534448"><ele>393.0</ele><time>2026-04-08T16:49:30.315Z</time></trkpt><trkpt lat="45.8579094" lon="8.8536066"><ele>392.0</ele><time>2026-04-08T16:49:31.312Z</time></trkpt><trkpt lat="45.8579782" lon="8.8537741"><ele>391.0</ele><time>2026-04-08T16:49:32.322Z</time></trkpt><trkpt lat="45.858047" lon="8.8539436"><ele>390.0</ele><time>2026-04-08T16:49:33.315Z</time></trkpt><trkpt lat="45.8581172" lon="8.8541102"><ele>389.0</ele><time>2026-04-08T16:49:34.298Z</time></trkpt><trkpt lat="45.8581819" lon="8.8542661"><ele>388.75</ele><time>2026-04-08T16:49:35.322Z</time></trkpt><trkpt lat="45.8582432" lon="8.8544128"><ele>388.5</ele><time>2026-04-08T16:49:36.319Z</time></trkpt><trkpt lat="45.8583027" lon="8.8545579"><ele>388.25</ele><time>2026-04-08T16:49:37.312Z</time></trkpt><trkpt lat="45.858362" lon="8.8547068"><ele>388.0</ele><time>2026-04-08T16:49:38.309Z</time></trkpt><trkpt lat="45.8584228" lon="8.8548559"><ele>388.5</ele><time>2026-04-08T16:49:39.317Z</time></trkpt><trkpt lat="45.8584851" lon="8.8550091"><ele>389.0</ele><time>2026-04-08T16:49:40.306Z</time></trkpt><trkpt lat="45.8585472" lon="8.8551639"><ele>389.5</ele><time>2026-04-08T16:49:41.31Z</time></trkpt><trkpt lat="45.8586098" lon="8.85532"><ele>390.0</ele><time>2026-04-08T16:49:42.305Z</time></trkpt><trkpt lat="45.8586691" lon="8.8554685"><ele>390.0</ele><time>2026-04-08T16:49:43.326Z</time></trkpt><trkpt lat="45.8587252" lon="8.8556015"><ele>390.0</ele><time>2026-04-08T16:49:44.314Z</time></trkpt><trkpt lat="45.8587713" lon="8.8557118"><ele>390.0</ele><time>2026-04-08T16:49:45.305Z</time></trkpt><trkpt lat="45.8588157" lon="8.8558285"><ele>390.0</ele><time>2026-04-08T16:49:47.311Z</time></trkpt><trkpt lat="45.8588585" lon="8.8559397"><ele>390.0</ele><time>2026-04-08T16:49:50.329Z</time></trkpt><trkpt lat="45.8589123" lon="8.8560668"><ele>389.5</ele><time>2026-04-08T16:49:52.326Z</time></trkpt><trkpt lat="45.8589686" lon="8.8562076"><ele>389.0</ele><time>2026-04-08T16:49:54.301Z</time></trkpt><trkpt lat="45.8590038" lon="8.8563108"><ele>388.5</ele><time>2026-04-08T16:49:56.31Z</time></trkpt><trkpt lat="45.8590438" lon="8.8564126"><ele>388.0</ele><time>2026-04-08T16:49:59.318Z</time></trkpt><trkpt lat="45.8590875" lon="8.8565172"><ele>387.5</ele><time>2026-04-08T16:50:03.31Z</time></trkpt><trkpt lat="45.8591289" lon="8.8565889"><ele>387.0</ele><time>2026-04-08T16:50:06.303Z</time></trkpt><trkpt lat="45.8591806" lon="8.8566828"><ele>386.8</ele><time>2026-04-08T16:50:09.306Z</time></trkpt><trkpt lat="45.8592389" lon="8.856815"><ele>386.6</ele><time>2026-04-08T16:50:11.297Z</time></trkpt><trkpt lat="45.8592782" lon="8.856919"><ele>386.40000000000003</ele><time>2026-04-08T16:50:13.321Z</time></trkpt><trkpt lat="45.8593099" lon="8.8570032"><ele>386.20000000000005</ele><time>2026-04-08T16:50:16.317Z</time></trkpt><trkpt lat="45.8593557" lon="8.8571074"><ele>386.0</ele><time>2026-04-08T16:50:18.315Z</time></trkpt><trkpt lat="45.859408" lon="8.8572544"><ele>386.4</ele><time>2026-04-08T16:50:20.315Z</time></trkpt><trkpt lat="45.8594662" lon="8.8573929"><ele>386.8</ele><time>2026-04-08T16:50:22.318Z</time></trkpt><trkpt lat="45.8595291" lon="8.8575522"><ele>387.2</ele><time>2026-04-08T16:50:24.311Z</time></trkpt><trkpt lat="45.8595773" lon="8.857688"><ele>387.59999999999997</ele><time>2026-04-08T16:50:26.307Z</time></trkpt><trkpt lat="45.8596173" lon="8.8577902"><ele>388.0</ele><time>2026-04-08T16:50:28.308Z</time></trkpt><trkpt lat="45.859647" lon="8.8578704"><ele>388.00000000000006</ele><time>2026-04-08T16:50:30.311Z</time></trkpt><trkpt lat="45.8596783" lon="8.8579596"><ele>388.0</ele><time>2026-04-08T16:50:32.318Z</time></trkpt><trkpt lat="45.8597091" lon="8.858043"><ele>388.0</ele><time>2026-04-08T16:50:34.306Z</time></trkpt><trkpt lat="45.8597387" lon="8.8581335"><ele>388.0</ele><time>2026-04-08T16:50:36.32Z</time></trkpt><trkpt lat="45.8597816" lon="8.8582476"><ele>388.00000000000006</ele><time>2026-04-08T16:50:38.313Z</time></trkpt><trkpt lat="45.8598341" lon="8.8583712"><ele>388.0</ele><time>2026-04-08T16:50:40.306Z</time></trkpt><trkpt lat="45.8598839" lon="8.8584879"><ele>388.2</ele><time>2026-04-08T16:50:42.308Z</time></trkpt><trkpt lat="45.8599273" lon="8.85858"><ele>388.4</ele><time>2026-04-08T16:50:44.316Z</time></trkpt><trkpt lat="45.859985" lon="8.8586952"><ele>388.59999999999997</ele><time>2026-04-08T16:50:47.291Z</time></trkpt><trkpt lat="45.8600453" lon="8.8588322"><ele>388.79999999999995</ele><time>2026-04-08T16:50:49.304Z</time></trkpt><trkpt lat="45.860107" lon="8.8589854"><ele>389.0</ele><time>2026-04-08T16:50:51.317Z</time></trkpt><trkpt lat="45.8601541" lon="8.85911"><ele>388.99999999999994</ele><time>2026-04-08T16:50:53.305Z</time></trkpt><trkpt lat="45.8601904" lon="8.8592063"><ele>389.0</ele><time>2026-04-08T16:50:55.322Z</time></trkpt><trkpt lat="45.8601989" lon="8.8593247"><ele>389.0</ele><time>2026-04-08T16:51:38.318Z</time></trkpt><trkpt lat="45.8602262" lon="8.8594153"><ele>389.0</ele><time>2026-04-08T16:51:39.317Z</time></trkpt><trkpt lat="45.8602575" lon="8.8595012"><ele>388.99999999999994</ele><time>2026-04-08T16:51:40.308Z</time></trkpt><trkpt lat="45.8603197" lon="8.8596469"><ele>389.0</ele><time>2026-04-08T16:51:42.309Z</time></trkpt><trkpt lat="45.8603117" lon="8.8597901"><ele>389.0</ele><time>2026-04-08T16:51:44.32Z</time></trkpt><trkpt lat="45.8602361" lon="8.859906"><ele>389.0</ele><time>2026-04-08T16:51:46.311Z</time></trkpt><trkpt lat="45.860168" lon="8.8599539"><ele>389.0</ele><time>2026-04-08T16:51:47.293Z</time></trkpt><trkpt lat="45.8601027" lon="8.8600476"><ele>389.0</ele><time>2026-04-08T16:51:48.314Z</time></trkpt><trkpt lat="45.8600197" lon="8.8601643"><ele>389.0</ele><time>2026-04-08T16:51:49.307Z</time></trkpt><trkpt lat="45.8599344" lon="8.8603057"><ele>387.75</ele><time>2026-04-08T16:51:50.322Z</time></trkpt><trkpt lat="45.8598494" lon="8.8604414"><ele>386.5</ele><time>2026-04-08T16:51:51.307Z</time></trkpt><trkpt lat="45.859767" lon="8.8605778"><ele>385.25</ele><time>2026-04-08T16:51:52.326Z</time></trkpt><trkpt lat="45.8596866" lon="8.860725"><ele>384.0</ele><time>2026-04-08T16:51:53.313Z</time></trkpt><trkpt lat="45.8596055" lon="8.8608605"><ele>383.75</ele><time>2026-04-08T16:51:54.316Z</time></trkpt><trkpt lat="45.8595265" lon="8.8609989"><ele>383.5</ele><time>2026-04-08T16:51:55.302Z</time></trkpt><trkpt lat="45.8594474" lon="8.8611357"><ele>383.25</ele><time>2026-04-08T16:51:56.312Z</time></trkpt><trkpt lat="45.8593682" lon="8.8612723"><ele>383.0</ele><time>2026-04-08T16:51:57.311Z</time></trkpt><trkpt lat="45.8592919" lon="8.8614068"><ele>383.0</ele><time>2026-04-08T16:51:58.307Z</time></trkpt><trkpt lat="45.8592125" lon="8.8615372"><ele>383.0</ele><time>2026-04-08T16:51:59.346Z</time></trkpt><trkpt lat="45.8591309" lon="8.8616618"><ele>383.0</ele><time>2026-04-08T16:52:00.346Z</time></trkpt><trkpt lat="45.8590523" lon="8.8617858"><ele>383.0</ele><time>2026-04-08T16:52:01.314Z</time></trkpt><trkpt lat="45.8589728" lon="8.8619061"><ele>383.0</ele><time>2026-04-08T16:52:02.312Z</time></trkpt><trkpt lat="45.8589036" lon="8.8620272"><ele>383.0</ele><time>2026-04-08T16:52:03.298Z</time></trkpt><trkpt lat="45.8588496" lon="8.8621505"><ele>383.0</ele><time>2026-04-08T16:52:04.3Z</time></trkpt><trkpt lat="45.8588189" lon="8.8622919"><ele>383.0</ele><time>2026-04-08T16:52:05.306Z</time></trkpt><trkpt lat="45.8588078" lon="8.8624272"><ele>383.0</ele><time>2026-04-08T16:52:06.31Z</time></trkpt><trkpt lat="45.8587962" lon="8.862556"><ele>382.79999999999995</ele><time>2026-04-08T16:52:07.3Z</time></trkpt><trkpt lat="45.8588285" lon="8.8626734"><ele>382.6</ele><time>2026-04-08T16:52:08.309Z</time></trkpt><trkpt lat="45.8588804" lon="8.8627942"><ele>382.4</ele><time>2026-04-08T16:52:09.328Z</time></trkpt><trkpt lat="45.8589449" lon="8.8629228"><ele>382.20000000000005</ele><time>2026-04-08T16:52:10.296Z</time></trkpt><trkpt lat="45.8590112" lon="8.8630574"><ele>382.0</ele><time>2026-04-08T16:52:11.307Z</time></trkpt><trkpt lat="45.8590797" lon="8.863204"><ele>382.0</ele><time>2026-04-08T16:52:12.306Z</time></trkpt><trkpt lat="45.8591508" lon="8.8633491"><ele>382.0</ele><time>2026-04-08T16:52:13.31Z</time></trkpt><trkpt lat="45.8592206" lon="8.8634907"><ele>382.0</ele><time>2026-04-08T16:52:14.309Z</time></trkpt><trkpt lat="45.859294" lon="8.863634"><ele>382.0</ele><time>2026-04-08T16:52:15.293Z</time></trkpt><trkpt lat="45.8593597" lon="8.8637707"><ele>381.8</ele><time>2026-04-08T16:52:16.309Z</time></trkpt><trkpt lat="45.8594257" lon="8.8639064"><ele>381.6</ele><time>2026-04-08T16:52:17.311Z</time></trkpt><trkpt lat="45.8594914" lon="8.8640372"><ele>381.40000000000003</ele><time>2026-04-08T16:52:18.289Z</time></trkpt><trkpt lat="45.8595514" lon="8.8641585"><ele>381.20000000000005</ele><time>2026-04-08T16:52:19.303Z</time></trkpt><trkpt lat="45.8596019" lon="8.8642618"><ele>381.0</ele><time>2026-04-08T16:52:20.307Z</time></trkpt><trkpt lat="45.8596414" lon="8.8643481"><ele>381.6</ele><time>2026-04-08T16:52:21.317Z</time></trkpt><trkpt lat="45.8596751" lon="8.8644409"><ele>382.20000000000005</ele><time>2026-04-08T16:52:22.304Z</time></trkpt><trkpt lat="45.8597248" lon="8.8645408"><ele>382.79999999999995</ele><time>2026-04-08T16:52:23.326Z</time></trkpt><trkpt lat="45.85978" lon="8.8646503"><ele>383.4</ele><time>2026-04-08T16:52:24.305Z</time></trkpt><trkpt lat="45.8598549" lon="8.8647682"><ele>384.0</ele><time>2026-04-08T16:52:25.304Z</time></trkpt><trkpt lat="45.85993" lon="8.864916"><ele>384.0</ele><time>2026-04-08T16:52:26.319Z</time></trkpt><trkpt lat="45.8600013" lon="8.8650665"><ele>384.0</ele><time>2026-04-08T16:52:27.307Z</time></trkpt><trkpt lat="45.8600633" lon="8.8652255"><ele>384.0</ele><time>2026-04-08T16:52:28.306Z</time></trkpt><trkpt lat="45.8601257" lon="8.8653867"><ele>384.0</ele><time>2026-04-08T16:52:29.312Z</time></trkpt><trkpt lat="45.8601741" lon="8.8655585"><ele>384.25</ele><time>2026-04-08T16:52:30.315Z</time></trkpt><trkpt lat="45.8602185" lon="8.8657359"><ele>384.5</ele><time>2026-04-08T16:52:31.295Z</time></trkpt><trkpt lat="45.860257" lon="8.8659142"><ele>384.75</ele><time>2026-04-08T16:52:32.305Z</time></trkpt><trkpt lat="45.8602898" lon="8.8660944"><ele>385.0</ele><time>2026-04-08T16:52:33.322Z</time></trkpt><trkpt lat="45.8603204" lon="8.8662767"><ele>385.0</ele><time>2026-04-08T16:52:34.307Z</time></trkpt><trkpt lat="45.8603454" lon="8.8664595"><ele>385.0</ele><time>2026-04-08T16:52:35.302Z</time></trkpt><trkpt lat="45.8603613" lon="8.8666445"><ele>385.0</ele><time>2026-04-08T16:52:36.307Z</time></trkpt><trkpt lat="45.8603674" lon="8.8668327"><ele>385.0</ele><time>2026-04-08T16:52:37.3Z</time></trkpt><trkpt lat="45.8603667" lon="8.8670226"><ele>385.75</ele><time>2026-04-08T16:52:38.299Z</time></trkpt><trkpt lat="45.8603609" lon="8.8672133"><ele>386.5</ele><time>2026-04-08T16:52:39.32Z</time></trkpt><trkpt lat="45.8603537" lon="8.867406"><ele>387.25</ele><time>2026-04-08T16:52:40.313Z</time></trkpt><trkpt lat="45.8603465" lon="8.8675881"><ele>388.0</ele><time>2026-04-08T16:52:41.316Z</time></trkpt><trkpt lat="45.8603422" lon="8.8677546"><ele>388.0</ele><time>2026-04-08T16:52:42.309Z</time></trkpt><trkpt lat="45.8603481" lon="8.8679156"><ele>388.0</ele><time>2026-04-08T16:52:43.296Z</time></trkpt><trkpt lat="45.860365" lon="8.8680768"><ele>388.0</ele><time>2026-04-08T16:52:44.31Z</time></trkpt><trkpt lat="45.8603904" lon="8.8682368"><ele>388.0</ele><time>2026-04-08T16:52:45.298Z</time></trkpt><trkpt lat="45.8604198" lon="8.8684"><ele>387.79999999999995</ele><time>2026-04-08T16:52:46.305Z</time></trkpt><trkpt lat="45.8604486" lon="8.8685645"><ele>387.6</ele><time>2026-04-08T16:52:47.315Z</time></trkpt><trkpt lat="45.860479" lon="8.8687277"><ele>387.4</ele><time>2026-04-08T16:52:48.315Z</time></trkpt><trkpt lat="45.8605126" lon="8.8688768"><ele>387.20000000000005</ele><time>2026-04-08T16:52:49.303Z</time></trkpt><trkpt lat="45.8605465" lon="8.8690109"><ele>387.0</ele><time>2026-04-08T16:52:50.309Z</time></trkpt><trkpt lat="45.860576" lon="8.8691301"><ele>387.0</ele><time>2026-04-08T16:52:51.315Z</time></trkpt><trkpt lat="45.8606076" lon="8.8692492"><ele>387.0</ele><time>2026-04-08T16:52:52.312Z</time></trkpt><trkpt lat="45.8606415" lon="8.8693729"><ele>387.0</ele><time>2026-04-08T16:52:53.307Z</time></trkpt><trkpt lat="45.8606751" lon="8.8694915"><ele>387.0</ele><time>2026-04-08T16:52:54.306Z</time></trkpt><trkpt lat="45.860706" lon="8.8696003"><ele>387.0</ele><time>2026-04-08T16:52:55.307Z</time></trkpt><trkpt lat="45.8607345" lon="8.8696974"><ele>387.0</ele><time>2026-04-08T16:52:56.32Z</time></trkpt><trkpt lat="45.860761" lon="8.869787"><ele>387.0</ele><time>2026-04-08T16:52:57.302Z</time></trkpt><trkpt lat="45.8607928" lon="8.8698938"><ele>387.0</ele><time>2026-04-08T16:52:58.318Z</time></trkpt><trkpt lat="45.8608297" lon="8.8700212"><ele>387.0</ele><time>2026-04-08T16:52:59.324Z</time></trkpt><trkpt lat="45.8608709" lon="8.8701638"><ele>387.0</ele><time>2026-04-08T16:53:00.31Z</time></trkpt><trkpt lat="45.8609135" lon="8.8703075"><ele>387.0</ele><time>2026-04-08T16:53:01.313Z</time></trkpt><trkpt lat="45.8609664" lon="8.8704498"><ele>388.5</ele><time>2026-04-08T16:53:02.319Z</time></trkpt><trkpt lat="45.8610193" lon="8.8705906"><ele>390.0</ele><time>2026-04-08T16:53:03.313Z</time></trkpt><trkpt lat="45.8610729" lon="8.8707329"><ele>391.5</ele><time>2026-04-08T16:53:04.309Z</time></trkpt><trkpt lat="45.861131" lon="8.8708793"><ele>393.0</ele><time>2026-04-08T16:53:05.307Z</time></trkpt><trkpt lat="45.861194" lon="8.8710366"><ele>393.0</ele><time>2026-04-08T16:53:06.304Z</time></trkpt><trkpt lat="45.8612596" lon="8.8712047"><ele>393.0</ele><time>2026-04-08T16:53:07.31Z</time></trkpt><trkpt lat="45.8613261" lon="8.8713735"><ele>393.0</ele><time>2026-04-08T16:53:08.32Z</time></trkpt><trkpt lat="45.8613891" lon="8.8715294"><ele>393.0</ele><time>2026-04-08T16:53:09.296Z</time></trkpt><trkpt lat="45.8614463" lon="8.8716782"><ele>391.79999999999995</ele><time>2026-04-08T16:53:10.31Z</time></trkpt><trkpt lat="45.8614893" lon="8.871826"><ele>390.6</ele><time>2026-04-08T16:53:11.32Z</time></trkpt><trkpt lat="45.8615079" lon="8.8719736"><ele>389.4</ele><time>2026-04-08T16:53:12.281Z</time></trkpt><trkpt lat="45.8614994" lon="8.8721201"><ele>388.20000000000005</ele><time>2026-04-08T16:53:13.302Z</time></trkpt><trkpt lat="45.8614622" lon="8.8722706"><ele>387.0</ele><time>2026-04-08T16:53:14.308Z</time></trkpt><trkpt lat="45.8614013" lon="8.8724222"><ele>387.0</ele><time>2026-04-08T16:53:15.306Z</time></trkpt><trkpt lat="45.8613315" lon="8.87258"><ele>387.0</ele><time>2026-04-08T16:53:16.309Z</time></trkpt><trkpt lat="45.8612606" lon="8.8727425"><ele>387.0</ele><time>2026-04-08T16:53:17.315Z</time></trkpt><trkpt lat="45.861187" lon="8.8729139"><ele>387.0</ele><time>2026-04-08T16:53:18.299Z</time></trkpt><trkpt lat="45.8611223" lon="8.8731015"><ele>385.25</ele><time>2026-04-08T16:53:19.303Z</time></trkpt><trkpt lat="45.8610745" lon="8.8733013"><ele>383.5</ele><time>2026-04-08T16:53:20.299Z</time></trkpt><trkpt lat="45.8610389" lon="8.873507"><ele>381.75</ele><time>2026-04-08T16:53:21.317Z</time></trkpt><trkpt lat="45.8610102" lon="8.8737163"><ele>380.0</ele><time>2026-04-08T16:53:22.307Z</time></trkpt><trkpt lat="45.8609864" lon="8.8739173"><ele>379.75</ele><time>2026-04-08T16:53:23.3Z</time></trkpt><trkpt lat="45.8609631" lon="8.8741157"><ele>379.5</ele><time>2026-04-08T16:53:24.306Z</time></trkpt><trkpt lat="45.8609406" lon="8.8743176"><ele>379.25</ele><time>2026-04-08T16:53:25.287Z</time></trkpt><trkpt lat="45.8609191" lon="8.8745194"><ele>379.0</ele><time>2026-04-08T16:53:26.299Z</time></trkpt><trkpt lat="45.8608956" lon="8.8747172"><ele>379.0</ele><time>2026-04-08T16:53:27.321Z</time></trkpt><trkpt lat="45.8608697" lon="8.8749188"><ele>379.0</ele><time>2026-04-08T16:53:28.308Z</time></trkpt><trkpt lat="45.8608441" lon="8.8751211"><ele>379.0</ele><time>2026-04-08T16:53:29.313Z</time></trkpt><trkpt lat="45.8608181" lon="8.8753172"><ele>379.0</ele><time>2026-04-08T16:53:30.323Z</time></trkpt><trkpt lat="45.8607931" lon="8.8755044"><ele>377.5</ele><time>2026-04-08T16:53:31.32Z</time></trkpt><trkpt lat="45.8607684" lon="8.8756866"><ele>376.0</ele><time>2026-04-08T16:53:32.338Z</time></trkpt><trkpt lat="45.8607443" lon="8.8758598"><ele>374.5</ele><time>2026-04-08T16:53:33.33Z</time></trkpt><trkpt lat="45.8607208" lon="8.8760348"><ele>373.0</ele><time>2026-04-08T16:53:34.319Z</time></trkpt><trkpt lat="45.8606979" lon="8.8762264"><ele>371.75</ele><time>2026-04-08T16:53:35.306Z</time></trkpt><trkpt lat="45.8606728" lon="8.8764305"><ele>370.5</ele><time>2026-04-08T16:53:36.325Z</time></trkpt><trkpt lat="45.8606463" lon="8.8766413"><ele>369.25</ele><time>2026-04-08T16:53:37.296Z</time></trkpt><trkpt lat="45.8606182" lon="8.8768534"><ele>368.0</ele><time>2026-04-08T16:53:38.324Z</time></trkpt><trkpt lat="45.8605895" lon="8.8770643"><ele>367.75</ele><time>2026-04-08T16:53:39.323Z</time></trkpt><trkpt lat="45.8605622" lon="8.8772745"><ele>367.5</ele><time>2026-04-08T16:53:40.319Z</time></trkpt><trkpt lat="45.8605397" lon="8.8774718"><ele>367.25</ele><time>2026-04-08T16:53:41.331Z</time></trkpt><trkpt lat="45.860519" lon="8.8776523"><ele>367.0</ele><time>2026-04-08T16:53:42.343Z</time></trkpt><trkpt lat="45.8604993" lon="8.8778196"><ele>368.40000000000003</ele><time>2026-04-08T16:53:43.328Z</time></trkpt><trkpt lat="45.8604804" lon="8.877982"><ele>369.8</ele><time>2026-04-08T16:53:44.349Z</time></trkpt><trkpt lat="45.8604592" lon="8.8781208"><ele>371.2</ele><time>2026-04-08T16:53:45.329Z</time></trkpt><trkpt lat="45.8604394" lon="8.8782509"><ele>372.6</ele><time>2026-04-08T16:53:46.325Z</time></trkpt><trkpt lat="45.8604205" lon="8.8783662"><ele>374.0</ele><time>2026-04-08T16:53:47.307Z</time></trkpt><trkpt lat="45.8603813" lon="8.8784484"><ele>375.6</ele><time>2026-04-08T16:53:48.314Z</time></trkpt><trkpt lat="45.8602584" lon="8.8785393"><ele>377.2</ele><time>2026-04-08T16:53:50.304Z</time></trkpt><trkpt lat="45.8601616" lon="8.8785603"><ele>378.8</ele><time>2026-04-08T16:53:51.312Z</time></trkpt><trkpt lat="45.8600644" lon="8.8785842"><ele>380.40000000000003</ele><time>2026-04-08T16:53:52.312Z</time></trkpt><trkpt lat="45.8599752" lon="8.8786133"><ele>382.0</ele><time>2026-04-08T16:53:53.331Z</time></trkpt><trkpt lat="45.859878" lon="8.8786468"><ele>382.0</ele><time>2026-04-08T16:53:54.337Z</time></trkpt><trkpt lat="45.8597717" lon="8.8786722"><ele>382.0</ele><time>2026-04-08T16:53:55.311Z</time></trkpt><trkpt lat="45.8596661" lon="8.8787059"><ele>382.0</ele><time>2026-04-08T16:53:56.304Z</time></trkpt><trkpt lat="45.8595509" lon="8.8787414"><ele>382.0</ele><time>2026-04-08T16:53:57.311Z</time></trkpt><trkpt lat="45.8594379" lon="8.8787756"><ele>382.0</ele><time>2026-04-08T16:53:58.32Z</time></trkpt><trkpt lat="45.8593249" lon="8.8788106"><ele>381.40000000000003</ele><time>2026-04-08T16:53:59.303Z</time></trkpt><trkpt lat="45.8592152" lon="8.8788447"><ele>380.8</ele><time>2026-04-08T16:54:00.321Z</time></trkpt><trkpt lat="45.8591144" lon="8.8788722"><ele>380.2</ele><time>2026-04-08T16:54:01.318Z</time></trkpt><trkpt lat="45.8590285" lon="8.8789025"><ele>379.6</ele><time>2026-04-08T16:54:02.306Z</time></trkpt><trkpt lat="45.8589616" lon="8.878942"><ele>379.0</ele><time>2026-04-08T16:54:03.309Z</time></trkpt><trkpt lat="45.8588679" lon="8.879056"><ele>379.0</ele><time>2026-04-08T16:54:05.312Z</time></trkpt><trkpt lat="45.8588924" lon="8.8792134"><ele>379.0</ele><time>2026-04-08T16:54:06.309Z</time></trkpt><trkpt lat="45.8589278" lon="8.8793656"><ele>379.0</ele><time>2026-04-08T16:54:07.336Z</time></trkpt><trkpt lat="45.8589585" lon="8.8795231"><ele>379.0</ele><time>2026-04-08T16:54:08.328Z</time></trkpt><trkpt lat="45.8589883" lon="8.8796821"><ele>379.0</ele><time>2026-04-08T16:54:09.322Z</time></trkpt><trkpt lat="45.8590119" lon="8.8798381"><ele>379.0</ele><time>2026-04-08T16:54:10.343Z</time></trkpt><trkpt lat="45.8590346" lon="8.8799967"><ele>379.0</ele><time>2026-04-08T16:54:11.32Z</time></trkpt><trkpt lat="45.8590549" lon="8.8801524"><ele>379.0</ele><time>2026-04-08T16:54:12.339Z</time></trkpt><trkpt lat="45.8590753" lon="8.8803065"><ele>379.0</ele><time>2026-04-08T16:54:13.314Z</time></trkpt><trkpt lat="45.8590982" lon="8.8804662"><ele>379.2</ele><time>2026-04-08T16:54:14.312Z</time></trkpt><trkpt lat="45.8591191" lon="8.8806301"><ele>379.4</ele><time>2026-04-08T16:54:15.315Z</time></trkpt><trkpt lat="45.8591401" lon="8.880782"><ele>379.6</ele><time>2026-04-08T16:54:16.302Z</time></trkpt><trkpt lat="45.8591598" lon="8.8809279"><ele>379.8</ele><time>2026-04-08T16:54:17.334Z</time></trkpt><trkpt lat="45.859183" lon="8.8810716"><ele>380.0</ele><time>2026-04-08T16:54:18.303Z</time></trkpt><trkpt lat="45.8592026" lon="8.8812043"><ele>380.0</ele><time>2026-04-08T16:54:19.304Z</time></trkpt><trkpt lat="45.8592221" lon="8.8813238"><ele>380.0</ele><time>2026-04-08T16:54:20.332Z</time></trkpt><trkpt lat="45.8592364" lon="8.8814286"><ele>380.0</ele><time>2026-04-08T16:54:21.329Z</time></trkpt><trkpt lat="45.859244" lon="8.8815199"><ele>380.0</ele><time>2026-04-08T16:54:22.317Z</time></trkpt><trkpt lat="45.8591978" lon="8.8816841"><ele>380.0</ele><time>2026-04-08T16:54:24.323Z</time></trkpt><trkpt lat="45.8591567" lon="8.8817704"><ele>380.0</ele><time>2026-04-08T16:54:25.301Z</time></trkpt><trkpt lat="45.8590686" lon="8.8818434"><ele>380.25</ele><time>2026-04-08T16:54:26.312Z</time></trkpt><trkpt lat="45.8589723" lon="8.8819202"><ele>380.5</ele><time>2026-04-08T16:54:27.301Z</time></trkpt><trkpt lat="45.8588749" lon="8.8820018"><ele>380.75</ele><time>2026-04-08T16:54:28.308Z</time></trkpt><trkpt lat="45.8587766" lon="8.8820842"><ele>381.0</ele><time>2026-04-08T16:54:29.306Z</time></trkpt><trkpt lat="45.8586786" lon="8.8821692"><ele>381.0</ele><time>2026-04-08T16:54:30.31Z</time></trkpt><trkpt lat="45.8585808" lon="8.8822542"><ele>381.0</ele><time>2026-04-08T16:54:31.333Z</time></trkpt><trkpt lat="45.8584812" lon="8.8823385"><ele>381.0</ele><time>2026-04-08T16:54:32.326Z</time></trkpt><trkpt lat="45.8583802" lon="8.8824214"><ele>381.0</ele><time>2026-04-08T16:54:33.317Z</time></trkpt><trkpt lat="45.8582774" lon="8.8825033"><ele>380.75</ele><time>2026-04-08T16:54:34.327Z</time></trkpt><trkpt lat="45.8581775" lon="8.8825851"><ele>380.5</ele><time>2026-04-08T16:54:35.312Z</time></trkpt><trkpt lat="45.8580746" lon="8.8826574"><ele>380.25</ele><time>2026-04-08T16:54:36.316Z</time></trkpt><trkpt lat="45.857965" lon="8.8827137"><ele>380.0</ele><time>2026-04-08T16:54:37.334Z</time></trkpt><trkpt lat="45.8578488" lon="8.8827522"><ele>379.75</ele><time>2026-04-08T16:54:38.332Z</time></trkpt><trkpt lat="45.8577283" lon="8.8827782"><ele>379.5</ele><time>2026-04-08T16:54:39.311Z</time></trkpt><trkpt lat="45.8576046" lon="8.8827982"><ele>379.25</ele><time>2026-04-08T16:54:40.304Z</time></trkpt><trkpt lat="45.8574807" lon="8.8828182"><ele>379.0</ele><time>2026-04-08T16:54:41.319Z</time></trkpt><trkpt lat="45.8573469" lon="8.8828431"><ele>377.0</ele><time>2026-04-08T16:54:42.316Z</time></trkpt><trkpt lat="45.8572039" lon="8.882868"><ele>375.0</ele><time>2026-04-08T16:54:43.311Z</time></trkpt><trkpt lat="45.857056" lon="8.8828975"><ele>373.0</ele><time>2026-04-08T16:54:44.332Z</time></trkpt><trkpt lat="45.8569083" lon="8.882936"><ele>371.0</ele><time>2026-04-08T16:54:45.312Z</time></trkpt><trkpt lat="45.8567659" lon="8.882983"><ele>368.5</ele><time>2026-04-08T16:54:46.298Z</time></trkpt><trkpt lat="45.8566261" lon="8.8830284"><ele>366.0</ele><time>2026-04-08T16:54:47.33Z</time></trkpt><trkpt lat="45.8564997" lon="8.8830929"><ele>363.5</ele><time>2026-04-08T16:54:48.325Z</time></trkpt><trkpt lat="45.8563817" lon="8.8831554"><ele>361.0</ele><time>2026-04-08T16:54:49.304Z</time></trkpt><trkpt lat="45.8562824" lon="8.8832322"><ele>361.0</ele><time>2026-04-08T16:54:50.308Z</time></trkpt><trkpt lat="45.856196" lon="8.8833291"><ele>361.0</ele><time>2026-04-08T16:54:51.331Z</time></trkpt><trkpt lat="45.856118" lon="8.8834483"><ele>361.0</ele><time>2026-04-08T16:54:52.302Z</time></trkpt><trkpt lat="45.8560909" lon="8.8836327"><ele>361.0</ele><time>2026-04-08T16:54:53.332Z</time></trkpt><trkpt lat="45.8560978" lon="8.8838359"><ele>360.0</ele><time>2026-04-08T16:54:54.303Z</time></trkpt><trkpt lat="45.8560987" lon="8.8840156"><ele>359.0</ele><time>2026-04-08T16:54:55.314Z</time></trkpt><trkpt lat="45.8560931" lon="8.8841806"><ele>358.0</ele><time>2026-04-08T16:54:56.32Z</time></trkpt><trkpt lat="45.8560789" lon="8.884337"><ele>357.0</ele><time>2026-04-08T16:54:57.321Z</time></trkpt><trkpt lat="45.856061" lon="8.88449"><ele>357.0</ele><time>2026-04-08T16:54:58.31Z</time></trkpt><trkpt lat="45.8560417" lon="8.8846363"><ele>357.0</ele><time>2026-04-08T16:54:59.312Z</time></trkpt><trkpt lat="45.8560225" lon="8.884787"><ele>357.0</ele><time>2026-04-08T16:55:00.317Z</time></trkpt><trkpt lat="45.856015" lon="8.8849568"><ele>357.0</ele><time>2026-04-08T16:55:01.305Z</time></trkpt><trkpt lat="45.8560195" lon="8.8851528"><ele>357.75</ele><time>2026-04-08T16:55:02.308Z</time></trkpt><trkpt lat="45.8560359" lon="8.8853452"><ele>358.5</ele><time>2026-04-08T16:55:03.316Z</time></trkpt><trkpt lat="45.8560449" lon="8.8855392"><ele>359.25</ele><time>2026-04-08T16:55:04.308Z</time></trkpt><trkpt lat="45.8560434" lon="8.8857213"><ele>360.0</ele><time>2026-04-08T16:55:05.342Z</time></trkpt><trkpt lat="45.8560429" lon="8.8858885"><ele>359.3333333333333</ele><time>2026-04-08T16:55:06.296Z</time></trkpt><trkpt lat="45.8560463" lon="8.8860439"><ele>358.6666666666667</ele><time>2026-04-08T16:55:07.314Z</time></trkpt><trkpt lat="45.8560463" lon="8.8861698"><ele>358.0</ele><time>2026-04-08T16:55:08.319Z</time></trkpt><trkpt lat="45.8560091" lon="8.8862521"><ele>357.33333333333337</ele><time>2026-04-08T16:55:09.305Z</time></trkpt><trkpt lat="45.855961" lon="8.8863349"><ele>356.6666666666667</ele><time>2026-04-08T16:55:10.31Z</time></trkpt><trkpt lat="45.8559301" lon="8.8864339"><ele>356.0</ele><time>2026-04-08T16:55:11.295Z</time></trkpt><trkpt lat="45.8559273" lon="8.8865416"><ele>356.0</ele><time>2026-04-08T16:55:12.316Z</time></trkpt><trkpt lat="45.8559626" lon="8.8866403"><ele>356.0</ele><time>2026-04-08T16:55:13.308Z</time></trkpt><trkpt lat="45.8560093" lon="8.8867309"><ele>356.0</ele><time>2026-04-08T16:55:14.322Z</time></trkpt><trkpt lat="45.8560535" lon="8.8868206"><ele>356.0</ele><time>2026-04-08T16:55:15.302Z</time></trkpt><trkpt lat="45.856094" lon="8.886922"><ele>356.0</ele><time>2026-04-08T16:55:16.307Z</time></trkpt><trkpt lat="45.8561175" lon="8.8870376"><ele>356.0</ele><time>2026-04-08T16:55:17.303Z</time></trkpt><trkpt lat="45.8561196" lon="8.8871556"><ele>354.0</ele><time>2026-04-08T16:55:18.297Z</time></trkpt><trkpt lat="45.8561214" lon="8.8872948"><ele>352.0</ele><time>2026-04-08T16:55:19.326Z</time></trkpt><trkpt lat="45.8561128" lon="8.8874884"><ele>350.0</ele><time>2026-04-08T16:55:20.319Z</time></trkpt><trkpt lat="45.856082" lon="8.887753"><ele>348.0</ele><time>2026-04-08T16:55:21.302Z</time></trkpt><trkpt lat="45.8560462" lon="8.8880019"><ele>343.6666666666667</ele><time>2026-04-08T16:55:22.334Z</time></trkpt><trkpt lat="45.8560115" lon="8.888247"><ele>339.33333333333337</ele><time>2026-04-08T16:55:23.3Z</time></trkpt><trkpt lat="45.8559577" lon="8.8885148"><ele>335.0</ele><time>2026-04-08T16:55:24.294Z</time></trkpt><trkpt lat="45.855903" lon="8.8888158"><ele>334.0</ele><time>2026-04-08T16:55:25.316Z</time></trkpt><trkpt lat="45.8558551" lon="8.8890677"><ele>333.0</ele><time>2026-04-08T16:55:26.298Z</time></trkpt><trkpt lat="45.8558111" lon="8.8893163"><ele>332.0</ele><time>2026-04-08T16:55:27.297Z</time></trkpt><trkpt lat="45.8557691" lon="8.8895544"><ele>331.0</ele><time>2026-04-08T16:55:28.32Z</time></trkpt><trkpt lat="45.8557283" lon="8.8897818"><ele>330.0</ele><time>2026-04-08T16:55:29.32Z</time></trkpt><trkpt lat="45.8556894" lon="8.8900031"><ele>329.0</ele><time>2026-04-08T16:55:30.297Z</time></trkpt><trkpt lat="45.8556527" lon="8.8902278"><ele>328.33333333333337</ele><time>2026-04-08T16:55:31.321Z</time></trkpt><trkpt lat="45.8556125" lon="8.8904508"><ele>327.6666666666667</ele><time>2026-04-08T16:55:32.31Z</time></trkpt><trkpt lat="45.8555718" lon="8.8906676"><ele>327.0</ele><time>2026-04-08T16:55:33.309Z</time></trkpt><trkpt lat="45.8555271" lon="8.8908826"><ele>329.0</ele><time>2026-04-08T16:55:34.306Z</time></trkpt><trkpt lat="45.8554785" lon="8.8910924"><ele>331.0</ele><time>2026-04-08T16:55:35.297Z</time></trkpt><trkpt lat="45.8554226" lon="8.8912991"><ele>333.0</ele><time>2026-04-08T16:55:36.307Z</time></trkpt><trkpt lat="45.8553566" lon="8.8915072"><ele>333.0</ele><time>2026-04-08T16:55:37.317Z</time></trkpt><trkpt lat="45.8552723" lon="8.8917103"><ele>333.0</ele><time>2026-04-08T16:55:38.304Z</time></trkpt><trkpt lat="45.8551729" lon="8.8919062"><ele>333.0</ele><time>2026-04-08T16:55:39.299Z</time></trkpt><trkpt lat="45.8550628" lon="8.8920981"><ele>334.3333333333333</ele><time>2026-04-08T16:55:40.309Z</time></trkpt><trkpt lat="45.8549493" lon="8.8922853"><ele>335.66666666666663</ele><time>2026-04-08T16:55:41.318Z</time></trkpt><trkpt lat="45.8548326" lon="8.8924702"><ele>337.0</ele><time>2026-04-08T16:55:42.31Z</time></trkpt><trkpt lat="45.8547093" lon="8.8926445"><ele>341.0</ele><time>2026-04-08T16:55:43.334Z</time></trkpt><trkpt lat="45.8545775" lon="8.8928051"><ele>345.0</ele><time>2026-04-08T16:55:44.321Z</time></trkpt><trkpt lat="45.8544373" lon="8.8929617"><ele>349.0</ele><time>2026-04-08T16:55:45.306Z</time></trkpt><trkpt lat="45.8542901" lon="8.8931181"><ele>348.0</ele><time>2026-04-08T16:55:46.298Z</time></trkpt><trkpt lat="45.8541393" lon="8.8932778"><ele>347.0</ele><time>2026-04-08T16:55:47.314Z</time></trkpt><trkpt lat="45.8539909" lon="8.8934427"><ele>346.0</ele><time>2026-04-08T16:55:48.304Z</time></trkpt><trkpt lat="45.853846" lon="8.8936166"><ele>346.0</ele><time>2026-04-08T16:55:49.3Z</time></trkpt><trkpt lat="45.8537107" lon="8.8937934"><ele>346.0</ele><time>2026-04-08T16:55:50.297Z</time></trkpt><trkpt lat="45.8535853" lon="8.8939694"><ele>346.0</ele><time>2026-04-08T16:55:51.313Z</time></trkpt><trkpt lat="45.853467" lon="8.8941368"><ele>344.3333333333333</ele><time>2026-04-08T16:55:52.32Z</time></trkpt><trkpt lat="45.8533529" lon="8.8942963"><ele>342.6666666666667</ele><time>2026-04-08T16:55:53.324Z</time></trkpt><trkpt lat="45.8532422" lon="8.8944585"><ele>341.0</ele><time>2026-04-08T16:55:54.329Z</time></trkpt><trkpt lat="45.8531331" lon="8.8946194"><ele>341.0</ele><time>2026-04-08T16:55:55.31Z</time></trkpt><trkpt lat="45.8530228" lon="8.8947779"><ele>341.0</ele><time>2026-04-08T16:55:56.318Z</time></trkpt><trkpt lat="45.852909" lon="8.894933"><ele>341.0</ele><time>2026-04-08T16:55:57.328Z</time></trkpt><trkpt lat="45.8527988" lon="8.8950897"><ele>343.33333333333337</ele><time>2026-04-08T16:55:58.312Z</time></trkpt><trkpt lat="45.8526871" lon="8.8952467"><ele>345.6666666666667</ele><time>2026-04-08T16:55:59.332Z</time></trkpt><trkpt lat="45.8525781" lon="8.8954019"><ele>348.0</ele><time>2026-04-08T16:56:00.309Z</time></trkpt><trkpt lat="45.8524734" lon="8.8955492"><ele>346.0</ele><time>2026-04-08T16:56:01.311Z</time></trkpt><trkpt lat="45.8523647" lon="8.8956971"><ele>344.0</ele><time>2026-04-08T16:56:02.316Z</time></trkpt><trkpt lat="45.8522501" lon="8.8958429"><ele>342.0</ele><time>2026-04-08T16:56:03.341Z</time></trkpt><trkpt lat="45.8521271" lon="8.8959801"><ele>342.0</ele><time>2026-04-08T16:56:04.308Z</time></trkpt><trkpt lat="45.8519963" lon="8.8961067"><ele>342.0</ele><time>2026-04-08T16:56:05.315Z</time></trkpt><trkpt lat="45.8518602" lon="8.8962291"><ele>342.0</ele><time>2026-04-08T16:56:06.315Z</time></trkpt><trkpt lat="45.851723" lon="8.8963497"><ele>341.0</ele><time>2026-04-08T16:56:07.31Z</time></trkpt><trkpt lat="45.8515915" lon="8.8964636"><ele>340.0</ele><time>2026-04-08T16:56:08.305Z</time></trkpt><trkpt lat="45.8514699" lon="8.896572"><ele>339.0</ele><time>2026-04-08T16:56:09.311Z</time></trkpt><trkpt lat="45.8513611" lon="8.8966675"><ele>338.0</ele><time>2026-04-08T16:56:10.318Z</time></trkpt><trkpt lat="45.8512567" lon="8.8967536"><ele>338.0</ele><time>2026-04-08T16:56:11.317Z</time></trkpt><trkpt lat="45.8511649" lon="8.8968262"><ele>338.0</ele><time>2026-04-08T16:56:12.316Z</time></trkpt><trkpt lat="45.8510753" lon="8.8969019"><ele>338.0</ele><time>2026-04-08T16:56:13.304Z</time></trkpt><trkpt lat="45.8509968" lon="8.8969924"><ele>338.0</ele><time>2026-04-08T16:56:14.315Z</time></trkpt><trkpt lat="45.8509356" lon="8.8971054"><ele>338.0</ele><time>2026-04-08T16:56:15.313Z</time></trkpt><trkpt lat="45.8508957" lon="8.8972407"><ele>337.2</ele><time>2026-04-08T16:56:16.304Z</time></trkpt><trkpt lat="45.8508848" lon="8.8973926"><ele>336.4</ele><time>2026-04-08T16:56:17.325Z</time></trkpt><trkpt lat="45.8509084" lon="8.8975469"><ele>335.59999999999997</ele><time>2026-04-08T16:56:18.318Z</time></trkpt><trkpt lat="45.8509476" lon="8.8977013"><ele>334.79999999999995</ele><time>2026-04-08T16:56:19.306Z</time></trkpt><trkpt lat="45.8509947" lon="8.897854"><ele>334.0</ele><time>2026-04-08T16:56:20.31Z</time></trkpt><trkpt lat="45.8510466" lon="8.8980014"><ele>334.6</ele><time>2026-04-08T16:56:21.314Z</time></trkpt><trkpt lat="45.8510907" lon="8.8981429"><ele>335.2</ele><time>2026-04-08T16:56:22.328Z</time></trkpt><trkpt lat="45.8511121" lon="8.8982746"><ele>335.8</ele><time>2026-04-08T16:56:23.317Z</time></trkpt><trkpt lat="45.8511086" lon="8.8984006"><ele>336.40000000000003</ele><time>2026-04-08T16:56:24.328Z</time></trkpt><trkpt lat="45.8510988" lon="8.8985378"><ele>337.0</ele><time>2026-04-08T16:56:25.319Z</time></trkpt><trkpt lat="45.8510954" lon="8.8986576"><ele>337.0</ele><time>2026-04-08T16:56:26.325Z</time></trkpt><trkpt lat="45.8510879" lon="8.8987806"><ele>337.0</ele><time>2026-04-08T16:56:28.289Z</time></trkpt><trkpt lat="45.8510668" lon="8.8989297"><ele>337.0</ele><time>2026-04-08T16:56:34.313Z</time></trkpt><trkpt lat="45.851055" lon="8.8990808"><ele>337.0</ele><time>2026-04-08T16:56:35.314Z</time></trkpt><trkpt lat="45.8510325" lon="8.8992649"><ele>337.0</ele><time>2026-04-08T16:56:36.302Z</time></trkpt><trkpt lat="45.8510092" lon="8.8994545"><ele>338.25</ele><time>2026-04-08T16:56:37.31Z</time></trkpt><trkpt lat="45.8509849" lon="8.899653"><ele>339.5</ele><time>2026-04-08T16:56:38.309Z</time></trkpt><trkpt lat="45.8509662" lon="8.899841"><ele>340.75</ele><time>2026-04-08T16:56:39.315Z</time></trkpt><trkpt lat="45.8509485" lon="8.899996"><ele>342.0</ele><time>2026-04-08T16:56:40.316Z</time></trkpt><trkpt lat="45.8509502" lon="8.9001334"><ele>344.8</ele><time>2026-04-08T16:56:41.298Z</time></trkpt><trkpt lat="45.850953" lon="8.9002462"><ele>347.6</ele><time>2026-04-08T16:56:42.317Z</time></trkpt><trkpt lat="45.8509742" lon="8.9003397"><ele>350.40000000000003</ele><time>2026-04-08T16:56:43.308Z</time></trkpt><trkpt lat="45.8510569" lon="8.9004649"><ele>353.20000000000005</ele><time>2026-04-08T16:56:45.307Z</time></trkpt><trkpt lat="45.8511571" lon="8.9004935"><ele>356.0</ele><time>2026-04-08T16:56:46.304Z</time></trkpt><trkpt lat="45.851344" lon="8.9004719"><ele>357.33333333333337</ele><time>2026-04-08T16:56:47.313Z</time></trkpt><trkpt lat="45.8515247" lon="8.9004263"><ele>358.6666666666667</ele><time>2026-04-08T16:56:48.305Z</time></trkpt><trkpt lat="45.8516681" lon="8.9003696"><ele>360.0</ele><time>2026-04-08T16:56:49.301Z</time></trkpt><trkpt lat="45.8518115" lon="8.9003415"><ele>360.0</ele><time>2026-04-08T16:56:50.297Z</time></trkpt><trkpt lat="45.8519177" lon="8.9003271"><ele>360.0</ele><time>2026-04-08T16:56:51.311Z</time></trkpt><trkpt lat="45.8520022" lon="8.9003378"><ele>360.0</ele><time>2026-04-08T16:56:52.317Z</time></trkpt><trkpt lat="45.852072" lon="8.9003853"><ele>360.0</ele><time>2026-04-08T16:56:53.312Z</time></trkpt><trkpt lat="45.8521251" lon="8.9004728"><ele>360.0</ele><time>2026-04-08T16:56:54.305Z</time></trkpt><trkpt lat="45.8521578" lon="8.9005577"><ele>360.0</ele><time>2026-04-08T16:56:55.318Z</time></trkpt><trkpt lat="45.8521392" lon="8.9007504"><ele>360.0</ele><time>2026-04-08T16:56:57.313Z</time></trkpt><trkpt lat="45.8520938" lon="8.9008469"><ele>360.0</ele><time>2026-04-08T16:56:58.309Z</time></trkpt><trkpt lat="45.8520442" lon="8.9009333"><ele>360.0</ele><time>2026-04-08T16:56:59.33Z</time></trkpt><trkpt lat="45.8520049" lon="8.9010176"><ele>360.0</ele><time>2026-04-08T16:57:00.324Z</time></trkpt><trkpt lat="45.851969" lon="8.9011044"><ele>360.0</ele><time>2026-04-08T16:57:01.311Z</time></trkpt><trkpt lat="45.8519367" lon="8.901203"><ele>360.0</ele><time>2026-04-08T16:57:02.333Z</time></trkpt><trkpt lat="45.8518997" lon="8.9013013"><ele>361.2857142857143</ele><time>2026-04-08T16:57:03.334Z</time></trkpt><trkpt lat="45.8518802" lon="8.9013887"><ele>362.5714285714286</ele><time>2026-04-08T16:57:04.336Z</time></trkpt><trkpt lat="45.8518969" lon="8.9014814"><ele>363.8571428571429</ele><time>2026-04-08T16:57:05.31Z</time></trkpt><trkpt lat="45.8519301" lon="8.9015743"><ele>365.1428571428571</ele><time>2026-04-08T16:57:06.312Z</time></trkpt><trkpt lat="45.8519754" lon="8.9016657"><ele>366.42857142857144</ele><time>2026-04-08T16:57:07.311Z</time></trkpt><trkpt lat="45.8520259" lon="8.9017488"><ele>367.7142857142857</ele><time>2026-04-08T16:57:08.319Z</time></trkpt><trkpt lat="45.8520755" lon="8.901832"><ele>369.0</ele><time>2026-04-08T16:57:09.308Z</time></trkpt><trkpt lat="45.8521306" lon="8.9019125"><ele>371.0</ele><time>2026-04-08T16:57:10.32Z</time></trkpt><trkpt lat="45.852186" lon="8.9019929"><ele>373.0</ele><time>2026-04-08T16:57:11.312Z</time></trkpt><trkpt lat="45.8522422" lon="8.90207"><ele>375.0</ele><time>2026-04-08T16:57:12.324Z</time></trkpt><trkpt lat="45.8522994" lon="8.9021481"><ele>377.0</ele><time>2026-04-08T16:57:13.316Z</time></trkpt><trkpt lat="45.8523527" lon="8.9022268"><ele>379.0</ele><time>2026-04-08T16:57:14.32Z</time></trkpt><trkpt lat="45.8524074" lon="8.9023112"><ele>381.0</ele><time>2026-04-08T16:57:15.32Z</time></trkpt><trkpt lat="45.852463" lon="8.9024127"><ele>381.0</ele><time>2026-04-08T16:57:16.309Z</time></trkpt><trkpt lat="45.85252" lon="8.902531"><ele>381.0</ele><time>2026-04-08T16:57:17.3Z</time></trkpt><trkpt lat="45.8525823" lon="8.9026465"><ele>381.0</ele><time>2026-04-08T16:57:18.312Z</time></trkpt><trkpt lat="45.8526266" lon="8.9027618"><ele>381.0</ele><time>2026-04-08T16:57:19.318Z</time></trkpt><trkpt lat="45.8526771" lon="8.9028828"><ele>381.0</ele><time>2026-04-08T16:57:20.305Z</time></trkpt><trkpt lat="45.8527234" lon="8.9030012"><ele>381.4</ele><time>2026-04-08T16:57:21.308Z</time></trkpt><trkpt lat="45.8527642" lon="8.9031222"><ele>381.8</ele><time>2026-04-08T16:57:22.333Z</time></trkpt><trkpt lat="45.8528023" lon="8.9032504"><ele>382.2</ele><time>2026-04-08T16:57:23.318Z</time></trkpt><trkpt lat="45.8528239" lon="8.903383"><ele>382.59999999999997</ele><time>2026-04-08T16:57:24.311Z</time></trkpt><trkpt lat="45.8528344" lon="8.9035273"><ele>383.0</ele><time>2026-04-08T16:57:25.314Z</time></trkpt><trkpt lat="45.8528322" lon="8.903675"><ele>384.0</ele><time>2026-04-08T16:57:26.345Z</time></trkpt><trkpt lat="45.8528239" lon="8.9038206"><ele>385.0</ele><time>2026-04-08T16:57:27.314Z</time></trkpt><trkpt lat="45.8528161" lon="8.9039704"><ele>386.0</ele><time>2026-04-08T16:57:28.295Z</time></trkpt><trkpt lat="45.852804" lon="8.9041147"><ele>387.0</ele><time>2026-04-08T16:57:29.307Z</time></trkpt><trkpt lat="45.8527893" lon="8.9042616"><ele>388.0</ele><time>2026-04-08T16:57:30.32Z</time></trkpt><trkpt lat="45.8527774" lon="8.9044089"><ele>388.79999999999995</ele><time>2026-04-08T16:57:31.302Z</time></trkpt><trkpt lat="45.8527636" lon="8.904559"><ele>389.6</ele><time>2026-04-08T16:57:32.313Z</time></trkpt><trkpt lat="45.8527568" lon="8.9047083"><ele>390.4</ele><time>2026-04-08T16:57:33.338Z</time></trkpt><trkpt lat="45.8527551" lon="8.9048587"><ele>391.20000000000005</ele><time>2026-04-08T16:57:34.332Z</time></trkpt><trkpt lat="45.8527576" lon="8.9050118"><ele>392.0</ele><time>2026-04-08T16:57:35.316Z</time></trkpt><trkpt lat="45.85277" lon="8.9051678"><ele>393.75</ele><time>2026-04-08T16:57:36.316Z</time></trkpt><trkpt lat="45.8527885" lon="8.9053262"><ele>395.5</ele><time>2026-04-08T16:57:37.321Z</time></trkpt><trkpt lat="45.85281" lon="8.9054908"><ele>397.25</ele><time>2026-04-08T16:57:38.327Z</time></trkpt><trkpt lat="45.8528324" lon="8.9056615"><ele>399.0</ele><time>2026-04-08T16:57:39.318Z</time></trkpt><trkpt lat="45.8528432" lon="8.9058402"><ele>398.75</ele><time>2026-04-08T16:57:40.31Z</time></trkpt><trkpt lat="45.8528334" lon="8.9060203"><ele>398.5</ele><time>2026-04-08T16:57:41.323Z</time></trkpt><trkpt lat="45.8528111" lon="8.9062"><ele>398.25</ele><time>2026-04-08T16:57:42.332Z</time></trkpt><trkpt lat="45.8527851" lon="8.9063805"><ele>398.0</ele><time>2026-04-08T16:57:43.339Z</time></trkpt><trkpt lat="45.8527588" lon="8.9065517"><ele>398.0</ele><time>2026-04-08T16:57:44.328Z</time></trkpt><trkpt lat="45.8527334" lon="8.9067142"><ele>398.0</ele><time>2026-04-08T16:57:45.336Z</time></trkpt><trkpt lat="45.8527046" lon="8.906875"><ele>398.0</ele><time>2026-04-08T16:57:46.32Z</time></trkpt><trkpt lat="45.8526657" lon="8.9070329"><ele>398.0</ele><time>2026-04-08T16:57:47.313Z</time></trkpt><trkpt lat="45.8526147" lon="8.9071843"><ele>398.4</ele><time>2026-04-08T16:57:48.309Z</time></trkpt><trkpt lat="45.8525507" lon="8.9073253"><ele>398.79999999999995</ele><time>2026-04-08T16:57:49.344Z</time></trkpt><trkpt lat="45.852479" lon="8.907443"><ele>399.2</ele><time>2026-04-08T16:57:50.339Z</time></trkpt><trkpt lat="45.8524084" lon="8.9075373"><ele>399.6</ele><time>2026-04-08T16:57:51.313Z</time></trkpt><trkpt lat="45.8523327" lon="8.9076295"><ele>400.0</ele><time>2026-04-08T16:57:52.329Z</time></trkpt><trkpt lat="45.8522529" lon="8.9077223"><ele>400.8</ele><time>2026-04-08T16:57:53.317Z</time></trkpt><trkpt lat="45.8521689" lon="8.9078125"><ele>401.6</ele><time>2026-04-08T16:57:54.318Z</time></trkpt><trkpt lat="45.8520862" lon="8.907901"><ele>402.4</ele><time>2026-04-08T16:57:55.312Z</time></trkpt><trkpt lat="45.8520043" lon="8.9079896"><ele>403.2</ele><time>2026-04-08T16:57:56.339Z</time></trkpt><trkpt lat="45.8519237" lon="8.908074"><ele>404.0</ele><time>2026-04-08T16:57:57.333Z</time></trkpt><trkpt lat="45.8518489" lon="8.9081549"><ele>404.16666666666663</ele><time>2026-04-08T16:57:58.341Z</time></trkpt><trkpt lat="45.8517833" lon="8.9082255"><ele>404.3333333333333</ele><time>2026-04-08T16:57:59.332Z</time></trkpt><trkpt lat="45.8517285" lon="8.9082871"><ele>404.5</ele><time>2026-04-08T16:58:00.327Z</time></trkpt><trkpt lat="45.85168" lon="8.9083522"><ele>404.66666666666663</ele><time>2026-04-08T16:58:01.337Z</time></trkpt><trkpt lat="45.8516331" lon="8.9084221"><ele>404.8333333333333</ele><time>2026-04-08T16:58:02.309Z</time></trkpt><trkpt lat="45.8515802" lon="8.908486"><ele>405.0</ele><time>2026-04-08T16:58:03.339Z</time></trkpt><trkpt lat="45.8514827" lon="8.908581"><ele>405.8333333333333</ele><time>2026-04-08T16:58:05.324Z</time></trkpt><trkpt lat="45.8514335" lon="8.9086429"><ele>406.66666666666663</ele><time>2026-04-08T16:58:06.336Z</time></trkpt><trkpt lat="45.8513774" lon="8.9087207"><ele>407.5</ele><time>2026-04-08T16:58:07.337Z</time></trkpt><trkpt lat="45.8513108" lon="8.9087933"><ele>408.3333333333333</ele><time>2026-04-08T16:58:08.323Z</time></trkpt><trkpt lat="45.851236" lon="8.9088676"><ele>409.16666666666663</ele><time>2026-04-08T16:58:09.326Z</time></trkpt><trkpt lat="45.8511355" lon="8.9088992"><ele>410.0</ele><time>2026-04-08T16:58:10.329Z</time></trkpt><trkpt lat="45.8510315" lon="8.9089127"><ele>411.5</ele><time>2026-04-08T16:58:11.315Z</time></trkpt><trkpt lat="45.8509219" lon="8.9089241"><ele>413.0</ele><time>2026-04-08T16:58:12.329Z</time></trkpt><trkpt lat="45.8508053" lon="8.9089354"><ele>414.5</ele><time>2026-04-08T16:58:13.324Z</time></trkpt><trkpt lat="45.8506808" lon="8.9089462"><ele>416.0</ele><time>2026-04-08T16:58:14.314Z</time></trkpt><trkpt lat="45.8505524" lon="8.9089554"><ele>416.0</ele><time>2026-04-08T16:58:15.337Z</time></trkpt><trkpt lat="45.8504235" lon="8.9089627"><ele>416.0</ele><time>2026-04-08T16:58:16.31Z</time></trkpt><trkpt lat="45.8502937" lon="8.9089652"><ele>416.0</ele><time>2026-04-08T16:58:17.319Z</time></trkpt><trkpt lat="45.8501659" lon="8.9089684"><ele>416.0</ele><time>2026-04-08T16:58:18.316Z</time></trkpt><trkpt lat="45.8500355" lon="8.9089721"><ele>415.0</ele><time>2026-04-08T16:58:19.329Z</time></trkpt><trkpt lat="45.8499094" lon="8.908973"><ele>414.0</ele><time>2026-04-08T16:58:20.331Z</time></trkpt><trkpt lat="45.8497941" lon="8.9089759"><ele>413.0</ele><time>2026-04-08T16:58:21.313Z</time></trkpt><trkpt lat="45.8496892" lon="8.9089752"><ele>412.0</ele><time>2026-04-08T16:58:22.346Z</time></trkpt><trkpt lat="45.8495992" lon="8.9089639"><ele>411.0</ele><time>2026-04-08T16:58:23.328Z</time></trkpt><trkpt lat="45.8495362" lon="8.9089464"><ele>411.0</ele><time>2026-04-08T16:58:24.319Z</time></trkpt><trkpt lat="45.8494521" lon="8.908901"><ele>411.0</ele><time>2026-04-08T16:58:26.335Z</time></trkpt><trkpt lat="45.8493564" lon="8.9088564"><ele>411.0</ele><time>2026-04-08T16:58:28.345Z</time></trkpt><trkpt lat="45.8492928" lon="8.908855"><ele>411.0</ele><time>2026-04-08T16:58:29.355Z</time></trkpt><trkpt lat="45.849219" lon="8.9088636"><ele>411.0</ele><time>2026-04-08T16:58:30.319Z</time></trkpt><trkpt lat="45.8491401" lon="8.9088618"><ele>411.0</ele><time>2026-04-08T16:58:31.316Z</time></trkpt><trkpt lat="45.8490603" lon="8.9088295"><ele>411.3333333333333</ele><time>2026-04-08T16:58:32.318Z</time></trkpt><trkpt lat="45.8489855" lon="8.908776"><ele>411.66666666666663</ele><time>2026-04-08T16:58:33.306Z</time></trkpt><trkpt lat="45.848913" lon="8.9087296"><ele>412.0</ele><time>2026-04-08T16:58:34.298Z</time></trkpt><trkpt lat="45.8488422" lon="8.9086848"><ele>412.3333333333333</ele><time>2026-04-08T16:58:35.335Z</time></trkpt><trkpt lat="45.8487657" lon="8.9086804"><ele>412.66666666666663</ele><time>2026-04-08T16:58:36.315Z</time></trkpt><trkpt lat="45.8486885" lon="8.9087626"><ele>413.0</ele><time>2026-04-08T16:58:37.322Z</time></trkpt><trkpt lat="45.848611" lon="8.9088499"><ele>413.0</ele><time>2026-04-08T16:58:38.334Z</time></trkpt><trkpt lat="45.8485198" lon="8.9089073"><ele>413.0</ele><time>2026-04-08T16:58:39.327Z</time></trkpt><trkpt lat="45.848427" lon="8.9089646"><ele>413.0</ele><time>2026-04-08T16:58:40.322Z</time></trkpt><trkpt lat="45.8483121" lon="8.9089833"><ele>413.0</ele><time>2026-04-08T16:58:41.304Z</time></trkpt><trkpt lat="45.8481847" lon="8.9089981"><ele>413.0</ele><time>2026-04-08T16:58:42.341Z</time></trkpt><trkpt lat="45.8480514" lon="8.9090113"><ele>413.0</ele><time>2026-04-08T16:58:43.321Z</time></trkpt><trkpt lat="45.8479087" lon="8.90903"><ele>413.0</ele><time>2026-04-08T16:58:44.32Z</time></trkpt><trkpt lat="45.8477592" lon="8.9090495"><ele>413.0</ele><time>2026-04-08T16:58:45.33Z</time></trkpt><trkpt lat="45.8476047" lon="8.9090664"><ele>413.0</ele><time>2026-04-08T16:58:46.336Z</time></trkpt><trkpt lat="45.847442" lon="8.9090836"><ele>413.0</ele><time>2026-04-08T16:58:47.313Z</time></trkpt><trkpt lat="45.8472706" lon="8.9090986"><ele>413.0</ele><time>2026-04-08T16:58:48.349Z</time></trkpt><trkpt lat="45.8470928" lon="8.9091172"><ele>413.0</ele><time>2026-04-08T16:58:49.339Z</time></trkpt><trkpt lat="45.8469107" lon="8.9091376"><ele>412.0</ele><time>2026-04-08T16:58:50.316Z</time></trkpt><trkpt lat="45.8467312" lon="8.9091547"><ele>411.0</ele><time>2026-04-08T16:58:51.332Z</time></trkpt><trkpt lat="45.846554" lon="8.9091748"><ele>410.0</ele><time>2026-04-08T16:58:52.302Z</time></trkpt><trkpt lat="45.8463757" lon="8.9091916"><ele>410.0</ele><time>2026-04-08T16:58:53.313Z</time></trkpt><trkpt lat="45.8461999" lon="8.9092034"><ele>410.0</ele><time>2026-04-08T16:58:54.305Z</time></trkpt><trkpt lat="45.8460254" lon="8.9092015"><ele>410.0</ele><time>2026-04-08T16:58:55.326Z</time></trkpt><trkpt lat="45.8458534" lon="8.9091872"><ele>409.3333333333333</ele><time>2026-04-08T16:58:56.308Z</time></trkpt><trkpt lat="45.8456919" lon="8.9091699"><ele>408.66666666666663</ele><time>2026-04-08T16:58:57.305Z</time></trkpt><trkpt lat="45.8455372" lon="8.9091552"><ele>408.0</ele><time>2026-04-08T16:58:58.318Z</time></trkpt><trkpt lat="45.8453909" lon="8.9091449"><ele>408.0</ele><time>2026-04-08T16:58:59.307Z</time></trkpt><trkpt lat="45.8452503" lon="8.9091344"><ele>408.0</ele><time>2026-04-08T16:59:00.315Z</time></trkpt><trkpt lat="45.8451139" lon="8.9091233"><ele>408.0</ele><time>2026-04-08T16:59:01.319Z</time></trkpt><trkpt lat="45.8449771" lon="8.9091106"><ele>408.0</ele><time>2026-04-08T16:59:02.308Z</time></trkpt><trkpt lat="45.8448363" lon="8.9090965"><ele>407.75</ele><time>2026-04-08T16:59:03.305Z</time></trkpt><trkpt lat="45.8446907" lon="8.9090851"><ele>407.5</ele><time>2026-04-08T16:59:04.343Z</time></trkpt><trkpt lat="45.8445434" lon="8.9090729"><ele>407.25</ele><time>2026-04-08T16:59:05.312Z</time></trkpt><trkpt lat="45.844391" lon="8.9090619"><ele>407.0</ele><time>2026-04-08T16:59:06.337Z</time></trkpt><trkpt lat="45.8442372" lon="8.9090518"><ele>406.3333333333333</ele><time>2026-04-08T16:59:07.306Z</time></trkpt><trkpt lat="45.8440825" lon="8.9090342"><ele>405.66666666666663</ele><time>2026-04-08T16:59:08.308Z</time></trkpt><trkpt lat="45.8439295" lon="8.9090127"><ele>405.0</ele><time>2026-04-08T16:59:09.327Z</time></trkpt><trkpt lat="45.8437743" lon="8.9089907"><ele>405.0</ele><time>2026-04-08T16:59:10.308Z</time></trkpt><trkpt lat="45.843617" lon="8.9089688"><ele>405.0</ele><time>2026-04-08T16:59:11.322Z</time></trkpt><trkpt lat="45.8434576" lon="8.9089425"><ele>405.0</ele><time>2026-04-08T16:59:12.304Z</time></trkpt><trkpt lat="45.843299" lon="8.9089051"><ele>402.66666666666663</ele><time>2026-04-08T16:59:13.307Z</time></trkpt><trkpt lat="45.8431458" lon="8.9088484"><ele>400.3333333333333</ele><time>2026-04-08T16:59:14.31Z</time></trkpt><trkpt lat="45.8429942" lon="8.9087919"><ele>398.0</ele><time>2026-04-08T16:59:15.307Z</time></trkpt><trkpt lat="45.8428516" lon="8.9087187"><ele>398.0</ele><time>2026-04-08T16:59:16.319Z</time></trkpt><trkpt lat="45.8427106" lon="8.9086347"><ele>398.0</ele><time>2026-04-08T16:59:17.321Z</time></trkpt><trkpt lat="45.8425762" lon="8.9085537"><ele>398.0</ele><time>2026-04-08T16:59:18.302Z</time></trkpt><trkpt lat="45.8424469" lon="8.9084787"><ele>398.0</ele><time>2026-04-08T16:59:19.309Z</time></trkpt><trkpt lat="45.8423112" lon="8.9084261"><ele>396.75</ele><time>2026-04-08T16:59:20.297Z</time></trkpt><trkpt lat="45.8421766" lon="8.9083779"><ele>395.5</ele><time>2026-04-08T16:59:21.323Z</time></trkpt><trkpt lat="45.8420366" lon="8.9083689"><ele>394.25</ele><time>2026-04-08T16:59:22.305Z</time></trkpt><trkpt lat="45.8419054" lon="8.9083807"><ele>393.0</ele><time>2026-04-08T16:59:23.318Z</time></trkpt><trkpt lat="45.8417662" lon="8.9084099"><ele>391.0</ele><time>2026-04-08T16:59:24.304Z</time></trkpt><trkpt lat="45.8416328" lon="8.9084521"><ele>389.0</ele><time>2026-04-08T16:59:25.306Z</time></trkpt><trkpt lat="45.8414994" lon="8.9085336"><ele>387.0</ele><time>2026-04-08T16:59:26.299Z</time></trkpt><trkpt lat="45.8413843" lon="8.9086629"><ele>385.0</ele><time>2026-04-08T16:59:27.307Z</time></trkpt><trkpt lat="45.8412714" lon="8.9088199"><ele>385.0</ele><time>2026-04-08T16:59:28.322Z</time></trkpt><trkpt lat="45.8411601" lon="8.908968"><ele>385.0</ele><time>2026-04-08T16:59:29.306Z</time></trkpt><trkpt lat="45.8410599" lon="8.909111"><ele>385.0</ele><time>2026-04-08T16:59:30.309Z</time></trkpt><trkpt lat="45.8409648" lon="8.9092449"><ele>385.0</ele><time>2026-04-08T16:59:31.31Z</time></trkpt><trkpt lat="45.8408785" lon="8.909368"><ele>384.8</ele><time>2026-04-08T16:59:32.314Z</time></trkpt><trkpt lat="45.8408011" lon="8.9094819"><ele>384.6</ele><time>2026-04-08T16:59:33.308Z</time></trkpt><trkpt lat="45.8407239" lon="8.9095964"><ele>384.4</ele><time>2026-04-08T16:59:34.303Z</time></trkpt><trkpt lat="45.8406473" lon="8.9097078"><ele>384.2</ele><time>2026-04-08T16:59:35.319Z</time></trkpt><trkpt lat="45.840574" lon="8.9098144"><ele>384.0</ele><time>2026-04-08T16:59:36.307Z</time></trkpt><trkpt lat="45.8404984" lon="8.9099201"><ele>384.0</ele><time>2026-04-08T16:59:37.323Z</time></trkpt><trkpt lat="45.8404261" lon="8.9100241"><ele>384.0</ele><time>2026-04-08T16:59:38.339Z</time></trkpt><trkpt lat="45.84036" lon="8.910117"><ele>384.0</ele><time>2026-04-08T16:59:39.306Z</time></trkpt><trkpt lat="45.8402972" lon="8.9101981"><ele>384.0</ele><time>2026-04-08T16:59:40.302Z</time></trkpt><trkpt lat="45.840232" lon="8.9102605"><ele>384.0</ele><time>2026-04-08T16:59:41.326Z</time></trkpt><trkpt lat="45.8401609" lon="8.9102982"><ele>384.0</ele><time>2026-04-08T16:59:42.336Z</time></trkpt><trkpt lat="45.840074" lon="8.9103214"><ele>383.2</ele><time>2026-04-08T16:59:43.304Z</time></trkpt><trkpt lat="45.839973" lon="8.9103294"><ele>382.4</ele><time>2026-04-08T16:59:44.3Z</time></trkpt><trkpt lat="45.8398706" lon="8.9103253"><ele>381.6</ele><time>2026-04-08T16:59:45.321Z</time></trkpt><trkpt lat="45.8397689" lon="8.9103059"><ele>380.8</ele><time>2026-04-08T16:59:46.33Z</time></trkpt><trkpt lat="45.8396658" lon="8.9102809"><ele>380.0</ele><time>2026-04-08T16:59:47.311Z</time></trkpt><trkpt lat="45.8395682" lon="8.9102553"><ele>380.0</ele><time>2026-04-08T16:59:48.312Z</time></trkpt><trkpt lat="45.839481" lon="8.9102319"><ele>380.0</ele><time>2026-04-08T16:59:49.319Z</time></trkpt><trkpt lat="45.8394017" lon="8.91021"><ele>380.0</ele><time>2026-04-08T16:59:50.309Z</time></trkpt><trkpt lat="45.8393317" lon="8.9101909"><ele>380.0</ele><time>2026-04-08T16:59:51.328Z</time></trkpt><trkpt lat="45.8392671" lon="8.9101746"><ele>380.0</ele><time>2026-04-08T16:59:52.309Z</time></trkpt><trkpt lat="45.8391495" lon="8.9101735"><ele>380.0</ele><time>2026-04-08T16:59:54.308Z</time></trkpt><trkpt lat="45.8390599" lon="8.9102208"><ele>379.8</ele><time>2026-04-08T16:59:56.311Z</time></trkpt><trkpt lat="45.83899" lon="8.9103096"><ele>379.6</ele><time>2026-04-08T16:59:58.307Z</time></trkpt><trkpt lat="45.838923" lon="8.9103453"><ele>379.4</ele><time>2026-04-08T17:00:01.305Z</time></trkpt><trkpt lat="45.8388377" lon="8.9103422"><ele>379.2</ele><time>2026-04-08T17:00:03.306Z</time></trkpt><trkpt lat="45.838726" lon="8.9102644"><ele>379.0</ele><time>2026-04-08T17:00:05.315Z</time></trkpt><trkpt lat="45.8386619" lon="8.9101984"><ele>379.0</ele><time>2026-04-08T17:00:06.309Z</time></trkpt><trkpt lat="45.8385945" lon="8.9101235"><ele>379.0</ele><time>2026-04-08T17:00:07.306Z</time></trkpt><trkpt lat="45.8385306" lon="8.910035"><ele>379.0</ele><time>2026-04-08T17:00:08.318Z</time></trkpt><trkpt lat="45.8384741" lon="8.9099326"><ele>379.0</ele><time>2026-04-08T17:00:09.31Z</time></trkpt><trkpt lat="45.8384313" lon="8.9098296"><ele>379.0</ele><time>2026-04-08T17:00:10.332Z</time></trkpt><trkpt lat="45.838386" lon="8.9097382"><ele>379.0</ele><time>2026-04-08T17:00:11.307Z</time></trkpt><trkpt lat="45.8383372" lon="8.9096545"><ele>378.79999999999995</ele><time>2026-04-08T17:00:12.33Z</time></trkpt><trkpt lat="45.8382261" lon="8.9096762"><ele>378.59999999999997</ele><time>2026-04-08T17:00:14.328Z</time></trkpt><trkpt lat="45.8381872" lon="8.9097877"><ele>378.4</ele><time>2026-04-08T17:00:15.312Z</time></trkpt><trkpt lat="45.8381462" lon="8.9098901"><ele>378.2</ele><time>2026-04-08T17:00:16.343Z</time></trkpt><trkpt lat="45.8381019" lon="8.9099579"><ele>378.0</ele><time>2026-04-08T17:00:17.328Z</time></trkpt><trkpt lat="45.8379829" lon="8.9099775"><ele>378.0</ele><time>2026-04-08T17:00:19.314Z</time></trkpt><trkpt lat="45.8379084" lon="8.9099586"><ele>378.0</ele><time>2026-04-08T17:00:20.316Z</time></trkpt><trkpt lat="45.8378302" lon="8.9099317"><ele>378.0</ele><time>2026-04-08T17:00:21.334Z</time></trkpt><trkpt lat="45.8377454" lon="8.9099089"><ele>378.0</ele><time>2026-04-08T17:00:22.331Z</time></trkpt><trkpt lat="45.8376596" lon="8.9098702"><ele>378.0</ele><time>2026-04-08T17:00:23.309Z</time></trkpt><trkpt lat="45.837581" lon="8.9098475"><ele>378.0</ele><time>2026-04-08T17:00:24.343Z</time></trkpt><trkpt lat="45.8374841" lon="8.9098382"><ele>377.4</ele><time>2026-04-08T17:00:25.344Z</time></trkpt><trkpt lat="45.8373769" lon="8.9098346"><ele>376.79999999999995</ele><time>2026-04-08T17:00:26.336Z</time></trkpt><trkpt lat="45.8372672" lon="8.9098364"><ele>376.2</ele><time>2026-04-08T17:00:27.329Z</time></trkpt><trkpt lat="45.8371593" lon="8.9098263"><ele>375.6</ele><time>2026-04-08T17:00:28.329Z</time></trkpt><trkpt lat="45.8370497" lon="8.9098103"><ele>375.0</ele><time>2026-04-08T17:00:29.348Z</time></trkpt><trkpt lat="45.8369401" lon="8.9097903"><ele>375.0</ele><time>2026-04-08T17:00:30.311Z</time></trkpt><trkpt lat="45.8368286" lon="8.90977"><ele>375.0</ele><time>2026-04-08T17:00:31.342Z</time></trkpt><trkpt lat="45.836718" lon="8.9097533"><ele>375.0</ele><time>2026-04-08T17:00:32.332Z</time></trkpt><trkpt lat="45.8366066" lon="8.9097354"><ele>375.0</ele><time>2026-04-08T17:00:33.342Z</time></trkpt><trkpt lat="45.8365018" lon="8.9097177"><ele>375.0</ele><time>2026-04-08T17:00:34.325Z</time></trkpt><trkpt lat="45.8364078" lon="8.9097007"><ele>375.1666666666667</ele><time>2026-04-08T17:00:35.329Z</time></trkpt><trkpt lat="45.8363219" lon="8.9096833"><ele>375.3333333333333</ele><time>2026-04-08T17:00:36.314Z</time></trkpt><trkpt lat="45.8362402" lon="8.9096614"><ele>375.5</ele><time>2026-04-08T17:00:37.317Z</time></trkpt><trkpt lat="45.8361646" lon="8.909629"><ele>375.66666666666663</ele><time>2026-04-08T17:00:38.332Z</time></trkpt><trkpt lat="45.8361017" lon="8.9095866"><ele>375.8333333333333</ele><time>2026-04-08T17:00:39.317Z</time></trkpt><trkpt lat="45.836017" lon="8.9095133"><ele>376.0</ele><time>2026-04-08T17:00:41.324Z</time></trkpt><trkpt lat="45.8359354" lon="8.9094295"><ele>375.6</ele><time>2026-04-08T17:00:46.3Z</time></trkpt><trkpt lat="45.8358162" lon="8.9093864"><ele>375.20000000000005</ele><time>2026-04-08T17:00:48.299Z</time></trkpt><trkpt lat="45.8357365" lon="8.9094088"><ele>374.79999999999995</ele><time>2026-04-08T17:00:49.297Z</time></trkpt><trkpt lat="45.8356358" lon="8.9094485"><ele>374.4</ele><time>2026-04-08T17:00:50.306Z</time></trkpt><trkpt lat="45.8355253" lon="8.9094996"><ele>374.0</ele><time>2026-04-08T17:00:51.316Z</time></trkpt><trkpt lat="45.8354104" lon="8.9094952"><ele>374.0</ele><time>2026-04-08T17:00:52.32Z</time></trkpt><trkpt lat="45.8352806" lon="8.9094866"><ele>374.0</ele><time>2026-04-08T17:00:53.305Z</time></trkpt><trkpt lat="45.8351649" lon="8.90947"><ele>374.0</ele><time>2026-04-08T17:00:54.319Z</time></trkpt><trkpt lat="45.8350539" lon="8.9094562"><ele>374.0</ele><time>2026-04-08T17:00:55.331Z</time></trkpt><trkpt lat="45.8349552" lon="8.9094417"><ele>374.2</ele><time>2026-04-08T17:00:56.303Z</time></trkpt><trkpt lat="45.8348586" lon="8.9094304"><ele>374.4</ele><time>2026-04-08T17:00:57.31Z</time></trkpt><trkpt lat="45.8347552" lon="8.9094136"><ele>374.6</ele><time>2026-04-08T17:00:58.321Z</time></trkpt><trkpt lat="45.8346473" lon="8.9093968"><ele>374.8</ele><time>2026-04-08T17:00:59.323Z</time></trkpt><trkpt lat="45.8345356" lon="8.9093737"><ele>375.0</ele><time>2026-04-08T17:01:00.305Z</time></trkpt><trkpt lat="45.8344243" lon="8.909354"><ele>375.0</ele><time>2026-04-08T17:01:01.308Z</time></trkpt><trkpt lat="45.8343163" lon="8.9093323"><ele>375.0</ele><time>2026-04-08T17:01:02.309Z</time></trkpt><trkpt lat="45.8342175" lon="8.9093155"><ele>375.0</ele><time>2026-04-08T17:01:03.306Z</time></trkpt><trkpt lat="45.8341287" lon="8.9092976"><ele>375.0</ele><time>2026-04-08T17:01:04.314Z</time></trkpt><trkpt lat="45.8340415" lon="8.909286"><ele>375.0</ele><time>2026-04-08T17:01:05.321Z</time></trkpt><trkpt lat="45.8339508" lon="8.909273"><ele>374.8</ele><time>2026-04-08T17:01:06.31Z</time></trkpt><trkpt lat="45.8338535" lon="8.9092558"><ele>374.6</ele><time>2026-04-08T17:01:07.317Z</time></trkpt><trkpt lat="45.833749" lon="8.9092363"><ele>374.4</ele><time>2026-04-08T17:01:08.321Z</time></trkpt><trkpt lat="45.8336384" lon="8.9092141"><ele>374.2</ele><time>2026-04-08T17:01:09.325Z</time></trkpt><trkpt lat="45.8335226" lon="8.9091933"><ele>374.0</ele><time>2026-04-08T17:01:10.335Z</time></trkpt><trkpt lat="45.8334018" lon="8.9091692"><ele>373.5</ele><time>2026-04-08T17:01:11.331Z</time></trkpt><trkpt lat="45.8332746" lon="8.9091494"><ele>373.0</ele><time>2026-04-08T17:01:12.318Z</time></trkpt><trkpt lat="45.8331521" lon="8.9091313"><ele>372.5</ele><time>2026-04-08T17:01:13.318Z</time></trkpt><trkpt lat="45.833023" lon="8.9091141"><ele>372.0</ele><time>2026-04-08T17:01:14.322Z</time></trkpt><trkpt lat="45.8328941" lon="8.9090922"><ele>372.0</ele><time>2026-04-08T17:01:15.32Z</time></trkpt><trkpt lat="45.832767" lon="8.90907"><ele>372.0</ele><time>2026-04-08T17:01:16.318Z</time></trkpt><trkpt lat="45.8326407" lon="8.9090444"><ele>372.0</ele><time>2026-04-08T17:01:17.309Z</time></trkpt><trkpt lat="45.8325211" lon="8.909024"><ele>372.0</ele><time>2026-04-08T17:01:18.311Z</time></trkpt><trkpt lat="45.8324132" lon="8.9090079"><ele>372.0</ele><time>2026-04-08T17:01:19.336Z</time></trkpt><trkpt lat="45.8323161" lon="8.909006"><ele>372.0</ele><time>2026-04-08T17:01:20.317Z</time></trkpt><trkpt lat="45.8322203" lon="8.9090287"><ele>372.0</ele><time>2026-04-08T17:01:21.325Z</time></trkpt><trkpt lat="45.8321185" lon="8.9090465"><ele>372.0</ele><time>2026-04-08T17:01:22.331Z</time></trkpt><trkpt lat="45.8320139" lon="8.9090616"><ele>372.0</ele><time>2026-04-08T17:01:23.321Z</time></trkpt><trkpt lat="45.8318996" lon="8.9090294"><ele>374.6666666666667</ele><time>2026-04-08T17:01:24.312Z</time></trkpt><trkpt lat="45.8317813" lon="8.9089469"><ele>377.33333333333337</ele><time>2026-04-08T17:01:25.31Z</time></trkpt><trkpt lat="45.8316365" lon="8.9088537"><ele>380.0</ele><time>2026-04-08T17:01:26.309Z</time></trkpt><trkpt lat="45.831489" lon="8.9087407"><ele>380.0</ele><time>2026-04-08T17:01:27.317Z</time></trkpt><trkpt lat="45.8313158" lon="8.9086278"><ele>380.0</ele><time>2026-04-08T17:01:28.313Z</time></trkpt><trkpt lat="45.8311152" lon="8.9085215"><ele>380.0</ele><time>2026-04-08T17:01:29.317Z</time></trkpt><trkpt lat="45.8309109" lon="8.9084081"><ele>382.5</ele><time>2026-04-08T17:01:30.307Z</time></trkpt><trkpt lat="45.8306996" lon="8.9082889"><ele>385.0</ele><time>2026-04-08T17:01:31.315Z</time></trkpt><trkpt lat="45.8304833" lon="8.9081656"><ele>385.0</ele><time>2026-04-08T17:01:32.32Z</time></trkpt><trkpt lat="45.8302733" lon="8.9080468"><ele>385.0</ele><time>2026-04-08T17:01:33.308Z</time></trkpt><trkpt lat="45.8300676" lon="8.9079403"><ele>385.0</ele><time>2026-04-08T17:01:34.308Z</time></trkpt><trkpt lat="45.8298675" lon="8.9078505"><ele>385.6666666666667</ele><time>2026-04-08T17:01:35.31Z</time></trkpt><trkpt lat="45.8296683" lon="8.9077626"><ele>386.33333333333337</ele><time>2026-04-08T17:01:36.305Z</time></trkpt><trkpt lat="45.8294752" lon="8.9076876"><ele>387.0</ele><time>2026-04-08T17:01:37.31Z</time></trkpt><trkpt lat="45.8292884" lon="8.9076188"><ele>387.0</ele><time>2026-04-08T17:01:38.309Z</time></trkpt><trkpt lat="45.8291278" lon="8.9075882"><ele>387.0</ele><time>2026-04-08T17:01:39.307Z</time></trkpt><trkpt lat="45.828969" lon="8.9075553"><ele>387.0</ele><time>2026-04-08T17:01:40.31Z</time></trkpt><trkpt lat="45.8288134" lon="8.9075246"><ele>384.0</ele><time>2026-04-08T17:01:41.31Z</time></trkpt><trkpt lat="45.8286523" lon="8.9074923"><ele>381.0</ele><time>2026-04-08T17:01:42.319Z</time></trkpt><trkpt lat="45.8284918" lon="8.9074483"><ele>378.0</ele><time>2026-04-08T17:01:43.321Z</time></trkpt><trkpt lat="45.8283251" lon="8.9074091"><ele>376.0</ele><time>2026-04-08T17:01:44.31Z</time></trkpt><trkpt lat="45.8281519" lon="8.9073693"><ele>374.0</ele><time>2026-04-08T17:01:45.31Z</time></trkpt><trkpt lat="45.8279761" lon="8.9073269"><ele>372.0</ele><time>2026-04-08T17:01:46.328Z</time></trkpt><trkpt lat="45.8278058" lon="8.907284"><ele>371.0</ele><time>2026-04-08T17:01:47.306Z</time></trkpt><trkpt lat="45.8276415" lon="8.9072423"><ele>370.0</ele><time>2026-04-08T17:01:48.31Z</time></trkpt><trkpt lat="45.8274834" lon="8.9071992"><ele>369.0</ele><time>2026-04-08T17:01:49.298Z</time></trkpt><trkpt lat="45.827332" lon="8.9071899"><ele>369.0</ele><time>2026-04-08T17:01:50.305Z</time></trkpt><trkpt lat="45.827185" lon="8.9072458"><ele>369.0</ele><time>2026-04-08T17:01:51.311Z</time></trkpt><trkpt lat="45.8270359" lon="8.9073041"><ele>369.0</ele><time>2026-04-08T17:01:52.313Z</time></trkpt><trkpt lat="45.8269086" lon="8.9074039"><ele>368.5</ele><time>2026-04-08T17:01:53.298Z</time></trkpt><trkpt lat="45.8268003" lon="8.9075649"><ele>368.0</ele><time>2026-04-08T17:01:54.307Z</time></trkpt><trkpt lat="45.8266982" lon="8.9077131"><ele>367.5</ele><time>2026-04-08T17:01:55.306Z</time></trkpt><trkpt lat="45.8266434" lon="8.9079084"><ele>367.0</ele><time>2026-04-08T17:01:56.296Z</time></trkpt><trkpt lat="45.8265973" lon="8.9081176"><ele>367.0</ele><time>2026-04-08T17:01:57.299Z</time></trkpt><trkpt lat="45.8265445" lon="8.9083224"><ele>367.0</ele><time>2026-04-08T17:01:58.308Z</time></trkpt><trkpt lat="45.8264767" lon="8.9085233"><ele>367.0</ele><time>2026-04-08T17:01:59.311Z</time></trkpt><trkpt lat="45.8263899" lon="8.9087034"><ele>370.5</ele><time>2026-04-08T17:02:00.303Z</time></trkpt><trkpt lat="45.8262917" lon="8.9088653"><ele>374.0</ele><time>2026-04-08T17:02:01.308Z</time></trkpt><trkpt lat="45.8261986" lon="8.9090012"><ele>377.5</ele><time>2026-04-08T17:02:02.316Z</time></trkpt><trkpt lat="45.8261195" lon="8.9091092"><ele>381.0</ele><time>2026-04-08T17:02:03.305Z</time></trkpt><trkpt lat="45.8260518" lon="8.9092009"><ele>381.6</ele><time>2026-04-08T17:02:04.303Z</time></trkpt><trkpt lat="45.8259623" lon="8.9092943"><ele>382.20000000000005</ele><time>2026-04-08T17:02:06.319Z</time></trkpt><trkpt lat="45.8258927" lon="8.9092306"><ele>382.79999999999995</ele><time>2026-04-08T17:03:01.307Z</time></trkpt><trkpt lat="45.8259092" lon="8.9090309"><ele>383.4</ele><time>2026-04-08T17:03:04.31Z</time></trkpt><trkpt lat="45.8259029" lon="8.9088703"><ele>384.0</ele><time>2026-04-08T17:03:21.314Z</time></trkpt><trkpt lat="45.8259104" lon="8.908964"><ele>384.0</ele><time>2026-04-08T17:03:58.314Z</time></trkpt><trkpt lat="45.8259175" lon="8.9090546"><ele>384.0</ele><time>2026-04-08T17:04:04.32Z</time></trkpt><trkpt lat="45.8259293" lon="8.9091579"><ele>384.0</ele><time>2026-04-08T17:04:06.305Z</time></trkpt><trkpt lat="45.8259424" lon="8.9092523"><ele>384.0</ele><time>2026-04-08T17:04:08.308Z</time></trkpt><trkpt lat="45.8259326" lon="8.9093568"><ele>384.0</ele><time>2026-04-08T17:04:10.313Z</time></trkpt><trkpt lat="45.8258605" lon="8.9095062"><ele>384.0</ele><time>2026-04-08T17:04:12.305Z</time></trkpt><trkpt lat="45.8257837" lon="8.9095956"><ele>384.0</ele><time>2026-04-08T17:04:13.309Z</time></trkpt><trkpt lat="45.8256771" lon="8.9096961"><ele>384.0</ele><time>2026-04-08T17:04:14.297Z</time></trkpt><trkpt lat="45.8255619" lon="8.909769"><ele>384.0</ele><time>2026-04-08T17:04:15.329Z</time></trkpt><trkpt lat="45.8254398" lon="8.9098181"><ele>384.0</ele><time>2026-04-08T17:04:16.309Z</time></trkpt><trkpt lat="45.8253125" lon="8.909852"><ele>384.0</ele><time>2026-04-08T17:04:17.304Z</time></trkpt><trkpt lat="45.8251863" lon="8.9098838"><ele>384.0</ele><time>2026-04-08T17:04:18.309Z</time></trkpt><trkpt lat="45.825055" lon="8.9099271"><ele>384.0</ele><time>2026-04-08T17:04:19.309Z</time></trkpt><trkpt lat="45.8249184" lon="8.9099949"><ele>384.0</ele><time>2026-04-08T17:04:20.305Z</time></trkpt><trkpt lat="45.8247775" lon="8.9101012"><ele>390.0</ele><time>2026-04-08T17:04:21.307Z</time></trkpt><trkpt lat="45.8246322" lon="8.9102129"><ele>396.0</ele><time>2026-04-08T17:04:22.303Z</time></trkpt><trkpt lat="45.824478" lon="8.910301"><ele>402.0</ele><time>2026-04-08T17:04:23.305Z</time></trkpt><trkpt lat="45.8243132" lon="8.9103765"><ele>397.66666666666663</ele><time>2026-04-08T17:04:24.302Z</time></trkpt><trkpt lat="45.8241573" lon="8.9104176"><ele>393.3333333333333</ele><time>2026-04-08T17:04:25.303Z</time></trkpt><trkpt lat="45.8240063" lon="8.910465"><ele>389.0</ele><time>2026-04-08T17:04:26.326Z</time></trkpt><trkpt lat="45.8238623" lon="8.9105279"><ele>389.0</ele><time>2026-04-08T17:04:27.333Z</time></trkpt><trkpt lat="45.8237152" lon="8.9105992"><ele>389.0</ele><time>2026-04-08T17:04:28.306Z</time></trkpt><trkpt lat="45.8235701" lon="8.9106662"><ele>389.0</ele><time>2026-04-08T17:04:29.313Z</time></trkpt><trkpt lat="45.8234292" lon="8.9107285"><ele>389.25</ele><time>2026-04-08T17:04:30.312Z</time></trkpt><trkpt lat="45.8232902" lon="8.9108053"><ele>389.5</ele><time>2026-04-08T17:04:31.323Z</time></trkpt><trkpt lat="45.823163" lon="8.9108654"><ele>389.75</ele><time>2026-04-08T17:04:32.307Z</time></trkpt><trkpt lat="45.8230427" lon="8.9109279"><ele>390.0</ele><time>2026-04-08T17:04:33.333Z</time></trkpt><trkpt lat="45.8229227" lon="8.9109909"><ele>390.0</ele><time>2026-04-08T17:04:34.308Z</time></trkpt><trkpt lat="45.8228018" lon="8.9110424"><ele>390.0</ele><time>2026-04-08T17:04:35.313Z</time></trkpt><trkpt lat="45.8226796" lon="8.9111052"><ele>390.0</ele><time>2026-04-08T17:04:36.313Z</time></trkpt><trkpt lat="45.8225524" lon="8.9111738"><ele>390.0</ele><time>2026-04-08T17:04:37.331Z</time></trkpt><trkpt lat="45.8224227" lon="8.9112489"><ele>390.25</ele><time>2026-04-08T17:04:38.313Z</time></trkpt><trkpt lat="45.8222964" lon="8.9113151"><ele>390.5</ele><time>2026-04-08T17:04:39.34Z</time></trkpt><trkpt lat="45.8221677" lon="8.9113688"><ele>390.75</ele><time>2026-04-08T17:04:40.337Z</time></trkpt><trkpt lat="45.8220258" lon="8.9113924"><ele>391.0</ele><time>2026-04-08T17:04:41.311Z</time></trkpt><trkpt lat="45.8218809" lon="8.9113949"><ele>389.75</ele><time>2026-04-08T17:04:42.307Z</time></trkpt><trkpt lat="45.821746" lon="8.9113943"><ele>388.5</ele><time>2026-04-08T17:04:43.312Z</time></trkpt><trkpt lat="45.8216275" lon="8.9114188"><ele>387.25</ele><time>2026-04-08T17:04:44.332Z</time></trkpt><trkpt lat="45.8215285" lon="8.9114802"><ele>386.0</ele><time>2026-04-08T17:04:45.341Z</time></trkpt><trkpt lat="45.8214481" lon="8.9115822"><ele>386.0</ele><time>2026-04-08T17:04:46.342Z</time></trkpt><trkpt lat="45.8213939" lon="8.9117141"><ele>386.0</ele><time>2026-04-08T17:04:47.323Z</time></trkpt><trkpt lat="45.8213724" lon="8.9118664"><ele>386.0</ele><time>2026-04-08T17:04:48.339Z</time></trkpt><trkpt lat="45.8213798" lon="8.9120214"><ele>386.0</ele><time>2026-04-08T17:04:49.32Z</time></trkpt><trkpt lat="45.8214048" lon="8.9121782"><ele>386.0</ele><time>2026-04-08T17:04:50.309Z</time></trkpt><trkpt lat="45.8214384" lon="8.9123339"><ele>387.75</ele><time>2026-04-08T17:04:51.317Z</time></trkpt><trkpt lat="45.8214805" lon="8.9124841"><ele>389.5</ele><time>2026-04-08T17:04:52.324Z</time></trkpt><trkpt lat="45.8215399" lon="8.9126217"><ele>391.25</ele><time>2026-04-08T17:04:53.307Z</time></trkpt><trkpt lat="45.8216128" lon="8.9127471"><ele>393.0</ele><time>2026-04-08T17:04:54.317Z</time></trkpt><trkpt lat="45.8216867" lon="8.91287"><ele>393.2</ele><time>2026-04-08T17:04:55.323Z</time></trkpt><trkpt lat="45.8217571" lon="8.9129983"><ele>393.4</ele><time>2026-04-08T17:04:56.342Z</time></trkpt><trkpt lat="45.8218137" lon="8.9131392"><ele>393.59999999999997</ele><time>2026-04-08T17:04:57.325Z</time></trkpt><trkpt lat="45.8218562" lon="8.9132864"><ele>393.79999999999995</ele><time>2026-04-08T17:04:58.341Z</time></trkpt><trkpt lat="45.8218863" lon="8.9134232"><ele>394.0</ele><time>2026-04-08T17:04:59.326Z</time></trkpt><trkpt lat="45.8219093" lon="8.9135517"><ele>394.0</ele><time>2026-04-08T17:05:00.304Z</time></trkpt><trkpt lat="45.8219225" lon="8.9136866"><ele>394.0</ele><time>2026-04-08T17:05:01.323Z</time></trkpt><trkpt lat="45.8219397" lon="8.9138383"><ele>394.0</ele><time>2026-04-08T17:05:02.321Z</time></trkpt><trkpt lat="45.8219808" lon="8.9139967"><ele>394.0</ele><time>2026-04-08T17:05:03.314Z</time></trkpt><trkpt lat="45.8220248" lon="8.9141715"><ele>394.0</ele><time>2026-04-08T17:05:04.296Z</time></trkpt><trkpt lat="45.8220914" lon="8.9143519"><ele>394.0</ele><time>2026-04-08T17:05:05.311Z</time></trkpt><trkpt lat="45.822147" lon="8.9145464"><ele>394.0</ele><time>2026-04-08T17:05:06.301Z</time></trkpt><trkpt lat="45.8222015" lon="8.9147508"><ele>394.0</ele><time>2026-04-08T17:05:07.296Z</time></trkpt><trkpt lat="45.8222478" lon="8.9149528"><ele>394.0</ele><time>2026-04-08T17:05:08.334Z</time></trkpt><trkpt lat="45.8222945" lon="8.9151379"><ele>393.25</ele><time>2026-04-08T17:05:09.314Z</time></trkpt><trkpt lat="45.8223405" lon="8.9153184"><ele>392.5</ele><time>2026-04-08T17:05:10.312Z</time></trkpt><trkpt lat="45.8223911" lon="8.9154957"><ele>391.75</ele><time>2026-04-08T17:05:11.333Z</time></trkpt><trkpt lat="45.8224402" lon="8.9156778"><ele>391.0</ele><time>2026-04-08T17:05:12.313Z</time></trkpt><trkpt lat="45.8224911" lon="8.9158614"><ele>388.5</ele><time>2026-04-08T17:05:13.309Z</time></trkpt><trkpt lat="45.8225394" lon="8.9160515"><ele>386.0</ele><time>2026-04-08T17:05:14.311Z</time></trkpt><trkpt lat="45.8225741" lon="8.9162528"><ele>383.5</ele><time>2026-04-08T17:05:15.336Z</time></trkpt><trkpt lat="45.8225949" lon="8.9164616"><ele>381.0</ele><time>2026-04-08T17:05:16.31Z</time></trkpt><trkpt lat="45.822611" lon="8.9166739"><ele>379.5</ele><time>2026-04-08T17:05:17.322Z</time></trkpt><trkpt lat="45.8226315" lon="8.9168828"><ele>378.0</ele><time>2026-04-08T17:05:18.325Z</time></trkpt><trkpt lat="45.822656" lon="8.9170805"><ele>376.5</ele><time>2026-04-08T17:05:19.319Z</time></trkpt><trkpt lat="45.8226921" lon="8.9172828"><ele>375.0</ele><time>2026-04-08T17:05:20.316Z</time></trkpt><trkpt lat="45.8227278" lon="8.9174931"><ele>379.5</ele><time>2026-04-08T17:05:21.3Z</time></trkpt><trkpt lat="45.8227655" lon="8.9177006"><ele>384.0</ele><time>2026-04-08T17:05:22.304Z</time></trkpt><trkpt lat="45.8228014" lon="8.9179059"><ele>388.5</ele><time>2026-04-08T17:05:23.307Z</time></trkpt><trkpt lat="45.8228375" lon="8.9181029"><ele>393.0</ele><time>2026-04-08T17:05:24.309Z</time></trkpt><trkpt lat="45.8228688" lon="8.918292"><ele>392.75</ele><time>2026-04-08T17:05:25.306Z</time></trkpt><trkpt lat="45.8228951" lon="8.9184774"><ele>392.5</ele><time>2026-04-08T17:05:26.301Z</time></trkpt><trkpt lat="45.8229095" lon="8.91866"><ele>392.25</ele><time>2026-04-08T17:05:27.311Z</time></trkpt><trkpt lat="45.8229033" lon="8.9188386"><ele>392.0</ele><time>2026-04-08T17:05:28.311Z</time></trkpt><trkpt lat="45.8228712" lon="8.9190108"><ele>392.0</ele><time>2026-04-08T17:05:29.306Z</time></trkpt><trkpt lat="45.8228103" lon="8.9191699"><ele>392.0</ele><time>2026-04-08T17:05:30.306Z</time></trkpt><trkpt lat="45.8227226" lon="8.9193077"><ele>392.0</ele><time>2026-04-08T17:05:31.316Z</time></trkpt><trkpt lat="45.8226222" lon="8.9194325"><ele>392.0</ele><time>2026-04-08T17:05:32.301Z</time></trkpt><trkpt lat="45.8225137" lon="8.9195582"><ele>389.75</ele><time>2026-04-08T17:05:33.304Z</time></trkpt><trkpt lat="45.822404" lon="8.9196903"><ele>387.5</ele><time>2026-04-08T17:05:34.31Z</time></trkpt><trkpt lat="45.8222899" lon="8.9198239"><ele>385.25</ele><time>2026-04-08T17:05:35.323Z</time></trkpt><trkpt lat="45.8221729" lon="8.9199598"><ele>383.0</ele><time>2026-04-08T17:05:36.321Z</time></trkpt><trkpt lat="45.8220543" lon="8.9200989"><ele>383.0</ele><time>2026-04-08T17:05:37.312Z</time></trkpt><trkpt lat="45.8219351" lon="8.9202411"><ele>383.0</ele><time>2026-04-08T17:05:38.3Z</time></trkpt><trkpt lat="45.82182" lon="8.9203748"><ele>383.0</ele><time>2026-04-08T17:05:39.304Z</time></trkpt><trkpt lat="45.8217177" lon="8.9205048"><ele>383.0</ele><time>2026-04-08T17:05:40.309Z</time></trkpt><trkpt lat="45.8216354" lon="8.9206513"><ele>377.75</ele><time>2026-04-08T17:05:41.308Z</time></trkpt><trkpt lat="45.8215804" lon="8.9208232"><ele>372.5</ele><time>2026-04-08T17:05:42.304Z</time></trkpt><trkpt lat="45.8215574" lon="8.9210186"><ele>367.25</ele><time>2026-04-08T17:05:43.318Z</time></trkpt><trkpt lat="45.8215606" lon="8.9212329"><ele>362.0</ele><time>2026-04-08T17:05:44.311Z</time></trkpt><trkpt lat="45.8215821" lon="8.9214556"><ele>362.0</ele><time>2026-04-08T17:05:45.306Z</time></trkpt><trkpt lat="45.8216079" lon="8.9216825"><ele>362.0</ele><time>2026-04-08T17:05:46.329Z</time></trkpt><trkpt lat="45.821636" lon="8.9219117"><ele>362.0</ele><time>2026-04-08T17:05:47.303Z</time></trkpt><trkpt lat="45.8216674" lon="8.9221414"><ele>361.6666666666667</ele><time>2026-04-08T17:05:48.328Z</time></trkpt><trkpt lat="45.8216996" lon="8.9223731"><ele>361.3333333333333</ele><time>2026-04-08T17:05:49.323Z</time></trkpt><trkpt lat="45.8217315" lon="8.9226039"><ele>361.0</ele><time>2026-04-08T17:05:50.32Z</time></trkpt><trkpt lat="45.8217631" lon="8.9228223"><ele>360.0</ele><time>2026-04-08T17:05:51.308Z</time></trkpt><trkpt lat="45.8217982" lon="8.9230353"><ele>359.0</ele><time>2026-04-08T17:05:52.309Z</time></trkpt><trkpt lat="45.8218333" lon="8.9232493"><ele>358.0</ele><time>2026-04-08T17:05:53.306Z</time></trkpt><trkpt lat="45.8218598" lon="8.9234698"><ele>360.3333333333333</ele><time>2026-04-08T17:05:54.309Z</time></trkpt><trkpt lat="45.8218707" lon="8.9236918"><ele>362.6666666666667</ele><time>2026-04-08T17:05:55.309Z</time></trkpt><trkpt lat="45.8218622" lon="8.9239123"><ele>365.0</ele><time>2026-04-08T17:05:56.307Z</time></trkpt><trkpt lat="45.8218318" lon="8.9241283"><ele>362.0</ele><time>2026-04-08T17:05:57.315Z</time></trkpt><trkpt lat="45.8217883" lon="8.9243404"><ele>359.0</ele><time>2026-04-08T17:05:58.339Z</time></trkpt><trkpt lat="45.8217394" lon="8.9245509"><ele>356.0</ele><time>2026-04-08T17:05:59.31Z</time></trkpt><trkpt lat="45.8216879" lon="8.9247619"><ele>356.0</ele><time>2026-04-08T17:06:00.313Z</time></trkpt><trkpt lat="45.8216356" lon="8.9249671"><ele>356.0</ele><time>2026-04-08T17:06:01.314Z</time></trkpt><trkpt lat="45.821587" lon="8.925177"><ele>356.0</ele><time>2026-04-08T17:06:02.336Z</time></trkpt><trkpt lat="45.8215428" lon="8.9253846"><ele>355.0</ele><time>2026-04-08T17:06:03.305Z</time></trkpt><trkpt lat="45.821504" lon="8.9255846"><ele>354.0</ele><time>2026-04-08T17:06:04.309Z</time></trkpt><trkpt lat="45.8214723" lon="8.9257828"><ele>353.0</ele><time>2026-04-08T17:06:05.314Z</time></trkpt><trkpt lat="45.8214894" lon="8.9259712"><ele>352.0</ele><time>2026-04-08T17:06:06.297Z</time></trkpt><trkpt lat="45.8215383" lon="8.9261629"><ele>350.5</ele><time>2026-04-08T17:06:07.297Z</time></trkpt><trkpt lat="45.8216164" lon="8.9263453"><ele>349.0</ele><time>2026-04-08T17:06:08.311Z</time></trkpt><trkpt lat="45.8217047" lon="8.9265014"><ele>347.5</ele><time>2026-04-08T17:06:09.302Z</time></trkpt><trkpt lat="45.8217923" lon="8.9266478"><ele>346.0</ele><time>2026-04-08T17:06:10.314Z</time></trkpt><trkpt lat="45.8218806" lon="8.9267812"><ele>345.0</ele><time>2026-04-08T17:06:11.305Z</time></trkpt><trkpt lat="45.8219685" lon="8.9269056"><ele>344.0</ele><time>2026-04-08T17:06:12.298Z</time></trkpt><trkpt lat="45.8220534" lon="8.927024"><ele>343.0</ele><time>2026-04-08T17:06:13.297Z</time></trkpt><trkpt lat="45.8221362" lon="8.9271341"><ele>342.0</ele><time>2026-04-08T17:06:14.297Z</time></trkpt><trkpt lat="45.8222072" lon="8.9272308"><ele>342.0</ele><time>2026-04-08T17:06:15.309Z</time></trkpt><trkpt lat="45.8222706" lon="8.9273171"><ele>342.0</ele><time>2026-04-08T17:06:16.314Z</time></trkpt><trkpt lat="45.8223227" lon="8.927407"><ele>342.0</ele><time>2026-04-08T17:06:17.316Z</time></trkpt><trkpt lat="45.8223635" lon="8.9275097"><ele>342.0</ele><time>2026-04-08T17:06:18.313Z</time></trkpt><trkpt lat="45.8223917" lon="8.9276372"><ele>342.0</ele><time>2026-04-08T17:06:19.319Z</time></trkpt><trkpt lat="45.822396" lon="8.9277838"><ele>342.0</ele><time>2026-04-08T17:06:20.296Z</time></trkpt><trkpt lat="45.8223765" lon="8.9279313"><ele>341.5</ele><time>2026-04-08T17:06:21.308Z</time></trkpt><trkpt lat="45.8223282" lon="8.928067"><ele>341.0</ele><time>2026-04-08T17:06:22.303Z</time></trkpt><trkpt lat="45.82228" lon="8.9282026"><ele>340.5</ele><time>2026-04-08T17:06:23.313Z</time></trkpt><trkpt lat="45.8221861" lon="8.9283298"><ele>340.0</ele><time>2026-04-08T17:06:24.305Z</time></trkpt><trkpt lat="45.8220567" lon="8.9284451"><ele>340.0</ele><time>2026-04-08T17:06:25.306Z</time></trkpt><trkpt lat="45.8219199" lon="8.9285735"><ele>340.0</ele><time>2026-04-08T17:06:26.331Z</time></trkpt><trkpt lat="45.8217833" lon="8.9287062"><ele>340.0</ele><time>2026-04-08T17:06:27.298Z</time></trkpt><trkpt lat="45.821646" lon="8.9288258"><ele>339.5</ele><time>2026-04-08T17:06:28.307Z</time></trkpt><trkpt lat="45.8215151" lon="8.9289362"><ele>339.0</ele><time>2026-04-08T17:06:29.305Z</time></trkpt><trkpt lat="45.8214024" lon="8.9290493"><ele>338.5</ele><time>2026-04-08T17:06:30.307Z</time></trkpt><trkpt lat="45.8213186" lon="8.9291809"><ele>338.0</ele><time>2026-04-08T17:06:31.294Z</time></trkpt><trkpt lat="45.8212636" lon="8.929339"><ele>338.0</ele><time>2026-04-08T17:06:32.301Z</time></trkpt><trkpt lat="45.8212289" lon="8.9295234"><ele>338.0</ele><time>2026-04-08T17:06:33.31Z</time></trkpt><trkpt lat="45.8212147" lon="8.929719"><ele>338.0</ele><time>2026-04-08T17:06:34.306Z</time></trkpt><trkpt lat="45.8212006" lon="8.929923"><ele>338.0</ele><time>2026-04-08T17:06:35.309Z</time></trkpt><trkpt lat="45.8211849" lon="8.9301272"><ele>338.25</ele><time>2026-04-08T17:06:36.333Z</time></trkpt><trkpt lat="45.8211693" lon="8.9303318"><ele>338.5</ele><time>2026-04-08T17:06:37.313Z</time></trkpt><trkpt lat="45.8211581" lon="8.9305344"><ele>338.75</ele><time>2026-04-08T17:06:38.329Z</time></trkpt><trkpt lat="45.8211439" lon="8.9307311"><ele>339.0</ele><time>2026-04-08T17:06:39.298Z</time></trkpt><trkpt lat="45.8211327" lon="8.9309068"><ele>339.6</ele><time>2026-04-08T17:06:40.326Z</time></trkpt><trkpt lat="45.8211243" lon="8.931067"><ele>340.2</ele><time>2026-04-08T17:06:41.3Z</time></trkpt><trkpt lat="45.8211218" lon="8.9312169"><ele>340.8</ele><time>2026-04-08T17:06:42.316Z</time></trkpt><trkpt lat="45.821125" lon="8.9313482"><ele>341.40000000000003</ele><time>2026-04-08T17:06:43.311Z</time></trkpt><trkpt lat="45.8211228" lon="8.931467"><ele>342.0</ele><time>2026-04-08T17:06:44.317Z</time></trkpt><trkpt lat="45.8211088" lon="8.9315588"><ele>342.0</ele><time>2026-04-08T17:06:45.307Z</time></trkpt><trkpt lat="45.8210893" lon="8.9316575"><ele>342.0</ele><time>2026-04-08T17:06:46.303Z</time></trkpt><trkpt lat="45.8210611" lon="8.9317584"><ele>342.0</ele><time>2026-04-08T17:06:47.305Z</time></trkpt><trkpt lat="45.8210193" lon="8.9318615"><ele>342.0</ele><time>2026-04-08T17:06:48.31Z</time></trkpt><trkpt lat="45.8209964" lon="8.9319965"><ele>342.0</ele><time>2026-04-08T17:06:49.3Z</time></trkpt><trkpt lat="45.8209645" lon="8.9321257"><ele>342.0</ele><time>2026-04-08T17:06:50.311Z</time></trkpt><trkpt lat="45.8209335" lon="8.9322595"><ele>345.0</ele><time>2026-04-08T17:06:51.308Z</time></trkpt><trkpt lat="45.8209002" lon="8.9323856"><ele>348.0</ele><time>2026-04-08T17:06:52.306Z</time></trkpt><trkpt lat="45.8208695" lon="8.9325103"><ele>351.0</ele><time>2026-04-08T17:06:53.312Z</time></trkpt><trkpt lat="45.8208332" lon="8.9326288"><ele>354.0</ele><time>2026-04-08T17:06:54.297Z</time></trkpt><trkpt lat="45.8207989" lon="8.9327449"><ele>357.0</ele><time>2026-04-08T17:06:55.322Z</time></trkpt><trkpt lat="45.820766" lon="8.9328531"><ele>360.0</ele><time>2026-04-08T17:06:56.31Z</time></trkpt><trkpt lat="45.8207395" lon="8.9329378"><ele>362.5</ele><time>2026-04-08T17:06:57.307Z</time></trkpt><trkpt lat="45.8207096" lon="8.9330208"><ele>365.0</ele><time>2026-04-08T17:06:58.307Z</time></trkpt><trkpt lat="45.8206716" lon="8.9330937"><ele>367.5</ele><time>2026-04-08T17:06:59.303Z</time></trkpt><trkpt lat="45.8206299" lon="8.9331707"><ele>370.0</ele><time>2026-04-08T17:07:00.333Z</time></trkpt><trkpt lat="45.8205625" lon="8.9332985"><ele>372.5</ele><time>2026-04-08T17:07:02.303Z</time></trkpt><trkpt lat="45.820499" lon="8.933388"><ele>375.0</ele><time>2026-04-08T17:07:04.312Z</time></trkpt><trkpt lat="45.8204096" lon="8.9334332"><ele>375.0</ele><time>2026-04-08T17:07:06.31Z</time></trkpt><trkpt lat="45.8203062" lon="8.9334043"><ele>375.0</ele><time>2026-04-08T17:07:08.305Z</time></trkpt><trkpt lat="45.8202144" lon="8.9333763"><ele>375.0</ele><time>2026-04-08T17:07:10.298Z</time></trkpt><trkpt lat="45.8202257" lon="8.9335032"><ele>375.0</ele><time>2026-04-08T17:07:35.297Z</time></trkpt><trkpt lat="45.8202579" lon="8.9336505"><ele>375.0</ele><time>2026-04-08T17:07:37.336Z</time></trkpt><trkpt lat="45.8202345" lon="8.9337449"><ele>377.4</ele><time>2026-04-08T17:07:39.334Z</time></trkpt><trkpt lat="45.8201577" lon="8.9337773"><ele>379.8</ele><time>2026-04-08T17:07:42.319Z</time></trkpt><trkpt lat="45.8201195" lon="8.9336838"><ele>382.20000000000005</ele><time>2026-04-08T17:08:04.315Z</time></trkpt><trkpt lat="45.8200035" lon="8.9337562"><ele>384.6</ele><time>2026-04-08T17:11:53.335Z</time></trkpt><trkpt lat="45.8200372" lon="8.9336067"><ele>387.0</ele><time>2026-04-08T17:11:56.368Z</time></trkpt><trkpt lat="45.8200902" lon="8.9338901"><ele>388.3333333333333</ele><time>2026-04-08T17:11:58.297Z</time></trkpt><trkpt lat="45.8201126" lon="8.9340713"><ele>389.66666666666663</ele><time>2026-04-08T17:11:59.283Z</time></trkpt><trkpt lat="45.8201338" lon="8.9341729"><ele>391.0</ele><time>2026-04-08T17:12:00.301Z</time></trkpt><trkpt lat="45.8201552" lon="8.9343112"><ele>392.3333333333333</ele><time>2026-04-08T17:12:02.349Z</time></trkpt><trkpt lat="45.8201552" lon="8.9344072"><ele>393.66666666666663</ele><time>2026-04-08T17:12:04.306Z</time></trkpt><trkpt lat="45.8201376" lon="8.934507"><ele>395.0</ele><time>2026-04-08T17:12:07.388Z</time></trkpt><trkpt lat="45.8201438" lon="8.934635"><ele>394.99999999999994</ele><time>2026-04-08T17:12:10.323Z</time></trkpt><trkpt lat="45.8201529" lon="8.9347244"><ele>395.0</ele><time>2026-04-08T17:12:12.308Z</time></trkpt><trkpt lat="45.8201731" lon="8.9348326"><ele>395.0</ele><time>2026-04-08T17:12:14.403Z</time></trkpt><trkpt lat="45.8201833" lon="8.9349262"><ele>395.0</ele><time>2026-04-08T17:12:16.369Z</time></trkpt><trkpt lat="45.8201952" lon="8.9350329"><ele>394.99999999999994</ele><time>2026-04-08T17:12:18.33Z</time></trkpt><trkpt lat="45.8202021" lon="8.9351495"><ele>395.0</ele><time>2026-04-08T17:12:20.331Z</time></trkpt><trkpt lat="45.8202456" lon="8.9352617"><ele>397.8</ele><time>2026-04-08T17:12:22.386Z</time></trkpt><trkpt lat="45.8202669" lon="8.9353754"><ele>400.6</ele><time>2026-04-08T17:12:24.406Z</time></trkpt><trkpt lat="45.8202853" lon="8.935504"><ele>403.4</ele><time>2026-04-08T17:12:26.318Z</time></trkpt><trkpt lat="45.8202948" lon="8.9356364"><ele>406.2</ele><time>2026-04-08T17:12:28.355Z</time></trkpt><trkpt lat="45.8202914" lon="8.9358481"><ele>409.0</ele><time>2026-04-08T17:12:29.305Z</time></trkpt><trkpt lat="45.8202708" lon="8.9359474"><ele>410.33333333333337</ele><time>2026-04-08T17:12:31.345Z</time></trkpt><trkpt lat="45.8202276" lon="8.9360207"><ele>411.6666666666667</ele><time>2026-04-08T17:12:43.321Z</time></trkpt><trkpt lat="45.8202599" lon="8.9361217"><ele>413.0</ele><time>2026-04-08T17:12:48.311Z</time></trkpt><trkpt lat="45.8203328" lon="8.9361836"><ele>414.33333333333337</ele><time>2026-04-08T17:12:50.313Z</time></trkpt><trkpt lat="45.8203976" lon="8.9362403"><ele>415.6666666666667</ele><time>2026-04-08T17:12:51.302Z</time></trkpt><trkpt lat="45.820479" lon="8.9363154"><ele>417.0</ele><time>2026-04-08T17:12:52.307Z</time></trkpt><trkpt lat="45.8205888" lon="8.9364114"><ele>417.0</ele><time>2026-04-08T17:12:53.298Z</time></trkpt><trkpt lat="45.8206986" lon="8.9365013"><ele>417.0</ele><time>2026-04-08T17:12:54.312Z</time></trkpt><trkpt lat="45.8208003" lon="8.9365684"><ele>417.0</ele><time>2026-04-08T17:12:55.329Z</time></trkpt><trkpt lat="45.8208966" lon="8.9366008"><ele>417.0</ele><time>2026-04-08T17:12:56.337Z</time></trkpt><trkpt lat="45.8209826" lon="8.9366115"><ele>417.0</ele><time>2026-04-08T17:12:57.294Z</time></trkpt><trkpt lat="45.8211107" lon="8.9366273"><ele>417.0</ele><time>2026-04-08T17:12:58.33Z</time></trkpt><trkpt lat="45.8211856" lon="8.9366379"><ele>417.0</ele><time>2026-04-08T17:12:59.334Z</time></trkpt><trkpt lat="45.8212579" lon="8.936644"><ele>417.0</ele><time>2026-04-08T17:13:00.312Z</time></trkpt><trkpt lat="45.8213585" lon="8.9366573"><ele>417.0</ele><time>2026-04-08T17:13:01.329Z</time></trkpt><trkpt lat="45.8214307" lon="8.9366679"><ele>417.0</ele><time>2026-04-08T17:13:02.31Z</time></trkpt><trkpt lat="45.8214933" lon="8.9366806"><ele>417.0</ele><time>2026-04-08T17:13:03.3Z</time></trkpt><trkpt lat="45.8215656" lon="8.9366924"><ele>417.3333333333333</ele><time>2026-04-08T17:13:04.335Z</time></trkpt><trkpt lat="45.8216329" lon="8.9367289"><ele>417.66666666666663</ele><time>2026-04-08T17:13:05.31Z</time></trkpt><trkpt lat="45.8217009" lon="8.9367836"><ele>418.0</ele><time>2026-04-08T17:13:06.305Z</time></trkpt><trkpt lat="45.8217682" lon="8.9368453"><ele>418.3333333333333</ele><time>2026-04-08T17:13:07.301Z</time></trkpt><trkpt lat="45.821837" lon="8.9369103"><ele>418.66666666666663</ele><time>2026-04-08T17:13:08.3Z</time></trkpt><trkpt lat="45.821909" lon="8.9369818"><ele>419.0</ele><time>2026-04-08T17:13:09.308Z</time></trkpt><trkpt lat="45.8219798" lon="8.9370502"><ele>419.16666666666663</ele><time>2026-04-08T17:13:10.306Z</time></trkpt><trkpt lat="45.8220378" lon="8.9371071"><ele>419.3333333333333</ele><time>2026-04-08T17:13:11.295Z</time></trkpt><trkpt lat="45.8220964" lon="8.9371604"><ele>419.5</ele><time>2026-04-08T17:13:13.319Z</time></trkpt><trkpt lat="45.8222014" lon="8.9372084"><ele>419.66666666666663</ele><time>2026-04-08T17:13:20.314Z</time></trkpt><trkpt lat="45.8222678" lon="8.9371319"><ele>419.8333333333333</ele><time>2026-04-08T17:13:23.314Z</time></trkpt><trkpt lat="45.8222813" lon="8.9369943"><ele>420.0</ele><time>2026-04-08T17:13:25.309Z</time></trkpt><trkpt lat="45.8223013" lon="8.936814"><ele>420.0</ele><time>2026-04-08T17:13:27.32Z</time></trkpt><trkpt lat="45.8223075" lon="8.9367224"><ele>420.0</ele><time>2026-04-08T17:13:28.304Z</time></trkpt><trkpt lat="45.8223165" lon="8.9365606"><ele>420.0</ele><time>2026-04-08T17:13:30.306Z</time></trkpt><trkpt lat="45.8223247" lon="8.9364446"><ele>420.0</ele><time>2026-04-08T17:13:32.301Z</time></trkpt><trkpt lat="45.8223347" lon="8.9363171"><ele>420.0</ele><time>2026-04-08T17:13:37.3Z</time></trkpt><trkpt lat="45.8223753" lon="8.9362318"><ele>420.0</ele><time>2026-04-08T17:13:39.315Z</time></trkpt><trkpt lat="45.8224813" lon="8.9361765"><ele>420.0</ele><time>2026-04-08T17:13:41.299Z</time></trkpt><trkpt lat="45.8225894" lon="8.9361384"><ele>420.0</ele><time>2026-04-08T17:13:43.311Z</time></trkpt><trkpt lat="45.8226785" lon="8.9361025"><ele>420.0</ele><time>2026-04-08T17:13:45.303Z</time></trkpt><trkpt lat="45.8227847" lon="8.9360659"><ele>420.0</ele><time>2026-04-08T17:13:47.302Z</time></trkpt><trkpt lat="45.822858" lon="8.9360364"><ele>420.0</ele><time>2026-04-08T17:13:48.302Z</time></trkpt><trkpt lat="45.822931" lon="8.9360055"><ele>420.0</ele><time>2026-04-08T17:13:49.313Z</time></trkpt><trkpt lat="45.8230086" lon="8.9359732"><ele>420.0</ele><time>2026-04-08T17:13:50.319Z</time></trkpt><trkpt lat="45.8230888" lon="8.9359379"><ele>420.0</ele><time>2026-04-08T17:13:51.305Z</time></trkpt><trkpt lat="45.8231684" lon="8.9359089"><ele>420.0</ele><time>2026-04-08T17:13:52.304Z</time></trkpt><trkpt lat="45.8232523" lon="8.9358869"><ele>420.0</ele><time>2026-04-08T17:13:53.313Z</time></trkpt><trkpt lat="45.8233357" lon="8.9358623"><ele>420.0</ele><time>2026-04-08T17:13:54.302Z</time></trkpt><trkpt lat="45.8234184" lon="8.9358368"><ele>419.3333333333333</ele><time>2026-04-08T17:13:55.294Z</time></trkpt><trkpt lat="45.823497" lon="8.9358144"><ele>418.66666666666663</ele><time>2026-04-08T17:13:56.303Z</time></trkpt><trkpt lat="45.8235703" lon="8.9358017"><ele>418.0</ele><time>2026-04-08T17:13:57.303Z</time></trkpt><trkpt lat="45.8236507" lon="8.9357986"><ele>417.3333333333333</ele><time>2026-04-08T17:13:58.315Z</time></trkpt><trkpt lat="45.8237385" lon="8.9357937"><ele>416.66666666666663</ele><time>2026-04-08T17:13:59.316Z</time></trkpt><trkpt lat="45.8238337" lon="8.9357856"><ele>416.0</ele><time>2026-04-08T17:14:00.303Z</time></trkpt><trkpt lat="45.8239314" lon="8.9357831"><ele>416.0</ele><time>2026-04-08T17:14:01.33Z</time></trkpt><trkpt lat="45.8240299" lon="8.9357795"><ele>416.0</ele><time>2026-04-08T17:14:02.302Z</time></trkpt><trkpt lat="45.8241316" lon="8.9357772"><ele>416.0</ele><time>2026-04-08T17:14:03.3Z</time></trkpt><trkpt lat="45.8242343" lon="8.935788"><ele>416.0</ele><time>2026-04-08T17:14:04.32Z</time></trkpt><trkpt lat="45.8243321" lon="8.9358155"><ele>416.0</ele><time>2026-04-08T17:14:05.293Z</time></trkpt><trkpt lat="45.8244243" lon="8.9358345"><ele>416.3333333333333</ele><time>2026-04-08T17:14:06.3Z</time></trkpt><trkpt lat="45.8245107" lon="8.9358548"><ele>416.66666666666663</ele><time>2026-04-08T17:14:07.296Z</time></trkpt><trkpt lat="45.8245977" lon="8.9358746"><ele>417.0</ele><time>2026-04-08T17:14:08.293Z</time></trkpt><trkpt lat="45.824685" lon="8.9358952"><ele>417.33333333333337</ele><time>2026-04-08T17:14:09.311Z</time></trkpt><trkpt lat="45.8247752" lon="8.9359146"><ele>417.6666666666667</ele><time>2026-04-08T17:14:10.291Z</time></trkpt><trkpt lat="45.8248641" lon="8.9359301"><ele>418.0</ele><time>2026-04-08T17:14:11.3Z</time></trkpt><trkpt lat="45.8249476" lon="8.9359394"><ele>418.0</ele><time>2026-04-08T17:14:12.297Z</time></trkpt><trkpt lat="45.8250286" lon="8.9359521"><ele>418.0</ele><time>2026-04-08T17:14:13.296Z</time></trkpt><trkpt lat="45.8251023" lon="8.9359661"><ele>418.0</ele><time>2026-04-08T17:14:14.319Z</time></trkpt><trkpt lat="45.8251677" lon="8.9359779"><ele>418.0</ele><time>2026-04-08T17:14:15.314Z</time></trkpt><trkpt lat="45.8252786" lon="8.9359973"><ele>418.0</ele><time>2026-04-08T17:14:17.303Z</time></trkpt><trkpt lat="45.8253882" lon="8.9360883"><ele>417.59999999999997</ele><time>2026-04-08T17:14:19.304Z</time></trkpt><trkpt lat="45.8254348" lon="8.9361833"><ele>417.2</ele><time>2026-04-08T17:14:20.306Z</time></trkpt><trkpt lat="45.8254634" lon="8.9363052"><ele>416.8</ele><time>2026-04-08T17:14:21.306Z</time></trkpt><trkpt lat="45.8254786" lon="8.9364538"><ele>416.4</ele><time>2026-04-08T17:14:22.315Z</time></trkpt><trkpt lat="45.8254876" lon="8.9366205"><ele>416.0</ele><time>2026-04-08T17:14:23.299Z</time></trkpt><trkpt lat="45.8254977" lon="8.9368051"><ele>416.0</ele><time>2026-04-08T17:14:24.302Z</time></trkpt><trkpt lat="45.8255089" lon="8.9369939"><ele>416.0</ele><time>2026-04-08T17:14:25.297Z</time></trkpt><trkpt lat="45.8255245" lon="8.9371973"><ele>416.0</ele><time>2026-04-08T17:14:26.315Z</time></trkpt><trkpt lat="45.8255402" lon="8.9373994"><ele>416.0</ele><time>2026-04-08T17:14:27.318Z</time></trkpt><trkpt lat="45.8255671" lon="8.9376096"><ele>417.0</ele><time>2026-04-08T17:14:28.3Z</time></trkpt><trkpt lat="45.8255953" lon="8.9378151"><ele>418.0</ele><time>2026-04-08T17:14:29.293Z</time></trkpt><trkpt lat="45.8256301" lon="8.9380241"><ele>419.0</ele><time>2026-04-08T17:14:30.3Z</time></trkpt><trkpt lat="45.8256672" lon="8.9382456"><ele>418.66666666666663</ele><time>2026-04-08T17:14:31.305Z</time></trkpt><trkpt lat="45.8257047" lon="8.9384746"><ele>418.33333333333337</ele><time>2026-04-08T17:14:32.305Z</time></trkpt><trkpt lat="45.8257453" lon="8.9387125"><ele>418.0</ele><time>2026-04-08T17:14:33.301Z</time></trkpt><trkpt lat="45.8257876" lon="8.9389518"><ele>418.0</ele><time>2026-04-08T17:14:34.319Z</time></trkpt><trkpt lat="45.8258295" lon="8.9391937"><ele>418.0</ele><time>2026-04-08T17:14:35.302Z</time></trkpt><trkpt lat="45.8258726" lon="8.9394339"><ele>418.0</ele><time>2026-04-08T17:14:36.296Z</time></trkpt><trkpt lat="45.8259139" lon="8.9396743"><ele>418.6666666666667</ele><time>2026-04-08T17:14:37.306Z</time></trkpt><trkpt lat="45.8259531" lon="8.9399162"><ele>419.33333333333337</ele><time>2026-04-08T17:14:38.311Z</time></trkpt><trkpt lat="45.8259929" lon="8.9401549"><ele>420.0</ele><time>2026-04-08T17:14:39.304Z</time></trkpt><trkpt lat="45.8260335" lon="8.9403925"><ele>421.66666666666663</ele><time>2026-04-08T17:14:40.296Z</time></trkpt><trkpt lat="45.8260745" lon="8.9406293"><ele>423.3333333333333</ele><time>2026-04-08T17:14:41.308Z</time></trkpt><trkpt lat="45.8261158" lon="8.9408654"><ele>425.0</ele><time>2026-04-08T17:14:42.321Z</time></trkpt><trkpt lat="45.8261555" lon="8.9411019"><ele>425.0</ele><time>2026-04-08T17:14:43.293Z</time></trkpt><trkpt lat="45.8261946" lon="8.9413368"><ele>425.0</ele><time>2026-04-08T17:14:44.31Z</time></trkpt><trkpt lat="45.8262381" lon="8.941569"><ele>425.0</ele><time>2026-04-08T17:14:45.314Z</time></trkpt><trkpt lat="45.8262891" lon="8.9417983"><ele>424.66666666666663</ele><time>2026-04-08T17:14:46.314Z</time></trkpt><trkpt lat="45.8263505" lon="8.9420231"><ele>424.33333333333337</ele><time>2026-04-08T17:14:47.314Z</time></trkpt><trkpt lat="45.8264201" lon="8.9422462"><ele>424.0</ele><time>2026-04-08T17:14:48.302Z</time></trkpt><trkpt lat="45.8264904" lon="8.9424686"><ele>423.0</ele><time>2026-04-08T17:14:49.299Z</time></trkpt><trkpt lat="45.8265605" lon="8.9426898"><ele>422.0</ele><time>2026-04-08T17:14:50.303Z</time></trkpt><trkpt lat="45.8266289" lon="8.9429124"><ele>421.0</ele><time>2026-04-08T17:14:51.304Z</time></trkpt><trkpt lat="45.8266893" lon="8.9431288"><ele>421.0</ele><time>2026-04-08T17:14:52.299Z</time></trkpt><trkpt lat="45.8267374" lon="8.9433417"><ele>421.0</ele><time>2026-04-08T17:14:53.32Z</time></trkpt><trkpt lat="45.8267685" lon="8.9435579"><ele>421.0</ele><time>2026-04-08T17:14:54.32Z</time></trkpt><trkpt lat="45.8267869" lon="8.9437754"><ele>420.6666666666667</ele><time>2026-04-08T17:14:55.302Z</time></trkpt><trkpt lat="45.82681" lon="8.9439936"><ele>420.33333333333337</ele><time>2026-04-08T17:14:56.299Z</time></trkpt><trkpt lat="45.8268542" lon="8.9442069"><ele>420.0</ele><time>2026-04-08T17:14:57.307Z</time></trkpt><trkpt lat="45.8269258" lon="8.9444093"><ele>420.0</ele><time>2026-04-08T17:14:58.291Z</time></trkpt><trkpt lat="45.8270179" lon="8.9445978"><ele>420.0</ele><time>2026-04-08T17:14:59.304Z</time></trkpt><trkpt lat="45.8271249" lon="8.9447722"><ele>420.0</ele><time>2026-04-08T17:15:00.303Z</time></trkpt><trkpt lat="45.8272398" lon="8.9449392"><ele>418.33333333333337</ele><time>2026-04-08T17:15:01.305Z</time></trkpt><trkpt lat="45.8273569" lon="8.9451057"><ele>416.6666666666667</ele><time>2026-04-08T17:15:02.328Z</time></trkpt><trkpt lat="45.8274739" lon="8.9452731"><ele>415.0</ele><time>2026-04-08T17:15:03.309Z</time></trkpt><trkpt lat="45.8275884" lon="8.9454452"><ele>417.33333333333337</ele><time>2026-04-08T17:15:04.301Z</time></trkpt><trkpt lat="45.8276932" lon="8.9456186"><ele>419.66666666666663</ele><time>2026-04-08T17:15:05.304Z</time></trkpt><trkpt lat="45.8277869" lon="8.9457979"><ele>422.0</ele><time>2026-04-08T17:15:06.302Z</time></trkpt><trkpt lat="45.8278725" lon="8.9459858"><ele>422.0</ele><time>2026-04-08T17:15:07.307Z</time></trkpt><trkpt lat="45.827951" lon="8.9461779"><ele>422.0</ele><time>2026-04-08T17:15:08.303Z</time></trkpt><trkpt lat="45.8280148" lon="8.9463663"><ele>422.0</ele><time>2026-04-08T17:15:09.294Z</time></trkpt><trkpt lat="45.8280597" lon="8.9465556"><ele>422.0</ele><time>2026-04-08T17:15:10.3Z</time></trkpt><trkpt lat="45.8281077" lon="8.9467413"><ele>420.75</ele><time>2026-04-08T17:15:11.307Z</time></trkpt><trkpt lat="45.8281255" lon="8.9469501"><ele>419.5</ele><time>2026-04-08T17:15:12.306Z</time></trkpt><trkpt lat="45.828147" lon="8.9471482"><ele>418.25</ele><time>2026-04-08T17:15:13.295Z</time></trkpt><trkpt lat="45.8281647" lon="8.9473377"><ele>417.0</ele><time>2026-04-08T17:15:14.309Z</time></trkpt><trkpt lat="45.8281702" lon="8.9475071"><ele>416.6666666666667</ele><time>2026-04-08T17:15:15.306Z</time></trkpt><trkpt lat="45.8281695" lon="8.9476564"><ele>416.33333333333337</ele><time>2026-04-08T17:15:16.315Z</time></trkpt><trkpt lat="45.8281476" lon="8.9477777"><ele>416.0</ele><time>2026-04-08T17:15:17.329Z</time></trkpt><trkpt lat="45.828116" lon="8.9478681"><ele>415.6666666666667</ele><time>2026-04-08T17:15:18.301Z</time></trkpt><trkpt lat="45.8280402" lon="8.9479309"><ele>415.33333333333337</ele><time>2026-04-08T17:15:20.334Z</time></trkpt><trkpt lat="45.8279681" lon="8.947893"><ele>415.0</ele><time>2026-04-08T17:15:22.303Z</time></trkpt><trkpt lat="45.8278799" lon="8.9478855"><ele>415.0</ele><time>2026-04-08T17:15:24.308Z</time></trkpt><trkpt lat="45.8277893" lon="8.9478868"><ele>415.0</ele><time>2026-04-08T17:15:26.302Z</time></trkpt><trkpt lat="45.8277187" lon="8.9478831"><ele>415.0</ele><time>2026-04-08T17:15:28.308Z</time></trkpt><trkpt lat="45.8275825" lon="8.9478701"><ele>415.0</ele><time>2026-04-08T17:15:40.328Z</time></trkpt><trkpt lat="45.8275081" lon="8.9478584"><ele>415.0</ele><time>2026-04-08T17:15:41.329Z</time></trkpt><trkpt lat="45.8273847" lon="8.9478477"><ele>414.0</ele><time>2026-04-08T17:15:43.313Z</time></trkpt><trkpt lat="45.8272562" lon="8.9478297"><ele>413.0</ele><time>2026-04-08T17:15:45.317Z</time></trkpt><trkpt lat="45.8271907" lon="8.9478105"><ele>412.0</ele><time>2026-04-08T17:15:46.309Z</time></trkpt><trkpt lat="45.827109" lon="8.9477661"><ele>411.0</ele><time>2026-04-08T17:15:48.31Z</time></trkpt><trkpt lat="45.8270127" lon="8.9476744"><ele>410.0</ele><time>2026-04-08T17:16:31.316Z</time></trkpt><trkpt lat="45.8270849" lon="8.947753"><ele>409.99999999999994</ele><time>2026-04-08T17:16:38.296Z</time></trkpt><trkpt lat="45.8271877" lon="8.9478113"><ele>410.0</ele><time>2026-04-08T17:16:40.342Z</time></trkpt><trkpt lat="45.8272488" lon="8.9478392"><ele>410.0</ele><time>2026-04-08T17:16:41.309Z</time></trkpt><trkpt lat="45.8273267" lon="8.9478446"><ele>410.0</ele><time>2026-04-08T17:16:42.321Z</time></trkpt><trkpt lat="45.8274088" lon="8.947849"><ele>409.99999999999994</ele><time>2026-04-08T17:16:43.315Z</time></trkpt><trkpt lat="45.8274928" lon="8.9478546"><ele>410.0</ele><time>2026-04-08T17:16:44.308Z</time></trkpt><trkpt lat="45.8275709" lon="8.9478556"><ele>410.8333333333333</ele><time>2026-04-08T17:16:45.297Z</time></trkpt><trkpt lat="45.8276446" lon="8.9478601"><ele>411.66666666666663</ele><time>2026-04-08T17:16:46.285Z</time></trkpt><trkpt lat="45.8277203" lon="8.947862"><ele>412.5</ele><time>2026-04-08T17:16:47.291Z</time></trkpt><trkpt lat="45.8277922" lon="8.9478617"><ele>413.33333333333337</ele><time>2026-04-08T17:16:48.305Z</time></trkpt><trkpt lat="45.8278564" lon="8.9478627"><ele>414.1666666666667</ele><time>2026-04-08T17:16:49.303Z</time></trkpt><trkpt lat="45.827967" lon="8.9478709"><ele>415.0</ele><time>2026-04-08T17:16:51.3Z</time></trkpt><trkpt lat="45.8280335" lon="8.9479195"><ele>415.00000000000006</ele><time>2026-04-08T17:16:54.335Z</time></trkpt><trkpt lat="45.8280367" lon="8.948011"><ele>415.0</ele><time>2026-04-08T17:16:56.304Z</time></trkpt><trkpt lat="45.8280089" lon="8.9481015"><ele>415.0</ele><time>2026-04-08T17:16:57.313Z</time></trkpt><trkpt lat="45.8279637" lon="8.9482198"><ele>415.0</ele><time>2026-04-08T17:16:58.315Z</time></trkpt><trkpt lat="45.8279115" lon="8.94835"><ele>415.00000000000006</ele><time>2026-04-08T17:16:59.303Z</time></trkpt><trkpt lat="45.8278602" lon="8.9485003"><ele>415.0</ele><time>2026-04-08T17:17:00.322Z</time></trkpt><trkpt lat="45.8278138" lon="8.9486396"><ele>415.6666666666667</ele><time>2026-04-08T17:17:01.316Z</time></trkpt><trkpt lat="45.8277597" lon="8.9487764"><ele>416.33333333333337</ele><time>2026-04-08T17:17:02.3Z</time></trkpt><trkpt lat="45.8277136" lon="8.9488896"><ele>417.0</ele><time>2026-04-08T17:17:03.302Z</time></trkpt><trkpt lat="45.8276744" lon="8.9489974"><ele>417.66666666666663</ele><time>2026-04-08T17:17:04.319Z</time></trkpt><trkpt lat="45.8276449" lon="8.9490825"><ele>418.3333333333333</ele><time>2026-04-08T17:17:05.311Z</time></trkpt><trkpt lat="45.8276124" lon="8.9491735"><ele>419.0</ele><time>2026-04-08T17:17:07.309Z</time></trkpt><trkpt lat="45.8275791" lon="8.949323"><ele>419.16666666666663</ele><time>2026-04-08T17:17:13.302Z</time></trkpt><trkpt lat="45.8275642" lon="8.9494164"><ele>419.3333333333333</ele><time>2026-04-08T17:17:14.308Z</time></trkpt><trkpt lat="45.82759" lon="8.949538"><ele>419.5</ele><time>2026-04-08T17:17:15.302Z</time></trkpt><trkpt lat="45.8276279" lon="8.9496644"><ele>419.66666666666663</ele><time>2026-04-08T17:17:16.306Z</time></trkpt><trkpt lat="45.8276551" lon="8.9497939"><ele>419.8333333333333</ele><time>2026-04-08T17:17:17.298Z</time></trkpt><trkpt lat="45.8276549" lon="8.9499297"><ele>420.0</ele><time>2026-04-08T17:17:18.301Z</time></trkpt><trkpt lat="45.8276513" lon="8.9500723"><ele>418.5</ele><time>2026-04-08T17:17:19.305Z</time></trkpt><trkpt lat="45.8276127" lon="8.9502206"><ele>417.0</ele><time>2026-04-08T17:17:20.309Z</time></trkpt><trkpt lat="45.827548" lon="8.9503775"><ele>415.5</ele><time>2026-04-08T17:17:21.305Z</time></trkpt><trkpt lat="45.8274874" lon="8.9505427"><ele>414.0</ele><time>2026-04-08T17:17:22.308Z</time></trkpt><trkpt lat="45.8274309" lon="8.95071"><ele>415.25</ele><time>2026-04-08T17:17:23.303Z</time></trkpt><trkpt lat="45.8273767" lon="8.9508832"><ele>416.5</ele><time>2026-04-08T17:17:24.304Z</time></trkpt><trkpt lat="45.8273232" lon="8.9510548"><ele>417.75</ele><time>2026-04-08T17:17:25.31Z</time></trkpt><trkpt lat="45.8272636" lon="8.9512217"><ele>419.0</ele><time>2026-04-08T17:17:26.304Z</time></trkpt><trkpt lat="45.8271942" lon="8.9513829"><ele>419.0</ele><time>2026-04-08T17:17:27.309Z</time></trkpt><trkpt lat="45.8271187" lon="8.9515378"><ele>419.0</ele><time>2026-04-08T17:17:28.299Z</time></trkpt><trkpt lat="45.8270385" lon="8.9516883"><ele>419.0</ele><time>2026-04-08T17:17:29.301Z</time></trkpt><trkpt lat="45.8269575" lon="8.9518402"><ele>419.0</ele><time>2026-04-08T17:17:30.306Z</time></trkpt><trkpt lat="45.8268771" lon="8.9519886"><ele>417.25</ele><time>2026-04-08T17:17:31.32Z</time></trkpt><trkpt lat="45.8267943" lon="8.9521395"><ele>415.5</ele><time>2026-04-08T17:17:32.311Z</time></trkpt><trkpt lat="45.8267101" lon="8.9522925"><ele>413.75</ele><time>2026-04-08T17:17:33.308Z</time></trkpt><trkpt lat="45.8266273" lon="8.9524469"><ele>412.0</ele><time>2026-04-08T17:17:34.312Z</time></trkpt><trkpt lat="45.8265431" lon="8.9526013"><ele>412.0</ele><time>2026-04-08T17:17:35.321Z</time></trkpt><trkpt lat="45.8264584" lon="8.9527565"><ele>412.0</ele><time>2026-04-08T17:17:36.306Z</time></trkpt><trkpt lat="45.8263736" lon="8.9529136"><ele>412.0</ele><time>2026-04-08T17:17:37.317Z</time></trkpt><trkpt lat="45.8262902" lon="8.9530676"><ele>412.0</ele><time>2026-04-08T17:17:38.32Z</time></trkpt><trkpt lat="45.8262173" lon="8.9532348"><ele>412.25</ele><time>2026-04-08T17:17:39.304Z</time></trkpt><trkpt lat="45.8261556" lon="8.9534043"><ele>412.5</ele><time>2026-04-08T17:17:40.303Z</time></trkpt><trkpt lat="45.8261085" lon="8.9535565"><ele>412.75</ele><time>2026-04-08T17:17:41.318Z</time></trkpt><trkpt lat="45.8260647" lon="8.9536974"><ele>413.0</ele><time>2026-04-08T17:17:42.315Z</time></trkpt><trkpt lat="45.8260245" lon="8.9538215"><ele>413.0</ele><time>2026-04-08T17:17:43.302Z</time></trkpt><trkpt lat="45.8259919" lon="8.9539135"><ele>413.0</ele><time>2026-04-08T17:17:44.304Z</time></trkpt><trkpt lat="45.8259789" lon="8.9540917"><ele>413.0</ele><time>2026-04-08T17:18:26.296Z</time></trkpt><trkpt lat="45.82595" lon="8.9542818"><ele>413.0</ele><time>2026-04-08T17:18:27.318Z</time></trkpt><trkpt lat="45.8258876" lon="8.9545789"><ele>412.66666666666663</ele><time>2026-04-08T17:18:28.323Z</time></trkpt><trkpt lat="45.8258362" lon="8.9548302"><ele>412.33333333333337</ele><time>2026-04-08T17:18:29.307Z</time></trkpt><trkpt lat="45.8257848" lon="8.9550747"><ele>412.0</ele><time>2026-04-08T17:18:30.303Z</time></trkpt><trkpt lat="45.82573" lon="8.9553327"><ele>411.33333333333337</ele><time>2026-04-08T17:18:31.3Z</time></trkpt><trkpt lat="45.8256825" lon="8.9555624"><ele>410.66666666666663</ele><time>2026-04-08T17:18:32.296Z</time></trkpt><trkpt lat="45.8256385" lon="8.9557769"><ele>410.0</ele><time>2026-04-08T17:18:33.292Z</time></trkpt><trkpt lat="45.825592" lon="8.9559807"><ele>410.0</ele><time>2026-04-08T17:18:34.301Z</time></trkpt><trkpt lat="45.8255435" lon="8.9561768"><ele>410.0</ele><time>2026-04-08T17:18:35.313Z</time></trkpt><trkpt lat="45.8254968" lon="8.9563734"><ele>410.0</ele><time>2026-04-08T17:18:36.31Z</time></trkpt><trkpt lat="45.8254519" lon="8.9565665"><ele>410.0</ele><time>2026-04-08T17:18:37.298Z</time></trkpt><trkpt lat="45.8254078" lon="8.9567559"><ele>410.0</ele><time>2026-04-08T17:18:38.306Z</time></trkpt><trkpt lat="45.8253631" lon="8.9569457"><ele>410.0</ele><time>2026-04-08T17:18:39.298Z</time></trkpt><trkpt lat="45.825319" lon="8.9571344"><ele>410.0</ele><time>2026-04-08T17:18:40.299Z</time></trkpt><trkpt lat="45.825275" lon="8.957324"><ele>410.0</ele><time>2026-04-08T17:18:41.314Z</time></trkpt><trkpt lat="45.825231" lon="8.9575144"><ele>410.0</ele><time>2026-04-08T17:18:42.303Z</time></trkpt><trkpt lat="45.8251933" lon="8.9577066"><ele>410.0</ele><time>2026-04-08T17:18:43.295Z</time></trkpt><trkpt lat="45.8251609" lon="8.9578894"><ele>410.0</ele><time>2026-04-08T17:18:44.302Z</time></trkpt><trkpt lat="45.8251314" lon="8.9580647"><ele>410.0</ele><time>2026-04-08T17:18:45.311Z</time></trkpt><trkpt lat="45.8251029" lon="8.9582387"><ele>410.5</ele><time>2026-04-08T17:18:46.318Z</time></trkpt><trkpt lat="45.8250762" lon="8.9584179"><ele>411.0</ele><time>2026-04-08T17:18:47.287Z</time></trkpt><trkpt lat="45.8250492" lon="8.9585999"><ele>411.5</ele><time>2026-04-08T17:18:48.302Z</time></trkpt><trkpt lat="45.8250202" lon="8.9587851"><ele>412.0</ele><time>2026-04-08T17:18:49.307Z</time></trkpt><trkpt lat="45.8249883" lon="8.9589687"><ele>412.0</ele><time>2026-04-08T17:18:50.314Z</time></trkpt><trkpt lat="45.8249554" lon="8.9591452"><ele>412.0</ele><time>2026-04-08T17:18:51.297Z</time></trkpt><trkpt lat="45.8249264" lon="8.9593054"><ele>412.0</ele><time>2026-04-08T17:18:52.3Z</time></trkpt><trkpt lat="45.824901" lon="8.9594544"><ele>412.0</ele><time>2026-04-08T17:18:53.308Z</time></trkpt><trkpt lat="45.8248774" lon="8.9596019"><ele>411.8</ele><time>2026-04-08T17:18:54.317Z</time></trkpt><trkpt lat="45.8248547" lon="8.9597474"><ele>411.6</ele><time>2026-04-08T17:18:55.306Z</time></trkpt><trkpt lat="45.8248012" lon="8.9598819"><ele>411.40000000000003</ele><time>2026-04-08T17:18:56.324Z</time></trkpt><trkpt lat="45.8247244" lon="8.9599954"><ele>411.20000000000005</ele><time>2026-04-08T17:18:57.305Z</time></trkpt><trkpt lat="45.8246336" lon="8.9600907"><ele>411.0</ele><time>2026-04-08T17:18:58.319Z</time></trkpt><trkpt lat="45.8245445" lon="8.9601852"><ele>411.0</ele><time>2026-04-08T17:18:59.307Z</time></trkpt><trkpt lat="45.8244591" lon="8.9602715"><ele>411.0</ele><time>2026-04-08T17:19:00.299Z</time></trkpt><trkpt lat="45.8243755" lon="8.9603482"><ele>411.0</ele><time>2026-04-08T17:19:01.305Z</time></trkpt><trkpt lat="45.8242975" lon="8.9604161"><ele>411.0</ele><time>2026-04-08T17:19:02.297Z</time></trkpt><trkpt lat="45.8242255" lon="8.960474"><ele>411.0</ele><time>2026-04-08T17:19:03.309Z</time></trkpt><trkpt lat="45.8241652" lon="8.9605204"><ele>411.0</ele><time>2026-04-08T17:19:04.319Z</time></trkpt><trkpt lat="45.8240951" lon="8.9605762"><ele>411.0</ele><time>2026-04-08T17:19:06.299Z</time></trkpt><trkpt lat="45.8240754" lon="8.9606835"><ele>411.0</ele><time>2026-04-08T17:19:11.287Z</time></trkpt><trkpt lat="45.8241265" lon="8.9607608"><ele>411.0</ele><time>2026-04-08T17:19:12.305Z</time></trkpt><trkpt lat="45.8241852" lon="8.960855"><ele>411.0</ele><time>2026-04-08T17:19:13.301Z</time></trkpt><trkpt lat="45.8242449" lon="8.9609582"><ele>411.0</ele><time>2026-04-08T17:19:14.304Z</time></trkpt><trkpt lat="45.8242939" lon="8.9610683"><ele>411.0</ele><time>2026-04-08T17:19:15.302Z</time></trkpt><trkpt lat="45.8243263" lon="8.9611971"><ele>411.20000000000005</ele><time>2026-04-08T17:19:16.31Z</time></trkpt><trkpt lat="45.824356" lon="8.9613287"><ele>411.40000000000003</ele><time>2026-04-08T17:19:17.302Z</time></trkpt><trkpt lat="45.8243462" lon="8.9614561"><ele>411.6</ele><time>2026-04-08T17:19:18.308Z</time></trkpt><trkpt lat="45.8243314" lon="8.9615881"><ele>411.8</ele><time>2026-04-08T17:19:19.299Z</time></trkpt><trkpt lat="45.8242698" lon="8.9617086"><ele>412.0</ele><time>2026-04-08T17:19:20.293Z</time></trkpt><trkpt lat="45.8241983" lon="8.9618424"><ele>412.25</ele><time>2026-04-08T17:19:21.288Z</time></trkpt><trkpt lat="45.8241108" lon="8.9620086"><ele>412.5</ele><time>2026-04-08T17:19:22.29Z</time></trkpt><trkpt lat="45.8240253" lon="8.9621734"><ele>412.75</ele><time>2026-04-08T17:19:23.316Z</time></trkpt><trkpt lat="45.8239548" lon="8.9623488"><ele>413.0</ele><time>2026-04-08T17:19:24.305Z</time></trkpt><trkpt lat="45.8239041" lon="8.962532"><ele>412.0</ele><time>2026-04-08T17:19:25.316Z</time></trkpt><trkpt lat="45.8238524" lon="8.9627189"><ele>411.0</ele><time>2026-04-08T17:19:26.316Z</time></trkpt><trkpt lat="45.8238322" lon="8.9629173"><ele>410.0</ele><time>2026-04-08T17:19:27.301Z</time></trkpt><trkpt lat="45.8238108" lon="8.9631164"><ele>409.0</ele><time>2026-04-08T17:19:28.3Z</time></trkpt><trkpt lat="45.8237944" lon="8.9633096"><ele>409.5</ele><time>2026-04-08T17:19:29.307Z</time></trkpt><trkpt lat="45.8237794" lon="8.9634988"><ele>410.0</ele><time>2026-04-08T17:19:30.311Z</time></trkpt><trkpt lat="45.8237589" lon="8.9636771"><ele>410.5</ele><time>2026-04-08T17:19:31.311Z</time></trkpt><trkpt lat="45.8237361" lon="8.9638471"><ele>411.0</ele><time>2026-04-08T17:19:32.295Z</time></trkpt><trkpt lat="45.8237028" lon="8.9639975"><ele>411.0</ele><time>2026-04-08T17:19:33.299Z</time></trkpt><trkpt lat="45.8236511" lon="8.9641153"><ele>411.0</ele><time>2026-04-08T17:19:34.308Z</time></trkpt><trkpt lat="45.8235794" lon="8.9641949"><ele>411.0</ele><time>2026-04-08T17:19:35.305Z</time></trkpt><trkpt lat="45.8234955" lon="8.9642364"><ele>411.0</ele><time>2026-04-08T17:19:36.297Z</time></trkpt><trkpt lat="45.8234084" lon="8.964244"><ele>411.0</ele><time>2026-04-08T17:19:37.295Z</time></trkpt><trkpt lat="45.8233289" lon="8.9642425"><ele>411.0</ele><time>2026-04-08T17:19:38.308Z</time></trkpt><trkpt lat="45.8232546" lon="8.9642422"><ele>408.20000000000005</ele><time>2026-04-08T17:19:39.317Z</time></trkpt><trkpt lat="45.8231901" lon="8.9642809"><ele>405.40000000000003</ele><time>2026-04-08T17:19:40.286Z</time></trkpt><trkpt lat="45.8231382" lon="8.964363"><ele>402.6</ele><time>2026-04-08T17:19:41.298Z</time></trkpt><trkpt lat="45.8230939" lon="8.9644895"><ele>399.8</ele><time>2026-04-08T17:19:42.31Z</time></trkpt><trkpt lat="45.8231052" lon="8.9646641"><ele>397.0</ele><time>2026-04-08T17:19:43.304Z</time></trkpt><trkpt lat="45.8230817" lon="8.9648634"><ele>399.0</ele><time>2026-04-08T17:19:44.3Z</time></trkpt><trkpt lat="45.8230242" lon="8.965075"><ele>401.0</ele><time>2026-04-08T17:19:45.314Z</time></trkpt><trkpt lat="45.8229452" lon="8.9652818"><ele>403.0</ele><time>2026-04-08T17:19:46.302Z</time></trkpt><trkpt lat="45.822874" lon="8.9654851"><ele>403.0</ele><time>2026-04-08T17:19:47.293Z</time></trkpt><trkpt lat="45.8228013" lon="8.9656799"><ele>403.0</ele><time>2026-04-08T17:19:48.296Z</time></trkpt><trkpt lat="45.8227215" lon="8.9658634"><ele>403.0</ele><time>2026-04-08T17:19:49.304Z</time></trkpt><trkpt lat="45.8226373" lon="8.9660344"><ele>400.5</ele><time>2026-04-08T17:19:50.317Z</time></trkpt><trkpt lat="45.822557" lon="8.9662049"><ele>398.0</ele><time>2026-04-08T17:19:51.301Z</time></trkpt><trkpt lat="45.8224834" lon="8.9663785"><ele>395.5</ele><time>2026-04-08T17:19:52.287Z</time></trkpt><trkpt lat="45.8224168" lon="8.9665623"><ele>393.0</ele><time>2026-04-08T17:19:53.31Z</time></trkpt><trkpt lat="45.8223506" lon="8.9667452"><ele>393.0</ele><time>2026-04-08T17:19:54.312Z</time></trkpt><trkpt lat="45.8222837" lon="8.9669253"><ele>393.0</ele><time>2026-04-08T17:19:55.308Z</time></trkpt><trkpt lat="45.8222133" lon="8.9670796"><ele>393.0</ele><time>2026-04-08T17:19:56.302Z</time></trkpt><trkpt lat="45.8221343" lon="8.9672112"><ele>393.0</ele><time>2026-04-08T17:19:57.313Z</time></trkpt><trkpt lat="45.822049" lon="8.9673322"><ele>393.0</ele><time>2026-04-08T17:19:58.308Z</time></trkpt><trkpt lat="45.8219743" lon="8.9674559"><ele>393.0</ele><time>2026-04-08T17:19:59.307Z</time></trkpt><trkpt lat="45.8219" lon="8.96758"><ele>393.0</ele><time>2026-04-08T17:20:00.306Z</time></trkpt><trkpt lat="45.8218701" lon="8.9677423"><ele>393.0</ele><time>2026-04-08T17:20:01.288Z</time></trkpt><trkpt lat="45.8218568" lon="8.9679222"><ele>394.0</ele><time>2026-04-08T17:20:02.312Z</time></trkpt><trkpt lat="45.8218416" lon="8.9681146"><ele>395.0</ele><time>2026-04-08T17:20:03.309Z</time></trkpt><trkpt lat="45.8218156" lon="8.9683163"><ele>396.0</ele><time>2026-04-08T17:20:04.324Z</time></trkpt><trkpt lat="45.8217879" lon="8.9685203"><ele>397.0</ele><time>2026-04-08T17:20:05.306Z</time></trkpt><trkpt lat="45.8217618" lon="8.9687247"><ele>389.25</ele><time>2026-04-08T17:20:06.293Z</time></trkpt><trkpt lat="45.8217447" lon="8.9689198"><ele>381.5</ele><time>2026-04-08T17:20:07.292Z</time></trkpt><trkpt lat="45.8217398" lon="8.96911"><ele>373.75</ele><time>2026-04-08T17:20:08.297Z</time></trkpt><trkpt lat="45.8217464" lon="8.9692955"><ele>366.0</ele><time>2026-04-08T17:20:09.287Z</time></trkpt><trkpt lat="45.8217563" lon="8.9694753"><ele>365.5</ele><time>2026-04-08T17:20:10.293Z</time></trkpt><trkpt lat="45.8217669" lon="8.9696545"><ele>365.0</ele><time>2026-04-08T17:20:11.294Z</time></trkpt><trkpt lat="45.8217733" lon="8.9698264"><ele>364.5</ele><time>2026-04-08T17:20:12.29Z</time></trkpt><trkpt lat="45.8217848" lon="8.9699918"><ele>364.0</ele><time>2026-04-08T17:20:13.287Z</time></trkpt><trkpt lat="45.8217958" lon="8.9701514"><ele>363.6</ele><time>2026-04-08T17:20:14.316Z</time></trkpt><trkpt lat="45.8218032" lon="8.9703093"><ele>363.2</ele><time>2026-04-08T17:20:15.303Z</time></trkpt><trkpt lat="45.8218079" lon="8.9704633"><ele>362.8</ele><time>2026-04-08T17:20:16.299Z</time></trkpt><trkpt lat="45.8218255" lon="8.9706126"><ele>362.40000000000003</ele><time>2026-04-08T17:20:17.296Z</time></trkpt><trkpt lat="45.8218716" lon="8.9707547"><ele>362.0</ele><time>2026-04-08T17:20:18.313Z</time></trkpt><trkpt lat="45.8219204" lon="8.9709019"><ele>363.5</ele><time>2026-04-08T17:20:19.296Z</time></trkpt><trkpt lat="45.8220078" lon="8.9710321"><ele>365.0</ele><time>2026-04-08T17:20:20.3Z</time></trkpt><trkpt lat="45.8221129" lon="8.9711428"><ele>366.5</ele><time>2026-04-08T17:20:21.303Z</time></trkpt><trkpt lat="45.8222452" lon="8.9712396"><ele>368.0</ele><time>2026-04-08T17:20:22.299Z</time></trkpt><trkpt lat="45.8223783" lon="8.9713417"><ele>368.0</ele><time>2026-04-08T17:20:23.313Z</time></trkpt><trkpt lat="45.822504" lon="8.9714566"><ele>368.0</ele><time>2026-04-08T17:20:24.314Z</time></trkpt><trkpt lat="45.8226309" lon="8.9715704"><ele>368.0</ele><time>2026-04-08T17:20:25.296Z</time></trkpt><trkpt lat="45.8227369" lon="8.971716"><ele>368.0</ele><time>2026-04-08T17:20:26.303Z</time></trkpt><trkpt lat="45.8228457" lon="8.97186"><ele>370.5</ele><time>2026-04-08T17:20:27.339Z</time></trkpt><trkpt lat="45.8229556" lon="8.9719878"><ele>373.0</ele><time>2026-04-08T17:20:28.313Z</time></trkpt><trkpt lat="45.8230556" lon="8.9721049"><ele>375.5</ele><time>2026-04-08T17:20:29.302Z</time></trkpt><trkpt lat="45.8231296" lon="8.9722454"><ele>378.0</ele><time>2026-04-08T17:20:30.309Z</time></trkpt><trkpt lat="45.8231769" lon="8.972418"><ele>378.25</ele><time>2026-04-08T17:20:31.304Z</time></trkpt><trkpt lat="45.8232094" lon="8.9726175"><ele>378.5</ele><time>2026-04-08T17:20:32.303Z</time></trkpt><trkpt lat="45.8232408" lon="8.9728267"><ele>378.75</ele><time>2026-04-08T17:20:33.309Z</time></trkpt><trkpt lat="45.8232797" lon="8.9730308"><ele>379.0</ele><time>2026-04-08T17:20:34.316Z</time></trkpt><trkpt lat="45.8233298" lon="8.9732253"><ele>379.0</ele><time>2026-04-08T17:20:35.312Z</time></trkpt><trkpt lat="45.8233827" lon="8.9734168"><ele>379.0</ele><time>2026-04-08T17:20:36.3Z</time></trkpt><trkpt lat="45.8234376" lon="8.9736029"><ele>379.0</ele><time>2026-04-08T17:20:37.305Z</time></trkpt><trkpt lat="45.8234933" lon="8.9737802"><ele>379.0</ele><time>2026-04-08T17:20:38.326Z</time></trkpt><trkpt lat="45.8235478" lon="8.9739502"><ele>378.4</ele><time>2026-04-08T17:20:39.306Z</time></trkpt><trkpt lat="45.8235961" lon="8.9741049"><ele>377.79999999999995</ele><time>2026-04-08T17:20:40.304Z</time></trkpt><trkpt lat="45.8236607" lon="8.9742143"><ele>377.20000000000005</ele><time>2026-04-08T17:20:41.303Z</time></trkpt><trkpt lat="45.8237512" lon="8.9742991"><ele>376.6</ele><time>2026-04-08T17:20:42.303Z</time></trkpt><trkpt lat="45.8238436" lon="8.9743787"><ele>376.0</ele><time>2026-04-08T17:20:43.285Z</time></trkpt><trkpt lat="45.8239592" lon="8.9743805"><ele>375.75</ele><time>2026-04-08T17:20:44.296Z</time></trkpt><trkpt lat="45.8240789" lon="8.974331"><ele>375.5</ele><time>2026-04-08T17:20:45.293Z</time></trkpt><trkpt lat="45.8241934" lon="8.9742446"><ele>375.25</ele><time>2026-04-08T17:20:46.31Z</time></trkpt><trkpt lat="45.8243192" lon="8.97412"><ele>375.0</ele><time>2026-04-08T17:20:47.289Z</time></trkpt><trkpt lat="45.8244541" lon="8.9740006"><ele>375.0</ele><time>2026-04-08T17:20:48.303Z</time></trkpt><trkpt lat="45.8245801" lon="8.9738732"><ele>375.0</ele><time>2026-04-08T17:20:49.294Z</time></trkpt><trkpt lat="45.8247044" lon="8.9737451"><ele>375.0</ele><time>2026-04-08T17:20:50.311Z</time></trkpt><trkpt lat="45.8248258" lon="8.97363"><ele>375.0</ele><time>2026-04-08T17:20:51.304Z</time></trkpt><trkpt lat="45.8249314" lon="8.9735126"><ele>375.0</ele><time>2026-04-08T17:20:52.302Z</time></trkpt><trkpt lat="45.8250336" lon="8.9733971"><ele>375.0</ele><time>2026-04-08T17:20:53.298Z</time></trkpt><trkpt lat="45.8251253" lon="8.9733025"><ele>375.0</ele><time>2026-04-08T17:20:54.31Z</time></trkpt><trkpt lat="45.8252027" lon="8.9732371"><ele>376.1666666666667</ele><time>2026-04-08T17:20:55.297Z</time></trkpt><trkpt lat="45.8252811" lon="8.9732084"><ele>377.3333333333333</ele><time>2026-04-08T17:20:56.303Z</time></trkpt><trkpt lat="45.8253512" lon="8.9732185"><ele>378.5</ele><time>2026-04-08T17:20:57.289Z</time></trkpt><trkpt lat="45.8254141" lon="8.9732589"><ele>379.66666666666663</ele><time>2026-04-08T17:20:58.312Z</time></trkpt><trkpt lat="45.82548" lon="8.9733517"><ele>380.8333333333333</ele><time>2026-04-08T17:20:59.313Z</time></trkpt><trkpt lat="45.8255395" lon="8.9734868"><ele>382.0</ele><time>2026-04-08T17:21:00.298Z</time></trkpt><trkpt lat="45.8255771" lon="8.9736308"><ele>382.0</ele><time>2026-04-08T17:21:01.308Z</time></trkpt><trkpt lat="45.8256368" lon="8.9737674"><ele>382.0</ele><time>2026-04-08T17:21:02.308Z</time></trkpt><trkpt lat="45.8257294" lon="8.9738717"><ele>382.0</ele><time>2026-04-08T17:21:03.297Z</time></trkpt><trkpt lat="45.8258995" lon="8.9740262"><ele>382.0</ele><time>2026-04-08T17:21:04.3Z</time></trkpt><trkpt lat="45.8260528" lon="8.9741751"><ele>382.3333333333333</ele><time>2026-04-08T17:21:05.311Z</time></trkpt><trkpt lat="45.8261997" lon="8.9743112"><ele>382.6666666666667</ele><time>2026-04-08T17:21:06.305Z</time></trkpt><trkpt lat="45.8263355" lon="8.9744359"><ele>383.0</ele><time>2026-04-08T17:21:07.302Z</time></trkpt><trkpt lat="45.8264709" lon="8.9745356"><ele>383.0</ele><time>2026-04-08T17:21:08.308Z</time></trkpt><trkpt lat="45.8266149" lon="8.9746269"><ele>383.0</ele><time>2026-04-08T17:21:09.302Z</time></trkpt><trkpt lat="45.8267496" lon="8.9747211"><ele>383.0</ele><time>2026-04-08T17:21:10.286Z</time></trkpt><trkpt lat="45.8268893" lon="8.9748429"><ele>382.33333333333337</ele><time>2026-04-08T17:21:11.298Z</time></trkpt><trkpt lat="45.8270092" lon="8.9749772"><ele>381.6666666666667</ele><time>2026-04-08T17:21:12.311Z</time></trkpt><trkpt lat="45.8271157" lon="8.9751276"><ele>381.0</ele><time>2026-04-08T17:21:13.3Z</time></trkpt><trkpt lat="45.8272181" lon="8.9752917"><ele>381.0</ele><time>2026-04-08T17:21:14.298Z</time></trkpt><trkpt lat="45.8273242" lon="8.9754416"><ele>381.0</ele><time>2026-04-08T17:21:15.301Z</time></trkpt><trkpt lat="45.8274298" lon="8.975576"><ele>381.0</ele><time>2026-04-08T17:21:16.315Z</time></trkpt><trkpt lat="45.8275324" lon="8.9757138"><ele>381.0</ele><time>2026-04-08T17:21:17.3Z</time></trkpt><trkpt lat="45.8276448" lon="8.975851"><ele>379.6666666666667</ele><time>2026-04-08T17:21:18.305Z</time></trkpt><trkpt lat="45.8277572" lon="8.9759941"><ele>378.33333333333337</ele><time>2026-04-08T17:21:19.302Z</time></trkpt><trkpt lat="45.827873" lon="8.9761423"><ele>377.0</ele><time>2026-04-08T17:21:20.314Z</time></trkpt><trkpt lat="45.8279915" lon="8.9762936"><ele>377.0</ele><time>2026-04-08T17:21:21.314Z</time></trkpt><trkpt lat="45.8281102" lon="8.9764452"><ele>377.0</ele><time>2026-04-08T17:21:22.304Z</time></trkpt><trkpt lat="45.828225" lon="8.976588"><ele>377.0</ele><time>2026-04-08T17:21:23.317Z</time></trkpt><trkpt lat="45.8283364" lon="8.9767183"><ele>378.0</ele><time>2026-04-08T17:21:24.313Z</time></trkpt><trkpt lat="45.8284406" lon="8.9768445"><ele>379.0</ele><time>2026-04-08T17:21:25.304Z</time></trkpt><trkpt lat="45.8285303" lon="8.9769787"><ele>380.0</ele><time>2026-04-08T17:21:26.297Z</time></trkpt><trkpt lat="45.8286024" lon="8.977121"><ele>381.0</ele><time>2026-04-08T17:21:27.299Z</time></trkpt><trkpt lat="45.8286588" lon="8.9772652"><ele>381.0</ele><time>2026-04-08T17:21:28.305Z</time></trkpt><trkpt lat="45.8286969" lon="8.9774069"><ele>381.0</ele><time>2026-04-08T17:21:29.292Z</time></trkpt><trkpt lat="45.8287123" lon="8.9775507"><ele>381.0</ele><time>2026-04-08T17:21:30.314Z</time></trkpt><trkpt lat="45.8286992" lon="8.977696"><ele>381.0</ele><time>2026-04-08T17:21:31.299Z</time></trkpt><trkpt lat="45.8286643" lon="8.9778315"><ele>381.0</ele><time>2026-04-08T17:21:32.311Z</time></trkpt><trkpt lat="45.8286267" lon="8.9779544"><ele>380.20000000000005</ele><time>2026-04-08T17:21:33.296Z</time></trkpt><trkpt lat="45.8286025" lon="8.9780844"><ele>379.40000000000003</ele><time>2026-04-08T17:21:34.303Z</time></trkpt><trkpt lat="45.8286028" lon="8.9782232"><ele>378.6</ele><time>2026-04-08T17:21:35.308Z</time></trkpt><trkpt lat="45.8286323" lon="8.9783545"><ele>377.8</ele><time>2026-04-08T17:21:36.311Z</time></trkpt><trkpt lat="45.8286782" lon="8.9784672"><ele>377.0</ele><time>2026-04-08T17:21:37.305Z</time></trkpt><trkpt lat="45.8287197" lon="8.9785737"><ele>376.6</ele><time>2026-04-08T17:21:38.3Z</time></trkpt><trkpt lat="45.8287328" lon="8.9786807"><ele>376.20000000000005</ele><time>2026-04-08T17:21:39.319Z</time></trkpt><trkpt lat="45.828748" lon="8.9787907"><ele>375.8</ele><time>2026-04-08T17:21:40.296Z</time></trkpt><trkpt lat="45.8287142" lon="8.9789124"><ele>375.4</ele><time>2026-04-08T17:21:41.31Z</time></trkpt><trkpt lat="45.8286489" lon="8.9790331"><ele>375.0</ele><time>2026-04-08T17:21:42.3Z</time></trkpt><trkpt lat="45.8285871" lon="8.9791485"><ele>374.0</ele><time>2026-04-08T17:21:43.303Z</time></trkpt><trkpt lat="45.8285267" lon="8.9792488"><ele>373.0</ele><time>2026-04-08T17:21:44.322Z</time></trkpt><trkpt lat="45.8284852" lon="8.9793501"><ele>372.0</ele><time>2026-04-08T17:21:45.303Z</time></trkpt><trkpt lat="45.828477" lon="8.9794527"><ele>371.0</ele><time>2026-04-08T17:21:46.302Z</time></trkpt><trkpt lat="45.8285185" lon="8.9795739"><ele>370.0</ele><time>2026-04-08T17:21:47.301Z</time></trkpt><trkpt lat="45.8285992" lon="8.9796829"><ele>370.0</ele><time>2026-04-08T17:21:48.305Z</time></trkpt><trkpt lat="45.8286767" lon="8.9797856"><ele>370.0</ele><time>2026-04-08T17:21:49.302Z</time></trkpt><trkpt lat="45.8287417" lon="8.9798751"><ele>370.0</ele><time>2026-04-08T17:21:50.306Z</time></trkpt><trkpt lat="45.8288104" lon="8.9799717"><ele>370.0</ele><time>2026-04-08T17:21:51.307Z</time></trkpt><trkpt lat="45.828889" lon="8.9800498"><ele>370.0</ele><time>2026-04-08T17:21:52.309Z</time></trkpt><trkpt lat="45.8289723" lon="8.9801216"><ele>368.8</ele><time>2026-04-08T17:21:53.301Z</time></trkpt><trkpt lat="45.8290574" lon="8.9801869"><ele>367.6</ele><time>2026-04-08T17:21:54.303Z</time></trkpt><trkpt lat="45.8291479" lon="8.9802284"><ele>366.4</ele><time>2026-04-08T17:21:55.308Z</time></trkpt><trkpt lat="45.8292489" lon="8.9802438"><ele>365.2</ele><time>2026-04-08T17:21:56.311Z</time></trkpt><trkpt lat="45.829356" lon="8.9802483"><ele>364.0</ele><time>2026-04-08T17:21:57.298Z</time></trkpt><trkpt lat="45.8294677" lon="8.9802471"><ele>364.0</ele><time>2026-04-08T17:21:58.3Z</time></trkpt><trkpt lat="45.8295756" lon="8.9802511"><ele>364.0</ele><time>2026-04-08T17:21:59.299Z</time></trkpt><trkpt lat="45.8296893" lon="8.9802485"><ele>364.0</ele><time>2026-04-08T17:22:00.307Z</time></trkpt><trkpt lat="45.8297972" lon="8.9802356"><ele>364.0</ele><time>2026-04-08T17:22:01.308Z</time></trkpt><trkpt lat="45.8298938" lon="8.980231"><ele>364.0</ele><time>2026-04-08T17:22:02.304Z</time></trkpt><trkpt lat="45.8299862" lon="8.9802327"><ele>364.0</ele><time>2026-04-08T17:22:03.294Z</time></trkpt><trkpt lat="45.8300738" lon="8.9802338"><ele>364.0</ele><time>2026-04-08T17:22:04.297Z</time></trkpt><trkpt lat="45.8301563" lon="8.9802698"><ele>364.0</ele><time>2026-04-08T17:22:05.305Z</time></trkpt><trkpt lat="45.8302296" lon="8.9803413"><ele>364.0</ele><time>2026-04-08T17:22:06.302Z</time></trkpt><trkpt lat="45.8302634" lon="8.9804911"><ele>364.0</ele><time>2026-04-08T17:22:07.315Z</time></trkpt><trkpt lat="45.8302457" lon="8.9806856"><ele>366.5</ele><time>2026-04-08T17:22:08.313Z</time></trkpt><trkpt lat="45.8302473" lon="8.9808595"><ele>369.0</ele><time>2026-04-08T17:22:09.294Z</time></trkpt><trkpt lat="45.8302462" lon="8.9810366"><ele>371.5</ele><time>2026-04-08T17:22:10.317Z</time></trkpt><trkpt lat="45.8302482" lon="8.9812008"><ele>374.0</ele><time>2026-04-08T17:22:11.291Z</time></trkpt><trkpt lat="45.8302613" lon="8.9813651"><ele>374.0</ele><time>2026-04-08T17:22:12.293Z</time></trkpt><trkpt lat="45.8302729" lon="8.9815246"><ele>374.0</ele><time>2026-04-08T17:22:13.314Z</time></trkpt><trkpt lat="45.8302801" lon="8.9816838"><ele>374.0</ele><time>2026-04-08T17:22:14.293Z</time></trkpt><trkpt lat="45.8302898" lon="8.9818389"><ele>374.0</ele><time>2026-04-08T17:22:15.305Z</time></trkpt><trkpt lat="45.8302959" lon="8.9819913"><ele>374.0</ele><time>2026-04-08T17:22:16.297Z</time></trkpt><trkpt lat="45.8302993" lon="8.9821431"><ele>373.4</ele><time>2026-04-08T17:22:17.297Z</time></trkpt><trkpt lat="45.8303041" lon="8.9822924"><ele>372.79999999999995</ele><time>2026-04-08T17:22:18.297Z</time></trkpt><trkpt lat="45.83031" lon="8.9824389"><ele>372.20000000000005</ele><time>2026-04-08T17:22:19.305Z</time></trkpt><trkpt lat="45.8303211" lon="8.9825835"><ele>371.6</ele><time>2026-04-08T17:22:20.304Z</time></trkpt><trkpt lat="45.8303301" lon="8.9827261"><ele>371.0</ele><time>2026-04-08T17:22:21.313Z</time></trkpt><trkpt lat="45.8303389" lon="8.9828662"><ele>370.8</ele><time>2026-04-08T17:22:22.302Z</time></trkpt><trkpt lat="45.8303462" lon="8.9830053"><ele>370.6</ele><time>2026-04-08T17:22:23.311Z</time></trkpt><trkpt lat="45.8303501" lon="8.9831447"><ele>370.4</ele><time>2026-04-08T17:22:24.313Z</time></trkpt><trkpt lat="45.8303534" lon="8.9832839"><ele>370.2</ele><time>2026-04-08T17:22:25.302Z</time></trkpt><trkpt lat="45.8303592" lon="8.9834248"><ele>370.0</ele><time>2026-04-08T17:22:26.316Z</time></trkpt><trkpt lat="45.830365" lon="8.9835656"><ele>369.4</ele><time>2026-04-08T17:22:27.306Z</time></trkpt><trkpt lat="45.8303698" lon="8.9837072"><ele>368.8</ele><time>2026-04-08T17:22:28.299Z</time></trkpt><trkpt lat="45.8303753" lon="8.9838493"><ele>368.20000000000005</ele><time>2026-04-08T17:22:29.311Z</time></trkpt><trkpt lat="45.8303855" lon="8.9839886"><ele>367.6</ele><time>2026-04-08T17:22:30.307Z</time></trkpt><trkpt lat="45.8304048" lon="8.9841268"><ele>367.0</ele><time>2026-04-08T17:22:31.287Z</time></trkpt><trkpt lat="45.8304251" lon="8.9842648"><ele>366.6</ele><time>2026-04-08T17:22:32.303Z</time></trkpt><trkpt lat="45.8304707" lon="8.9843993"><ele>366.20000000000005</ele><time>2026-04-08T17:22:33.291Z</time></trkpt><trkpt lat="45.830525" lon="8.9845257"><ele>365.8</ele><time>2026-04-08T17:22:34.302Z</time></trkpt><trkpt lat="45.8305787" lon="8.9846467"><ele>365.4</ele><time>2026-04-08T17:22:35.289Z</time></trkpt><trkpt lat="45.8306269" lon="8.9847695"><ele>365.0</ele><time>2026-04-08T17:22:36.295Z</time></trkpt><trkpt lat="45.830657" lon="8.9848881"><ele>365.0</ele><time>2026-04-08T17:22:37.303Z</time></trkpt><trkpt lat="45.8306811" lon="8.9850059"><ele>365.0</ele><time>2026-04-08T17:22:38.306Z</time></trkpt><trkpt lat="45.8307061" lon="8.9851187"><ele>365.0</ele><time>2026-04-08T17:22:39.297Z</time></trkpt><trkpt lat="45.8307323" lon="8.985228"><ele>365.0</ele><time>2026-04-08T17:22:40.29Z</time></trkpt><trkpt lat="45.8307662" lon="8.9853187"><ele>365.0</ele><time>2026-04-08T17:22:41.307Z</time></trkpt><trkpt lat="45.8308192" lon="8.9853772"><ele>365.0</ele><time>2026-04-08T17:22:42.293Z</time></trkpt><trkpt lat="45.8308876" lon="8.9853761"><ele>364.25</ele><time>2026-04-08T17:22:43.29Z</time></trkpt><trkpt lat="45.8309844" lon="8.9853753"><ele>363.5</ele><time>2026-04-08T17:22:44.301Z</time></trkpt><trkpt lat="45.8311126" lon="8.9853196"><ele>362.75</ele><time>2026-04-08T17:22:45.318Z</time></trkpt><trkpt lat="45.8312513" lon="8.9852794"><ele>362.0</ele><time>2026-04-08T17:22:46.299Z</time></trkpt><trkpt lat="45.831396" lon="8.9852303"><ele>362.0</ele><time>2026-04-08T17:22:47.291Z</time></trkpt><trkpt lat="45.8315295" lon="8.9851686"><ele>362.0</ele><time>2026-04-08T17:22:48.299Z</time></trkpt><trkpt lat="45.8316375" lon="8.9851074"><ele>362.0</ele><time>2026-04-08T17:22:49.308Z</time></trkpt><trkpt lat="45.8317293" lon="8.9850359"><ele>362.0</ele><time>2026-04-08T17:22:50.289Z</time></trkpt><trkpt lat="45.8318036" lon="8.9849601"><ele>361.83333333333337</ele><time>2026-04-08T17:22:51.291Z</time></trkpt><trkpt lat="45.8318708" lon="8.9849009"><ele>361.6666666666667</ele><time>2026-04-08T17:22:52.296Z</time></trkpt><trkpt lat="45.8319363" lon="8.9848854"><ele>361.5</ele><time>2026-04-08T17:22:53.298Z</time></trkpt><trkpt lat="45.8319989" lon="8.9849218"><ele>361.3333333333333</ele><time>2026-04-08T17:22:54.303Z</time></trkpt><trkpt lat="45.8320534" lon="8.9850117"><ele>361.16666666666663</ele><time>2026-04-08T17:22:55.311Z</time></trkpt><trkpt lat="45.832135" lon="8.9851052"><ele>361.0</ele><time>2026-04-08T17:22:56.298Z</time></trkpt><trkpt lat="45.8322321" lon="8.9852086"><ele>361.0</ele><time>2026-04-08T17:22:57.298Z</time></trkpt><trkpt lat="45.8323233" lon="8.9852787"><ele>361.0</ele><time>2026-04-08T17:22:58.313Z</time></trkpt><trkpt lat="45.8324202" lon="8.9853411"><ele>361.0</ele><time>2026-04-08T17:22:59.292Z</time></trkpt><trkpt lat="45.832525" lon="8.9853907"><ele>361.0</ele><time>2026-04-08T17:23:00.294Z</time></trkpt><trkpt lat="45.8326249" lon="8.9854215"><ele>361.0</ele><time>2026-04-08T17:23:01.306Z</time></trkpt><trkpt lat="45.8327287" lon="8.9854393"><ele>359.6</ele><time>2026-04-08T17:23:02.332Z</time></trkpt><trkpt lat="45.8328343" lon="8.9854643"><ele>358.20000000000005</ele><time>2026-04-08T17:23:03.308Z</time></trkpt><trkpt lat="45.8329396" lon="8.9854861"><ele>356.79999999999995</ele><time>2026-04-08T17:23:04.311Z</time></trkpt><trkpt lat="45.8330416" lon="8.9855104"><ele>355.4</ele><time>2026-04-08T17:23:05.318Z</time></trkpt><trkpt lat="45.8331431" lon="8.9855415"><ele>354.0</ele><time>2026-04-08T17:23:06.31Z</time></trkpt><trkpt lat="45.833237" lon="8.9855623"><ele>354.0</ele><time>2026-04-08T17:23:07.327Z</time></trkpt><trkpt lat="45.8333264" lon="8.9855685"><ele>354.0</ele><time>2026-04-08T17:23:08.322Z</time></trkpt><trkpt lat="45.8334053" lon="8.9855398"><ele>354.0</ele><time>2026-04-08T17:23:09.305Z</time></trkpt><trkpt lat="45.8334816" lon="8.9854774"><ele>354.0</ele><time>2026-04-08T17:23:10.314Z</time></trkpt><trkpt lat="45.8335591" lon="8.9853935"><ele>354.0</ele><time>2026-04-08T17:23:11.288Z</time></trkpt><trkpt lat="45.8336332" lon="8.9852973"><ele>353.6666666666667</ele><time>2026-04-08T17:23:12.304Z</time></trkpt><trkpt lat="45.8336971" lon="8.9851842"><ele>353.3333333333333</ele><time>2026-04-08T17:23:13.305Z</time></trkpt><trkpt lat="45.8337442" lon="8.9850593"><ele>353.0</ele><time>2026-04-08T17:23:14.293Z</time></trkpt><trkpt lat="45.8337773" lon="8.984945"><ele>352.66666666666663</ele><time>2026-04-08T17:23:15.307Z</time></trkpt><trkpt lat="45.8338001" lon="8.9848506"><ele>352.3333333333333</ele><time>2026-04-08T17:23:16.298Z</time></trkpt><trkpt lat="45.833873" lon="8.9849087"><ele>352.0</ele><time>2026-04-08T17:23:20.325Z</time></trkpt><trkpt lat="45.8338846" lon="8.9850406"><ele>350.6</ele><time>2026-04-08T17:23:21.291Z</time></trkpt><trkpt lat="45.8338693" lon="8.985171"><ele>349.20000000000005</ele><time>2026-04-08T17:23:22.301Z</time></trkpt><trkpt lat="45.8338507" lon="8.9852967"><ele>347.8</ele><time>2026-04-08T17:23:23.299Z</time></trkpt><trkpt lat="45.833813" lon="8.9854218"><ele>346.4</ele><time>2026-04-08T17:23:24.314Z</time></trkpt><trkpt lat="45.8337568" lon="8.9855513"><ele>345.0</ele><time>2026-04-08T17:23:25.305Z</time></trkpt><trkpt lat="45.8336909" lon="8.9856692"><ele>345.0</ele><time>2026-04-08T17:23:26.301Z</time></trkpt><trkpt lat="45.8336259" lon="8.9857801"><ele>345.0</ele><time>2026-04-08T17:23:27.299Z</time></trkpt><trkpt lat="45.8335616" lon="8.985882"><ele>345.0</ele><time>2026-04-08T17:23:28.309Z</time></trkpt><trkpt lat="45.8334914" lon="8.9859686"><ele>345.0</ele><time>2026-04-08T17:23:29.304Z</time></trkpt><trkpt lat="45.8334174" lon="8.9860377"><ele>345.0</ele><time>2026-04-08T17:23:30.286Z</time></trkpt><trkpt lat="45.8333446" lon="8.9860932"><ele>344.0</ele><time>2026-04-08T17:23:31.285Z</time></trkpt><trkpt lat="45.8332739" lon="8.9861421"><ele>343.0</ele><time>2026-04-08T17:23:32.307Z</time></trkpt><trkpt lat="45.8332163" lon="8.9861888"><ele>342.0</ele><time>2026-04-08T17:23:33.295Z</time></trkpt><trkpt lat="45.8331889" lon="8.9862902"><ele>341.0</ele><time>2026-04-08T17:23:35.288Z</time></trkpt><trkpt lat="45.8332562" lon="8.9863083"><ele>340.0</ele><time>2026-04-08T17:23:37.289Z</time></trkpt><trkpt lat="45.8334136" lon="8.9862313"><ele>340.0</ele><time>2026-04-08T17:23:39.301Z</time></trkpt><trkpt lat="45.8334706" lon="8.9861916"><ele>340.0</ele><time>2026-04-08T17:23:40.308Z</time></trkpt><trkpt lat="45.8335727" lon="8.9862184"><ele>340.0</ele><time>2026-04-08T17:23:42.288Z</time></trkpt><trkpt lat="45.8336046" lon="8.9863575"><ele>340.0</ele><time>2026-04-08T17:23:44.305Z</time></trkpt><trkpt lat="45.8335645" lon="8.9864593"><ele>340.0</ele><time>2026-04-08T17:23:45.292Z</time></trkpt><trkpt lat="45.8334938" lon="8.986635"><ele>336.3333333333333</ele><time>2026-04-08T17:23:46.294Z</time></trkpt><trkpt lat="45.8333832" lon="8.9868164"><ele>332.6666666666667</ele><time>2026-04-08T17:23:47.295Z</time></trkpt><trkpt lat="45.8332773" lon="8.987"><ele>329.0</ele><time>2026-04-08T17:23:48.288Z</time></trkpt><trkpt lat="45.8331785" lon="8.9871721"><ele>329.0</ele><time>2026-04-08T17:23:49.295Z</time></trkpt><trkpt lat="45.8331076" lon="8.9873533"><ele>329.0</ele><time>2026-04-08T17:23:50.297Z</time></trkpt><trkpt lat="45.8330407" lon="8.987527"><ele>329.0</ele><time>2026-04-08T17:23:51.291Z</time></trkpt><trkpt lat="45.832971" lon="8.9876912"><ele>329.0</ele><time>2026-04-08T17:23:52.299Z</time></trkpt><trkpt lat="45.8328931" lon="8.987843"><ele>326.75</ele><time>2026-04-08T17:23:53.298Z</time></trkpt><trkpt lat="45.8328161" lon="8.9879889"><ele>324.5</ele><time>2026-04-08T17:23:54.286Z</time></trkpt><trkpt lat="45.8327246" lon="8.9881179"><ele>322.25</ele><time>2026-04-08T17:23:55.301Z</time></trkpt><trkpt lat="45.8326097" lon="8.9882373"><ele>320.0</ele><time>2026-04-08T17:23:56.301Z</time></trkpt><trkpt lat="45.8325019" lon="8.9883671"><ele>316.5</ele><time>2026-04-08T17:23:57.29Z</time></trkpt><trkpt lat="45.8323972" lon="8.9884939"><ele>313.0</ele><time>2026-04-08T17:23:58.292Z</time></trkpt><trkpt lat="45.8322958" lon="8.9886233"><ele>309.5</ele><time>2026-04-08T17:23:59.295Z</time></trkpt><trkpt lat="45.8322067" lon="8.9887513"><ele>306.0</ele><time>2026-04-08T17:24:00.312Z</time></trkpt><trkpt lat="45.8321225" lon="8.988884"><ele>306.0</ele><time>2026-04-08T17:24:01.3Z</time></trkpt><trkpt lat="45.8320479" lon="8.9890098"><ele>306.0</ele><time>2026-04-08T17:24:02.319Z</time></trkpt><trkpt lat="45.8319651" lon="8.9891149"><ele>306.0</ele><time>2026-04-08T17:24:03.302Z</time></trkpt><trkpt lat="45.8318873" lon="8.9892027"><ele>306.0</ele><time>2026-04-08T17:24:04.287Z</time></trkpt><trkpt lat="45.83182" lon="8.9892819"><ele>306.0</ele><time>2026-04-08T17:24:05.308Z</time></trkpt><trkpt lat="45.8317698" lon="8.9893502"><ele>306.0</ele><time>2026-04-08T17:24:06.312Z</time></trkpt><trkpt lat="45.831748" lon="8.9894678"><ele>306.0</ele><time>2026-04-08T17:24:08.308Z</time></trkpt><trkpt lat="45.8317886" lon="8.9895524"><ele>306.0</ele><time>2026-04-08T17:24:10.296Z</time></trkpt><trkpt lat="45.8318646" lon="8.9895238"><ele>306.0</ele><time>2026-04-08T17:24:11.311Z</time></trkpt><trkpt lat="45.8319208" lon="8.9894329"><ele>306.0</ele><time>2026-04-08T17:24:12.303Z</time></trkpt><trkpt lat="45.8319837" lon="8.9893758"><ele>306.0</ele><time>2026-04-08T17:24:13.298Z</time></trkpt><trkpt lat="45.8320639" lon="8.9894695"><ele>302.40000000000003</ele><time>2026-04-08T17:24:15.306Z</time></trkpt><trkpt lat="45.8320602" lon="8.9895791"><ele>298.8</ele><time>2026-04-08T17:24:16.291Z</time></trkpt><trkpt lat="45.8320238" lon="8.9896982"><ele>295.20000000000005</ele><time>2026-04-08T17:24:17.289Z</time></trkpt><trkpt lat="45.8319683" lon="8.9898319"><ele>291.6</ele><time>2026-04-08T17:24:18.301Z</time></trkpt><trkpt lat="45.8319044" lon="8.9900116"><ele>288.0</ele><time>2026-04-08T17:24:19.305Z</time></trkpt><trkpt lat="45.8318357" lon="8.9902027"><ele>289.25</ele><time>2026-04-08T17:24:20.3Z</time></trkpt><trkpt lat="45.8317719" lon="8.9903792"><ele>290.5</ele><time>2026-04-08T17:24:21.313Z</time></trkpt><trkpt lat="45.8317126" lon="8.9905433"><ele>291.75</ele><time>2026-04-08T17:24:22.303Z</time></trkpt><trkpt lat="45.8316468" lon="8.9906947"><ele>293.0</ele><time>2026-04-08T17:24:23.305Z</time></trkpt><trkpt lat="45.8315684" lon="8.9908231"><ele>289.5</ele><time>2026-04-08T17:24:24.31Z</time></trkpt><trkpt lat="45.8314796" lon="8.9909325"><ele>286.0</ele><time>2026-04-08T17:24:25.299Z</time></trkpt><trkpt lat="45.8313981" lon="8.9910397"><ele>282.5</ele><time>2026-04-08T17:24:26.301Z</time></trkpt><trkpt lat="45.8313512" lon="8.9911833"><ele>279.0</ele><time>2026-04-08T17:24:27.31Z</time></trkpt><trkpt lat="45.8313117" lon="8.9913401"><ele>279.0</ele><time>2026-04-08T17:24:28.305Z</time></trkpt><trkpt lat="45.8312752" lon="8.9914972"><ele>279.0</ele><time>2026-04-08T17:24:29.304Z</time></trkpt><trkpt lat="45.8312372" lon="8.9916452"><ele>279.0</ele><time>2026-04-08T17:24:30.305Z</time></trkpt><trkpt lat="45.8312015" lon="8.9917878"><ele>279.0</ele><time>2026-04-08T17:24:31.309Z</time></trkpt><trkpt lat="45.831163" lon="8.9919299"><ele>279.0</ele><time>2026-04-08T17:24:32.301Z</time></trkpt><trkpt lat="45.8311257" lon="8.9920499"><ele>277.6666666666667</ele><time>2026-04-08T17:24:33.303Z</time></trkpt><trkpt lat="45.831088" lon="8.9921393"><ele>276.3333333333333</ele><time>2026-04-08T17:24:34.302Z</time></trkpt><trkpt lat="45.8310554" lon="8.9922179"><ele>275.0</ele><time>2026-04-08T17:24:35.336Z</time></trkpt><trkpt lat="45.8310776" lon="8.992323"><ele>273.66666666666663</ele><time>2026-04-08T17:24:39.311Z</time></trkpt><trkpt lat="45.8311453" lon="8.992353"><ele>272.3333333333333</ele><time>2026-04-08T17:24:41.31Z</time></trkpt><trkpt lat="45.8312067" lon="8.9923086"><ele>271.0</ele><time>2026-04-08T17:24:42.299Z</time></trkpt><trkpt lat="45.8313127" lon="8.9922214"><ele>271.0</ele><time>2026-04-08T17:24:43.312Z</time></trkpt><trkpt lat="45.8314363" lon="8.992082"><ele>271.0</ele><time>2026-04-08T17:24:44.311Z</time></trkpt><trkpt lat="45.8315689" lon="8.9919477"><ele>271.0</ele><time>2026-04-08T17:24:45.299Z</time></trkpt><trkpt lat="45.8316963" lon="8.991824"><ele>269.25</ele><time>2026-04-08T17:24:46.296Z</time></trkpt><trkpt lat="45.8318178" lon="8.9917116"><ele>267.5</ele><time>2026-04-08T17:24:47.299Z</time></trkpt><trkpt lat="45.8319365" lon="8.9916022"><ele>265.75</ele><time>2026-04-08T17:24:48.311Z</time></trkpt><trkpt lat="45.8320619" lon="8.9915403"><ele>264.0</ele><time>2026-04-08T17:24:49.299Z</time></trkpt><trkpt lat="45.8321887" lon="8.9915099"><ele>263.75</ele><time>2026-04-08T17:24:50.294Z</time></trkpt><trkpt lat="45.8323149" lon="8.9915061"><ele>263.5</ele><time>2026-04-08T17:24:51.308Z</time></trkpt><trkpt lat="45.8324441" lon="8.9915044"><ele>263.25</ele><time>2026-04-08T17:24:52.31Z</time></trkpt><trkpt lat="45.8325694" lon="8.9915657"><ele>263.0</ele><time>2026-04-08T17:24:53.297Z</time></trkpt><trkpt lat="45.8326855" lon="8.9916658"><ele>262.0</ele><time>2026-04-08T17:24:54.312Z</time></trkpt><trkpt lat="45.8327967" lon="8.9917947"><ele>261.0</ele><time>2026-04-08T17:24:55.31Z</time></trkpt><trkpt lat="45.8329002" lon="8.9919421"><ele>260.0</ele><time>2026-04-08T17:24:56.288Z</time></trkpt><trkpt lat="45.8329912" lon="8.9920972"><ele>259.0</ele><time>2026-04-08T17:24:57.309Z</time></trkpt><trkpt lat="45.8330825" lon="8.9922467"><ele>259.0</ele><time>2026-04-08T17:24:58.291Z</time></trkpt><trkpt lat="45.833178" lon="8.9923967"><ele>259.0</ele><time>2026-04-08T17:24:59.291Z</time></trkpt><trkpt lat="45.8332716" lon="8.9925432"><ele>259.0</ele><time>2026-04-08T17:25:00.319Z</time></trkpt><trkpt lat="45.8333566" lon="8.9926822"><ele>259.0</ele><time>2026-04-08T17:25:01.307Z</time></trkpt><trkpt lat="45.8334394" lon="8.992817"><ele>258.5</ele><time>2026-04-08T17:25:02.296Z</time></trkpt><trkpt lat="45.8335225" lon="8.9929529"><ele>258.0</ele><time>2026-04-08T17:25:03.29Z</time></trkpt><trkpt lat="45.8336022" lon="8.9930883"><ele>257.5</ele><time>2026-04-08T17:25:04.309Z</time></trkpt><trkpt lat="45.8336766" lon="8.9932177"><ele>257.0</ele><time>2026-04-08T17:25:05.315Z</time></trkpt><trkpt lat="45.8337411" lon="8.993346"><ele>256.2</ele><time>2026-04-08T17:25:06.3Z</time></trkpt><trkpt lat="45.8337961" lon="8.9934793"><ele>255.39999999999998</ele><time>2026-04-08T17:25:07.301Z</time></trkpt><trkpt lat="45.8338444" lon="8.9936082"><ele>254.60000000000002</ele><time>2026-04-08T17:25:08.32Z</time></trkpt><trkpt lat="45.8338892" lon="8.9937233"><ele>253.8</ele><time>2026-04-08T17:25:09.32Z</time></trkpt><trkpt lat="45.8339306" lon="8.9938266"><ele>253.0</ele><time>2026-04-08T17:25:10.303Z</time></trkpt><trkpt lat="45.8339659" lon="8.9939203"><ele>252.99999999999997</ele><time>2026-04-08T17:25:11.291Z</time></trkpt><trkpt lat="45.8340008" lon="8.9940142"><ele>253.0</ele><time>2026-04-08T17:25:12.31Z</time></trkpt><trkpt lat="45.8340376" lon="8.9941092"><ele>253.0</ele><time>2026-04-08T17:25:13.294Z</time></trkpt><trkpt lat="45.8340799" lon="8.9942072"><ele>253.0</ele><time>2026-04-08T17:25:14.311Z</time></trkpt><trkpt lat="45.834126" lon="8.994309"><ele>252.99999999999997</ele><time>2026-04-08T17:25:15.303Z</time></trkpt><trkpt lat="45.8341745" lon="8.994418"><ele>253.0</ele><time>2026-04-08T17:25:16.309Z</time></trkpt><trkpt lat="45.8342188" lon="8.9945352"><ele>253.0</ele><time>2026-04-08T17:25:17.3Z</time></trkpt><trkpt lat="45.8342595" lon="8.9946596"><ele>253.0</ele><time>2026-04-08T17:25:18.296Z</time></trkpt><trkpt lat="45.8342975" lon="8.9947892"><ele>253.0</ele><time>2026-04-08T17:25:19.299Z</time></trkpt><trkpt lat="45.8343368" lon="8.994924"><ele>253.0</ele><time>2026-04-08T17:25:20.302Z</time></trkpt><trkpt lat="45.8343808" lon="8.9950716"><ele>253.0</ele><time>2026-04-08T17:25:21.302Z</time></trkpt><trkpt lat="45.8344255" lon="8.9952338"><ele>252.5</ele><time>2026-04-08T17:25:22.302Z</time></trkpt><trkpt lat="45.8344697" lon="8.995413"><ele>252.0</ele><time>2026-04-08T17:25:23.31Z</time></trkpt><trkpt lat="45.8345107" lon="8.9956046"><ele>251.5</ele><time>2026-04-08T17:25:24.305Z</time></trkpt><trkpt lat="45.8345526" lon="8.9957966"><ele>251.0</ele><time>2026-04-08T17:25:25.3Z</time></trkpt><trkpt lat="45.8345944" lon="8.9959894"><ele>250.25</ele><time>2026-04-08T17:25:26.3Z</time></trkpt><trkpt lat="45.8346352" lon="8.996172"><ele>249.5</ele><time>2026-04-08T17:25:27.31Z</time></trkpt><trkpt lat="45.8346722" lon="8.9963417"><ele>248.75</ele><time>2026-04-08T17:25:28.305Z</time></trkpt><trkpt lat="45.8347064" lon="8.9964998"><ele>248.0</ele><time>2026-04-08T17:25:29.299Z</time></trkpt><trkpt lat="45.8347375" lon="8.9966378"><ele>248.50000000000003</ele><time>2026-04-08T17:25:30.304Z</time></trkpt><trkpt lat="45.8347665" lon="8.9967659"><ele>249.0</ele><time>2026-04-08T17:25:31.319Z</time></trkpt><trkpt lat="45.8347944" lon="8.9968786"><ele>249.5</ele><time>2026-04-08T17:25:32.307Z</time></trkpt><trkpt lat="45.8348248" lon="8.9969762"><ele>250.0</ele><time>2026-04-08T17:25:33.31Z</time></trkpt><trkpt lat="45.8348556" lon="8.9970623"><ele>250.50000000000003</ele><time>2026-04-08T17:25:34.304Z</time></trkpt><trkpt lat="45.8349093" lon="8.9972156"><ele>251.0</ele><time>2026-04-08T17:25:36.305Z</time></trkpt><trkpt lat="45.8349575" lon="8.9973623"><ele>251.0</ele><time>2026-04-08T17:25:38.322Z</time></trkpt><trkpt lat="45.8349896" lon="8.9974832"><ele>251.00000000000003</ele><time>2026-04-08T17:25:40.305Z</time></trkpt><trkpt lat="45.8350212" lon="8.9975649"><ele>251.00000000000003</ele><time>2026-04-08T17:25:46.299Z</time></trkpt><trkpt lat="45.835099" lon="8.9976342"><ele>251.0</ele><time>2026-04-08T17:25:48.294Z</time></trkpt><trkpt lat="45.8351747" lon="8.9976638"><ele>251.0</ele><time>2026-04-08T17:25:49.299Z</time></trkpt><trkpt lat="45.8353983" lon="8.9976998"><ele>250.25</ele><time>2026-04-08T17:25:51.29Z</time></trkpt><trkpt lat="45.8355281" lon="8.9977172"><ele>249.5</ele><time>2026-04-08T17:25:52.313Z</time></trkpt><trkpt lat="45.8356596" lon="8.9977393"><ele>248.75</ele><time>2026-04-08T17:25:53.298Z</time></trkpt><trkpt lat="45.8357907" lon="8.9977636"><ele>248.0</ele><time>2026-04-08T17:25:54.299Z</time></trkpt><trkpt lat="45.835924" lon="8.9977871"><ele>248.25</ele><time>2026-04-08T17:25:55.299Z</time></trkpt><trkpt lat="45.8360606" lon="8.9978075"><ele>248.5</ele><time>2026-04-08T17:25:56.303Z</time></trkpt><trkpt lat="45.8361972" lon="8.9978275"><ele>248.75</ele><time>2026-04-08T17:25:57.289Z</time></trkpt><trkpt lat="45.8363307" lon="8.9978433"><ele>249.0</ele><time>2026-04-08T17:25:58.3Z</time></trkpt><trkpt lat="45.8364647" lon="8.9978566"><ele>249.0</ele><time>2026-04-08T17:25:59.309Z</time></trkpt><trkpt lat="45.8365985" lon="8.9978644"><ele>249.0</ele><time>2026-04-08T17:26:00.328Z</time></trkpt><trkpt lat="45.8367354" lon="8.9978709"><ele>249.0</ele><time>2026-04-08T17:26:01.306Z</time></trkpt><trkpt lat="45.8368728" lon="8.9978805"><ele>249.0</ele><time>2026-04-08T17:26:02.311Z</time></trkpt><trkpt lat="45.8370108" lon="8.9978896"><ele>249.0</ele><time>2026-04-08T17:26:03.326Z</time></trkpt><trkpt lat="45.8371506" lon="8.9978981"><ele>249.0</ele><time>2026-04-08T17:26:04.301Z</time></trkpt><trkpt lat="45.8372907" lon="8.9979063"><ele>249.0</ele><time>2026-04-08T17:26:05.291Z</time></trkpt><trkpt lat="45.8374306" lon="8.9979144"><ele>249.0</ele><time>2026-04-08T17:26:06.308Z</time></trkpt><trkpt lat="45.8375699" lon="8.9979224"><ele>249.25</ele><time>2026-04-08T17:26:07.322Z</time></trkpt><trkpt lat="45.8377098" lon="8.9979267"><ele>249.5</ele><time>2026-04-08T17:26:08.31Z</time></trkpt><trkpt lat="45.8378506" lon="8.9979324"><ele>249.75</ele><time>2026-04-08T17:26:09.291Z</time></trkpt><trkpt lat="45.8379917" lon="8.9979394"><ele>250.0</ele><time>2026-04-08T17:26:10.316Z</time></trkpt><trkpt lat="45.8381316" lon="8.9979466"><ele>250.0</ele><time>2026-04-08T17:26:11.301Z</time></trkpt><trkpt lat="45.8382693" lon="8.9979538"><ele>250.0</ele><time>2026-04-08T17:26:12.314Z</time></trkpt><trkpt lat="45.8384052" lon="8.9979608"><ele>250.0</ele><time>2026-04-08T17:26:13.312Z</time></trkpt><trkpt lat="45.8385385" lon="8.9979682"><ele>250.0</ele><time>2026-04-08T17:26:14.307Z</time></trkpt><trkpt lat="45.8386678" lon="8.9979757"><ele>250.0</ele><time>2026-04-08T17:26:15.304Z</time></trkpt><trkpt lat="45.8387944" lon="8.9979811"><ele>250.0</ele><time>2026-04-08T17:26:16.304Z</time></trkpt><trkpt lat="45.838919" lon="8.9979866"><ele>250.0</ele><time>2026-04-08T17:26:17.301Z</time></trkpt><trkpt lat="45.8390403" lon="8.9979944"><ele>250.0</ele><time>2026-04-08T17:26:18.308Z</time></trkpt><trkpt lat="45.8391523" lon="8.9980047"><ele>249.99999999999997</ele><time>2026-04-08T17:26:19.315Z</time></trkpt><trkpt lat="45.8392534" lon="8.9980127"><ele>250.0</ele><time>2026-04-08T17:26:20.295Z</time></trkpt><trkpt lat="45.8393441" lon="8.9980168"><ele>250.0</ele><time>2026-04-08T17:26:21.299Z</time></trkpt><trkpt lat="45.8394214" lon="8.9980267"><ele>250.0</ele><time>2026-04-08T17:26:22.297Z</time></trkpt><trkpt lat="45.8394867" lon="8.9980457"><ele>249.99999999999997</ele><time>2026-04-08T17:26:23.294Z</time></trkpt><trkpt lat="45.8395462" lon="8.9980918"><ele>250.0</ele><time>2026-04-08T17:26:24.313Z</time></trkpt><trkpt lat="45.8395941" lon="8.9981715"><ele>250.4</ele><time>2026-04-08T17:26:25.31Z</time></trkpt><trkpt lat="45.8396444" lon="8.9982575"><ele>250.8</ele><time>2026-04-08T17:26:26.298Z</time></trkpt><trkpt lat="45.8396418" lon="8.9983914"><ele>251.2</ele><time>2026-04-08T17:26:27.305Z</time></trkpt><trkpt lat="45.8396176" lon="8.9985425"><ele>251.6</ele><time>2026-04-08T17:26:28.288Z</time></trkpt><trkpt lat="45.8395798" lon="8.9987149"><ele>252.0</ele><time>2026-04-08T17:26:29.291Z</time></trkpt><trkpt lat="45.8395343" lon="8.9989085"><ele>252.0</ele><time>2026-04-08T17:26:30.311Z</time></trkpt><trkpt lat="45.8394868" lon="8.9991078"><ele>252.0</ele><time>2026-04-08T17:26:31.307Z</time></trkpt><trkpt lat="45.8394379" lon="8.9993129"><ele>252.0</ele><time>2026-04-08T17:26:32.308Z</time></trkpt><trkpt lat="45.8393893" lon="8.9995182"><ele>252.0</ele><time>2026-04-08T17:26:33.307Z</time></trkpt><trkpt lat="45.8393358" lon="8.9997109"><ele>251.25</ele><time>2026-04-08T17:26:34.297Z</time></trkpt><trkpt lat="45.8392861" lon="8.9999019"><ele>250.5</ele><time>2026-04-08T17:26:35.305Z</time></trkpt><trkpt lat="45.839241" lon="9.0000904"><ele>249.75</ele><time>2026-04-08T17:26:36.294Z</time></trkpt><trkpt lat="45.839194" lon="9.0002832"><ele>249.0</ele><time>2026-04-08T17:26:37.305Z</time></trkpt><trkpt lat="45.8391446" lon="9.0004771"><ele>249.0</ele><time>2026-04-08T17:26:38.293Z</time></trkpt><trkpt lat="45.8390976" lon="9.0006707"><ele>249.0</ele><time>2026-04-08T17:26:39.303Z</time></trkpt><trkpt lat="45.8390501" lon="9.0008644"><ele>249.0</ele><time>2026-04-08T17:26:40.29Z</time></trkpt><trkpt lat="45.8389995" lon="9.0010613"><ele>249.0</ele><time>2026-04-08T17:26:41.304Z</time></trkpt><trkpt lat="45.8389496" lon="9.0012595"><ele>248.75</ele><time>2026-04-08T17:26:42.311Z</time></trkpt><trkpt lat="45.8388985" lon="9.0014583"><ele>248.5</ele><time>2026-04-08T17:26:43.315Z</time></trkpt><trkpt lat="45.8388468" lon="9.0016581"><ele>248.25</ele><time>2026-04-08T17:26:44.301Z</time></trkpt><trkpt lat="45.8387943" lon="9.0018606"><ele>248.0</ele><time>2026-04-08T17:26:45.302Z</time></trkpt><trkpt lat="45.8387426" lon="9.002064"><ele>248.0</ele><time>2026-04-08T17:26:46.313Z</time></trkpt><trkpt lat="45.8386912" lon="9.0022646"><ele>248.0</ele><time>2026-04-08T17:26:47.318Z</time></trkpt><trkpt lat="45.8386435" lon="9.0024557"><ele>248.0</ele><time>2026-04-08T17:26:48.3Z</time></trkpt><trkpt lat="45.8385985" lon="9.0026332"><ele>248.0</ele><time>2026-04-08T17:26:49.317Z</time></trkpt><trkpt lat="45.8385558" lon="9.0027825"><ele>248.2</ele><time>2026-04-08T17:26:50.299Z</time></trkpt><trkpt lat="45.8385063" lon="9.0029007"><ele>248.4</ele><time>2026-04-08T17:26:51.304Z</time></trkpt><trkpt lat="45.8384558" lon="9.0030029"><ele>248.59999999999997</ele><time>2026-04-08T17:26:52.297Z</time></trkpt><trkpt lat="45.838419" lon="9.003126"><ele>248.79999999999998</ele><time>2026-04-08T17:26:53.309Z</time></trkpt><trkpt lat="45.8383824" lon="9.003248"><ele>249.0</ele><time>2026-04-08T17:26:54.301Z</time></trkpt><trkpt lat="45.8383743" lon="9.0033978"><ele>248.25</ele><time>2026-04-08T17:26:55.303Z</time></trkpt><trkpt lat="45.8383441" lon="9.0035482"><ele>247.5</ele><time>2026-04-08T17:26:56.306Z</time></trkpt><trkpt lat="45.8382982" lon="9.0037133"><ele>246.75</ele><time>2026-04-08T17:26:57.313Z</time></trkpt><trkpt lat="45.8382502" lon="9.0038962"><ele>246.0</ele><time>2026-04-08T17:26:58.303Z</time></trkpt><trkpt lat="45.8381946" lon="9.0041097"><ele>246.0</ele><time>2026-04-08T17:26:59.305Z</time></trkpt><trkpt lat="45.8381416" lon="9.0043238"><ele>246.0</ele><time>2026-04-08T17:27:00.302Z</time></trkpt><trkpt lat="45.8380883" lon="9.0045385"><ele>246.0</ele><time>2026-04-08T17:27:01.302Z</time></trkpt><trkpt lat="45.8380357" lon="9.0047467"><ele>246.0</ele><time>2026-04-08T17:27:02.297Z</time></trkpt><trkpt lat="45.8379819" lon="9.0049597"><ele>246.0</ele><time>2026-04-08T17:27:03.313Z</time></trkpt><trkpt lat="45.8379311" lon="9.0051677"><ele>246.0</ele><time>2026-04-08T17:27:04.303Z</time></trkpt><trkpt lat="45.8378795" lon="9.005378"><ele>246.0</ele><time>2026-04-08T17:27:05.302Z</time></trkpt><trkpt lat="45.8378273" lon="9.005587"><ele>246.0</ele><time>2026-04-08T17:27:06.307Z</time></trkpt><trkpt lat="45.837775" lon="9.0057941"><ele>246.0</ele><time>2026-04-08T17:27:07.305Z</time></trkpt><trkpt lat="45.8377232" lon="9.005999"><ele>246.33333333333331</ele><time>2026-04-08T17:27:08.305Z</time></trkpt><trkpt lat="45.8376717" lon="9.0062039"><ele>246.66666666666666</ele><time>2026-04-08T17:27:09.313Z</time></trkpt><trkpt lat="45.8376203" lon="9.0064067"><ele>247.0</ele><time>2026-04-08T17:27:10.305Z</time></trkpt><trkpt lat="45.8375687" lon="9.006609"><ele>246.25</ele><time>2026-04-08T17:27:11.301Z</time></trkpt><trkpt lat="45.83752" lon="9.0068116"><ele>245.5</ele><time>2026-04-08T17:27:12.306Z</time></trkpt><trkpt lat="45.8374704" lon="9.007014"><ele>244.75</ele><time>2026-04-08T17:27:13.305Z</time></trkpt><trkpt lat="45.83742" lon="9.0072154"><ele>244.0</ele><time>2026-04-08T17:27:14.291Z</time></trkpt><trkpt lat="45.8373688" lon="9.0074168"><ele>243.75</ele><time>2026-04-08T17:27:15.281Z</time></trkpt><trkpt lat="45.8373176" lon="9.0076181"><ele>243.5</ele><time>2026-04-08T17:27:16.309Z</time></trkpt><trkpt lat="45.8372661" lon="9.0078177"><ele>243.25</ele><time>2026-04-08T17:27:17.292Z</time></trkpt><trkpt lat="45.8372139" lon="9.0080161"><ele>243.0</ele><time>2026-04-08T17:27:18.29Z</time></trkpt><trkpt lat="45.8371612" lon="9.0082156"><ele>243.25</ele><time>2026-04-08T17:27:19.31Z</time></trkpt><trkpt lat="45.8371093" lon="9.0084136"><ele>243.5</ele><time>2026-04-08T17:27:20.3Z</time></trkpt><trkpt lat="45.8370589" lon="9.0086155"><ele>243.75</ele><time>2026-04-08T17:27:21.296Z</time></trkpt><trkpt lat="45.8370091" lon="9.0088219"><ele>244.0</ele><time>2026-04-08T17:27:22.313Z</time></trkpt><trkpt lat="45.8369575" lon="9.0090285"><ele>244.0</ele><time>2026-04-08T17:27:23.31Z</time></trkpt><trkpt lat="45.8369047" lon="9.0092369"><ele>244.0</ele><time>2026-04-08T17:27:24.286Z</time></trkpt><trkpt lat="45.8368521" lon="9.0094465"><ele>244.0</ele><time>2026-04-08T17:27:25.314Z</time></trkpt><trkpt lat="45.8367978" lon="9.0096564"><ele>243.66666666666666</ele><time>2026-04-08T17:27:26.293Z</time></trkpt><trkpt lat="45.8367437" lon="9.0098674"><ele>243.33333333333331</ele><time>2026-04-08T17:27:27.293Z</time></trkpt><trkpt lat="45.8366905" lon="9.0100803"><ele>243.0</ele><time>2026-04-08T17:27:28.314Z</time></trkpt><trkpt lat="45.8366367" lon="9.0102924"><ele>243.0</ele><time>2026-04-08T17:27:29.295Z</time></trkpt><trkpt lat="45.8365832" lon="9.0105058"><ele>243.0</ele><time>2026-04-08T17:27:30.295Z</time></trkpt><trkpt lat="45.8365299" lon="9.0107194"><ele>243.0</ele><time>2026-04-08T17:27:31.306Z</time></trkpt><trkpt lat="45.8364764" lon="9.0109324"><ele>242.66666666666669</ele><time>2026-04-08T17:27:32.314Z</time></trkpt><trkpt lat="45.836423" lon="9.0111435"><ele>242.33333333333334</ele><time>2026-04-08T17:27:33.322Z</time></trkpt><trkpt lat="45.8363711" lon="9.0113539"><ele>242.0</ele><time>2026-04-08T17:27:34.313Z</time></trkpt><trkpt lat="45.8363191" lon="9.0115608"><ele>243.0</ele><time>2026-04-08T17:27:35.305Z</time></trkpt><trkpt lat="45.8362665" lon="9.0117651"><ele>244.0</ele><time>2026-04-08T17:27:36.32Z</time></trkpt><trkpt lat="45.8362131" lon="9.0119676"><ele>245.0</ele><time>2026-04-08T17:27:37.302Z</time></trkpt><trkpt lat="45.8361617" lon="9.0121689"><ele>245.0</ele><time>2026-04-08T17:27:38.299Z</time></trkpt><trkpt lat="45.8361118" lon="9.01237"><ele>245.0</ele><time>2026-04-08T17:27:39.317Z</time></trkpt><trkpt lat="45.8360633" lon="9.0125654"><ele>245.0</ele><time>2026-04-08T17:27:40.3Z</time></trkpt><trkpt lat="45.8360175" lon="9.0127467"><ele>245.0</ele><time>2026-04-08T17:27:41.301Z</time></trkpt><trkpt lat="45.8359751" lon="9.0129168"><ele>244.6</ele><time>2026-04-08T17:27:42.306Z</time></trkpt><trkpt lat="45.8359364" lon="9.0130728"><ele>244.2</ele><time>2026-04-08T17:27:43.323Z</time></trkpt><trkpt lat="45.8359" lon="9.0132156"><ele>243.8</ele><time>2026-04-08T17:27:44.303Z</time></trkpt><trkpt lat="45.8358664" lon="9.0133525"><ele>243.4</ele><time>2026-04-08T17:27:45.307Z</time></trkpt><trkpt lat="45.8358352" lon="9.0134802"><ele>243.0</ele><time>2026-04-08T17:27:46.294Z</time></trkpt><trkpt lat="45.835806" lon="9.0135984"><ele>243.0</ele><time>2026-04-08T17:27:47.323Z</time></trkpt><trkpt lat="45.8357786" lon="9.013706"><ele>243.0</ele><time>2026-04-08T17:27:48.294Z</time></trkpt><trkpt lat="45.8357512" lon="9.0138134"><ele>243.0</ele><time>2026-04-08T17:27:49.318Z</time></trkpt><trkpt lat="45.8357222" lon="9.0139253"><ele>243.0</ele><time>2026-04-08T17:27:50.308Z</time></trkpt><trkpt lat="45.8356911" lon="9.014045"><ele>243.0</ele><time>2026-04-08T17:27:51.292Z</time></trkpt><trkpt lat="45.8356574" lon="9.0141721"><ele>243.0</ele><time>2026-04-08T17:27:52.302Z</time></trkpt><trkpt lat="45.8356212" lon="9.0143059"><ele>243.0</ele><time>2026-04-08T17:27:53.304Z</time></trkpt><trkpt lat="45.8355839" lon="9.0144481"><ele>243.0</ele><time>2026-04-08T17:27:54.289Z</time></trkpt><trkpt lat="45.8355466" lon="9.0145968"><ele>243.0</ele><time>2026-04-08T17:27:55.303Z</time></trkpt><trkpt lat="45.8355068" lon="9.014754"><ele>243.0</ele><time>2026-04-08T17:27:56.305Z</time></trkpt><trkpt lat="45.8354663" lon="9.014916"><ele>242.8</ele><time>2026-04-08T17:27:57.306Z</time></trkpt><trkpt lat="45.8354271" lon="9.0150783"><ele>242.60000000000002</ele><time>2026-04-08T17:27:58.291Z</time></trkpt><trkpt lat="45.8353914" lon="9.0152299"><ele>242.39999999999998</ele><time>2026-04-08T17:27:59.3Z</time></trkpt><trkpt lat="45.8353598" lon="9.0153725"><ele>242.2</ele><time>2026-04-08T17:28:00.294Z</time></trkpt><trkpt lat="45.8353308" lon="9.0155144"><ele>242.0</ele><time>2026-04-08T17:28:01.318Z</time></trkpt><trkpt lat="45.835304" lon="9.0156603"><ele>242.0</ele><time>2026-04-08T17:28:02.315Z</time></trkpt><trkpt lat="45.8352771" lon="9.015812"><ele>242.0</ele><time>2026-04-08T17:28:03.312Z</time></trkpt><trkpt lat="45.835249" lon="9.0159623"><ele>242.0</ele><time>2026-04-08T17:28:04.304Z</time></trkpt><trkpt lat="45.8352232" lon="9.0161023"><ele>242.0</ele><time>2026-04-08T17:28:05.314Z</time></trkpt><trkpt lat="45.8351979" lon="9.0162381"><ele>242.0</ele><time>2026-04-08T17:28:06.301Z</time></trkpt><trkpt lat="45.8351723" lon="9.0163708"><ele>242.0</ele><time>2026-04-08T17:28:07.304Z</time></trkpt><trkpt lat="45.8351478" lon="9.0165076"><ele>242.0</ele><time>2026-04-08T17:28:08.314Z</time></trkpt><trkpt lat="45.8351251" lon="9.0166523"><ele>242.0</ele><time>2026-04-08T17:28:09.305Z</time></trkpt><trkpt lat="45.8351008" lon="9.0168084"><ele>242.0</ele><time>2026-04-08T17:28:10.295Z</time></trkpt><trkpt lat="45.8350752" lon="9.0169573"><ele>242.0</ele><time>2026-04-08T17:28:11.293Z</time></trkpt><trkpt lat="45.8350489" lon="9.0170887"><ele>242.33333333333334</ele><time>2026-04-08T17:28:12.302Z</time></trkpt><trkpt lat="45.8350214" lon="9.0172122"><ele>242.66666666666669</ele><time>2026-04-08T17:28:13.287Z</time></trkpt><trkpt lat="45.8349966" lon="9.0173238"><ele>243.0</ele><time>2026-04-08T17:28:14.305Z</time></trkpt><trkpt lat="45.8349802" lon="9.0174328"><ele>243.33333333333331</ele><time>2026-04-08T17:28:15.319Z</time></trkpt><trkpt lat="45.8349526" lon="9.0175395"><ele>243.66666666666666</ele><time>2026-04-08T17:28:16.309Z</time></trkpt><trkpt lat="45.8349183" lon="9.0176384"><ele>244.0</ele><time>2026-04-08T17:28:17.319Z</time></trkpt><trkpt lat="45.8348933" lon="9.0177244"><ele>244.0</ele><time>2026-04-08T17:28:18.305Z</time></trkpt><trkpt lat="45.8348396" lon="9.0178692"><ele>244.0</ele><time>2026-04-08T17:28:20.305Z</time></trkpt><trkpt lat="45.8347928" lon="9.0180264"><ele>244.0</ele><time>2026-04-08T17:28:22.305Z</time></trkpt><trkpt lat="45.8348132" lon="9.0181847"><ele>244.0</ele><time>2026-04-08T17:28:24.292Z</time></trkpt><trkpt lat="45.834953" lon="9.0182474"><ele>244.0</ele><time>2026-04-08T17:28:26.314Z</time></trkpt><trkpt lat="45.8350627" lon="9.0182631"><ele>243.99999999999997</ele><time>2026-04-08T17:28:27.299Z</time></trkpt><trkpt lat="45.8351706" lon="9.0182957"><ele>243.99999999999997</ele><time>2026-04-08T17:28:28.289Z</time></trkpt><trkpt lat="45.8352713" lon="9.018346"><ele>244.0</ele><time>2026-04-08T17:28:29.309Z</time></trkpt><trkpt lat="45.8353617" lon="9.0184153"><ele>244.0</ele><time>2026-04-08T17:28:30.295Z</time></trkpt><trkpt lat="45.8354489" lon="9.0184763"><ele>243.83333333333331</ele><time>2026-04-08T17:28:31.3Z</time></trkpt><trkpt lat="45.8355297" lon="9.018538"><ele>243.66666666666666</ele><time>2026-04-08T17:28:32.307Z</time></trkpt><trkpt lat="45.8356092" lon="9.0185998"><ele>243.5</ele><time>2026-04-08T17:28:33.301Z</time></trkpt><trkpt lat="45.8356859" lon="9.0186607"><ele>243.33333333333331</ele><time>2026-04-08T17:28:34.295Z</time></trkpt><trkpt lat="45.8357582" lon="9.0187272"><ele>243.16666666666666</ele><time>2026-04-08T17:28:35.304Z</time></trkpt><trkpt lat="45.8358315" lon="9.018792"><ele>243.0</ele><time>2026-04-08T17:28:36.32Z</time></trkpt><trkpt lat="45.8359098" lon="9.0188564"><ele>242.8</ele><time>2026-04-08T17:28:37.303Z</time></trkpt><trkpt lat="45.835991" lon="9.0189237"><ele>242.60000000000002</ele><time>2026-04-08T17:28:38.299Z</time></trkpt><trkpt lat="45.8360747" lon="9.0189962"><ele>242.39999999999998</ele><time>2026-04-08T17:28:39.303Z</time></trkpt><trkpt lat="45.8361621" lon="9.0190703"><ele>242.2</ele><time>2026-04-08T17:28:40.306Z</time></trkpt><trkpt lat="45.8362508" lon="9.0191451"><ele>242.0</ele><time>2026-04-08T17:28:41.315Z</time></trkpt><trkpt lat="45.8363431" lon="9.0192227"><ele>242.0</ele><time>2026-04-08T17:28:42.304Z</time></trkpt><trkpt lat="45.8364363" lon="9.0193"><ele>242.0</ele><time>2026-04-08T17:28:43.301Z</time></trkpt><trkpt lat="45.8365301" lon="9.0193822"><ele>242.0</ele><time>2026-04-08T17:28:44.317Z</time></trkpt><trkpt lat="45.8366254" lon="9.0194648"><ele>242.0</ele><time>2026-04-08T17:28:45.3Z</time></trkpt><trkpt lat="45.8367225" lon="9.0195479"><ele>242.0</ele><time>2026-04-08T17:28:46.306Z</time></trkpt><trkpt lat="45.8368229" lon="9.0196318"><ele>242.2</ele><time>2026-04-08T17:28:47.305Z</time></trkpt><trkpt lat="45.8369246" lon="9.0197171"><ele>242.39999999999998</ele><time>2026-04-08T17:28:48.303Z</time></trkpt><trkpt lat="45.8370232" lon="9.0198013"><ele>242.60000000000002</ele><time>2026-04-08T17:28:49.31Z</time></trkpt><trkpt lat="45.8371176" lon="9.0198799"><ele>242.8</ele><time>2026-04-08T17:28:50.291Z</time></trkpt><trkpt lat="45.8372111" lon="9.0199558"><ele>243.0</ele><time>2026-04-08T17:28:51.313Z</time></trkpt><trkpt lat="45.8373067" lon="9.0200318"><ele>243.25</ele><time>2026-04-08T17:28:52.296Z</time></trkpt><trkpt lat="45.8374059" lon="9.0201067"><ele>243.5</ele><time>2026-04-08T17:28:53.319Z</time></trkpt><trkpt lat="45.8375089" lon="9.020182"><ele>243.75</ele><time>2026-04-08T17:28:54.303Z</time></trkpt><trkpt lat="45.837612" lon="9.0202555"><ele>244.0</ele><time>2026-04-08T17:28:55.331Z</time></trkpt><trkpt lat="45.8377098" lon="9.0203277"><ele>244.6</ele><time>2026-04-08T17:28:56.293Z</time></trkpt><trkpt lat="45.8377917" lon="9.0203999"><ele>245.2</ele><time>2026-04-08T17:28:57.3Z</time></trkpt><trkpt lat="45.8378819" lon="9.0204683"><ele>245.79999999999998</ele><time>2026-04-08T17:28:58.304Z</time></trkpt><trkpt lat="45.8379734" lon="9.0205407"><ele>246.39999999999998</ele><time>2026-04-08T17:28:59.296Z</time></trkpt><trkpt lat="45.8380748" lon="9.0206052"><ele>247.0</ele><time>2026-04-08T17:29:00.313Z</time></trkpt><trkpt lat="45.8381699" lon="9.0206578"><ele>246.99999999999997</ele><time>2026-04-08T17:29:01.308Z</time></trkpt><trkpt lat="45.8382568" lon="9.0206992"><ele>247.0</ele><time>2026-04-08T17:29:02.316Z</time></trkpt><trkpt lat="45.8383346" lon="9.0207265"><ele>247.0</ele><time>2026-04-08T17:29:03.3Z</time></trkpt><trkpt lat="45.8384014" lon="9.0207554"><ele>247.0</ele><time>2026-04-08T17:29:04.315Z</time></trkpt><trkpt lat="45.8384789" lon="9.0207976"><ele>246.99999999999997</ele><time>2026-04-08T17:29:06.305Z</time></trkpt><trkpt lat="45.8385496" lon="9.0208774"><ele>247.0</ele><time>2026-04-08T17:29:09.334Z</time></trkpt><trkpt lat="45.8386226" lon="9.0210036"><ele>246.99999999999997</ele><time>2026-04-08T17:29:11.3Z</time></trkpt><trkpt lat="45.8386815" lon="9.0210633"><ele>247.0</ele><time>2026-04-08T17:29:12.315Z</time></trkpt><trkpt lat="45.8387655" lon="9.0210897"><ele>247.0</ele><time>2026-04-08T17:29:13.32Z</time></trkpt><trkpt lat="45.8388631" lon="9.021132"><ele>247.0</ele><time>2026-04-08T17:29:14.339Z</time></trkpt><trkpt lat="45.8389469" lon="9.021184"><ele>246.99999999999997</ele><time>2026-04-08T17:29:15.331Z</time></trkpt><trkpt lat="45.8390197" lon="9.0212397"><ele>247.0</ele><time>2026-04-08T17:29:16.308Z</time></trkpt><trkpt lat="45.8390911" lon="9.0213033"><ele>246.99999999999997</ele><time>2026-04-08T17:29:17.303Z</time></trkpt><trkpt lat="45.8391664" lon="9.0213781"><ele>247.0</ele><time>2026-04-08T17:29:18.292Z</time></trkpt><trkpt lat="45.8392382" lon="9.0214538"><ele>247.0</ele><time>2026-04-08T17:29:19.313Z</time></trkpt><trkpt lat="45.8393035" lon="9.0215293"><ele>247.0</ele><time>2026-04-08T17:29:20.305Z</time></trkpt><trkpt lat="45.8393643" lon="9.0216214"><ele>246.99999999999997</ele><time>2026-04-08T17:29:21.32Z</time></trkpt><trkpt lat="45.8394103" lon="9.0217312"><ele>247.0</ele><time>2026-04-08T17:29:22.307Z</time></trkpt><trkpt lat="45.839439" lon="9.0218602"><ele>246.6</ele><time>2026-04-08T17:29:23.288Z</time></trkpt><trkpt lat="45.8394648" lon="9.0219908"><ele>246.2</ele><time>2026-04-08T17:29:24.315Z</time></trkpt><trkpt lat="45.8394702" lon="9.0221238"><ele>245.8</ele><time>2026-04-08T17:29:25.301Z</time></trkpt><trkpt lat="45.8394575" lon="9.0222766"><ele>245.4</ele><time>2026-04-08T17:29:26.292Z</time></trkpt><trkpt lat="45.8394121" lon="9.0224267"><ele>245.0</ele><time>2026-04-08T17:29:27.312Z</time></trkpt><trkpt lat="45.8393641" lon="9.0225853"><ele>245.0</ele><time>2026-04-08T17:29:28.3Z</time></trkpt><trkpt lat="45.8393129" lon="9.0227438"><ele>245.0</ele><time>2026-04-08T17:29:29.303Z</time></trkpt><trkpt lat="45.8392676" lon="9.0229057"><ele>245.0</ele><time>2026-04-08T17:29:30.302Z</time></trkpt><trkpt lat="45.8392309" lon="9.0230797"><ele>245.0</ele><time>2026-04-08T17:29:31.315Z</time></trkpt><trkpt lat="45.8392032" lon="9.0232463"><ele>244.25</ele><time>2026-04-08T17:29:32.296Z</time></trkpt><trkpt lat="45.8391685" lon="9.0234275"><ele>243.5</ele><time>2026-04-08T17:29:33.302Z</time></trkpt><trkpt lat="45.8391313" lon="9.0236237"><ele>242.75</ele><time>2026-04-08T17:29:34.308Z</time></trkpt><trkpt lat="45.8391018" lon="9.0238107"><ele>242.0</ele><time>2026-04-08T17:29:35.316Z</time></trkpt><trkpt lat="45.8390611" lon="9.0239814"><ele>241.25</ele><time>2026-04-08T17:29:36.293Z</time></trkpt><trkpt lat="45.8390393" lon="9.0241661"><ele>240.5</ele><time>2026-04-08T17:29:37.298Z</time></trkpt><trkpt lat="45.8390248" lon="9.024343"><ele>239.75</ele><time>2026-04-08T17:29:38.314Z</time></trkpt><trkpt lat="45.8390135" lon="9.0245301"><ele>239.0</ele><time>2026-04-08T17:29:39.305Z</time></trkpt><trkpt lat="45.83899" lon="9.0247262"><ele>239.0</ele><time>2026-04-08T17:29:40.313Z</time></trkpt><trkpt lat="45.8389748" lon="9.0249084"><ele>239.0</ele><time>2026-04-08T17:29:41.306Z</time></trkpt><trkpt lat="45.838966" lon="9.0250811"><ele>239.0</ele><time>2026-04-08T17:29:42.293Z</time></trkpt><trkpt lat="45.83896" lon="9.025246"><ele>239.0</ele><time>2026-04-08T17:29:43.307Z</time></trkpt><trkpt lat="45.8389568" lon="9.0254157"><ele>239.0</ele><time>2026-04-08T17:29:44.355Z</time></trkpt><trkpt lat="45.8389515" lon="9.0255891"><ele>239.0</ele><time>2026-04-08T17:29:45.302Z</time></trkpt><trkpt lat="45.8389468" lon="9.0257753"><ele>239.0</ele><time>2026-04-08T17:29:46.307Z</time></trkpt><trkpt lat="45.8389421" lon="9.0259929"><ele>239.0</ele><time>2026-04-08T17:29:47.314Z</time></trkpt><trkpt lat="45.8389432" lon="9.0262476"><ele>239.0</ele><time>2026-04-08T17:29:48.3Z</time></trkpt><trkpt lat="45.838941" lon="9.0265412"><ele>239.0</ele><time>2026-04-08T17:29:49.308Z</time></trkpt><trkpt lat="45.83894" lon="9.026871"><ele>239.0</ele><time>2026-04-08T17:29:50.318Z</time></trkpt><trkpt lat="45.8389219" lon="9.0271865"><ele>238.0</ele><time>2026-04-08T17:29:51.298Z</time></trkpt><trkpt lat="45.8389056" lon="9.0274709"><ele>237.0</ele><time>2026-04-08T17:29:52.308Z</time></trkpt><trkpt lat="45.8388844" lon="9.0277251"><ele>236.0</ele><time>2026-04-08T17:29:53.301Z</time></trkpt><trkpt lat="45.8388671" lon="9.0279767"><ele>235.33333333333334</ele><time>2026-04-08T17:29:54.306Z</time></trkpt><trkpt lat="45.8388499" lon="9.028218"><ele>234.66666666666669</ele><time>2026-04-08T17:29:55.308Z</time></trkpt><trkpt lat="45.8388537" lon="9.0284594"><ele>234.0</ele><time>2026-04-08T17:29:56.287Z</time></trkpt><trkpt lat="45.8388564" lon="9.0287061"><ele>234.0</ele><time>2026-04-08T17:29:57.293Z</time></trkpt><trkpt lat="45.8388372" lon="9.0289291"><ele>234.0</ele><time>2026-04-08T17:29:58.306Z</time></trkpt><trkpt lat="45.838825" lon="9.0291554"><ele>234.0</ele><time>2026-04-08T17:29:59.316Z</time></trkpt><trkpt lat="45.8387713" lon="9.0293633"><ele>234.5</ele><time>2026-04-08T17:30:00.314Z</time></trkpt><trkpt lat="45.8387386" lon="9.0295784"><ele>235.0</ele><time>2026-04-08T17:30:01.313Z</time></trkpt><trkpt lat="45.8387489" lon="9.0297819"><ele>235.5</ele><time>2026-04-08T17:30:02.317Z</time></trkpt><trkpt lat="45.8387456" lon="9.0299777"><ele>236.0</ele><time>2026-04-08T17:30:03.303Z</time></trkpt><trkpt lat="45.8387556" lon="9.0301946"><ele>236.25</ele><time>2026-04-08T17:30:04.34Z</time></trkpt><trkpt lat="45.8387701" lon="9.0304071"><ele>236.5</ele><time>2026-04-08T17:30:05.304Z</time></trkpt><trkpt lat="45.8387687" lon="9.030609"><ele>236.75</ele><time>2026-04-08T17:30:06.327Z</time></trkpt><trkpt lat="45.8387544" lon="9.0307679"><ele>237.0</ele><time>2026-04-08T17:30:07.303Z</time></trkpt><trkpt lat="45.8387431" lon="9.0309622"><ele>237.0</ele><time>2026-04-08T17:30:08.305Z</time></trkpt><trkpt lat="45.838716" lon="9.0311332"><ele>237.0</ele><time>2026-04-08T17:30:09.314Z</time></trkpt><trkpt lat="45.8386877" lon="9.0312827"><ele>237.0</ele><time>2026-04-08T17:30:10.303Z</time></trkpt><trkpt lat="45.8386691" lon="9.0314399"><ele>237.0</ele><time>2026-04-08T17:30:11.29Z</time></trkpt><trkpt lat="45.8386429" lon="9.0315968"><ele>237.0</ele><time>2026-04-08T17:30:12.307Z</time></trkpt><trkpt lat="45.8386132" lon="9.0317608"><ele>237.0</ele><time>2026-04-08T17:30:13.289Z</time></trkpt><trkpt lat="45.8385912" lon="9.0319143"><ele>237.0</ele><time>2026-04-08T17:30:14.308Z</time></trkpt><trkpt lat="45.8385805" lon="9.0320466"><ele>237.0</ele><time>2026-04-08T17:30:15.309Z</time></trkpt><trkpt lat="45.8385683" lon="9.0321678"><ele>237.0</ele><time>2026-04-08T17:30:16.292Z</time></trkpt><trkpt lat="45.8385452" lon="9.0322705"><ele>237.0</ele><time>2026-04-08T17:30:17.333Z</time></trkpt><trkpt lat="45.8385052" lon="9.0323629"><ele>237.0</ele><time>2026-04-08T17:30:18.304Z</time></trkpt><trkpt lat="45.8384462" lon="9.0324384"><ele>237.0</ele><time>2026-04-08T17:30:19.312Z</time></trkpt><trkpt lat="45.8383664" lon="9.0324938"><ele>237.0</ele><time>2026-04-08T17:30:20.3Z</time></trkpt><trkpt lat="45.8382759" lon="9.032531"><ele>237.0</ele><time>2026-04-08T17:30:21.336Z</time></trkpt><trkpt lat="45.8381801" lon="9.03254"><ele>237.0</ele><time>2026-04-08T17:30:22.291Z</time></trkpt><trkpt lat="45.8380852" lon="9.0325417"><ele>236.16666666666666</ele><time>2026-04-08T17:30:23.304Z</time></trkpt><trkpt lat="45.8379974" lon="9.0325174"><ele>235.33333333333331</ele><time>2026-04-08T17:30:24.316Z</time></trkpt><trkpt lat="45.8379328" lon="9.0324593"><ele>234.5</ele><time>2026-04-08T17:30:25.301Z</time></trkpt><trkpt lat="45.8378756" lon="9.0323833"><ele>233.66666666666666</ele><time>2026-04-08T17:30:26.308Z</time></trkpt><trkpt lat="45.8378645" lon="9.0322509"><ele>232.83333333333331</ele><time>2026-04-08T17:30:27.305Z</time></trkpt><trkpt lat="45.8378669" lon="9.0320916"><ele>232.0</ele><time>2026-04-08T17:30:28.318Z</time></trkpt><trkpt lat="45.8378751" lon="9.0319177"><ele>231.75</ele><time>2026-04-08T17:30:29.295Z</time></trkpt><trkpt lat="45.837888" lon="9.0317395"><ele>231.5</ele><time>2026-04-08T17:30:30.308Z</time></trkpt><trkpt lat="45.8378954" lon="9.0315567"><ele>231.25</ele><time>2026-04-08T17:30:31.315Z</time></trkpt><trkpt lat="45.8378989" lon="9.0313815"><ele>231.0</ele><time>2026-04-08T17:30:32.313Z</time></trkpt><trkpt lat="45.8379058" lon="9.0312308"><ele>231.33333333333334</ele><time>2026-04-08T17:30:33.291Z</time></trkpt><trkpt lat="45.837932" lon="9.0310925"><ele>231.66666666666669</ele><time>2026-04-08T17:30:34.315Z</time></trkpt><trkpt lat="45.8379533" lon="9.0309879"><ele>232.0</ele><time>2026-04-08T17:30:35.293Z</time></trkpt><trkpt lat="45.8380005" lon="9.030877"><ele>232.33333333333334</ele><time>2026-04-08T17:30:37.311Z</time></trkpt><trkpt lat="45.838062" lon="9.0308385"><ele>232.66666666666669</ele><time>2026-04-08T17:30:39.306Z</time></trkpt><trkpt lat="45.8381228" lon="9.0308148"><ele>233.0</ele><time>2026-04-08T17:30:40.308Z</time></trkpt><trkpt lat="45.8381961" lon="9.0308116"><ele>233.0</ele><time>2026-04-08T17:30:41.287Z</time></trkpt><trkpt lat="45.8382781" lon="9.0308165"><ele>233.0</ele><time>2026-04-08T17:30:42.312Z</time></trkpt><trkpt lat="45.838369" lon="9.0308174"><ele>233.0</ele><time>2026-04-08T17:30:43.31Z</time></trkpt><trkpt lat="45.838472" lon="9.0308273"><ele>233.0</ele><time>2026-04-08T17:30:44.289Z</time></trkpt><trkpt lat="45.8385694" lon="9.0308422"><ele>233.0</ele><time>2026-04-08T17:30:45.326Z</time></trkpt><trkpt lat="45.8386596" lon="9.030858"><ele>233.66666666666669</ele><time>2026-04-08T17:30:46.315Z</time></trkpt><trkpt lat="45.8387455" lon="9.0308724"><ele>234.33333333333334</ele><time>2026-04-08T17:30:47.296Z</time></trkpt><trkpt lat="45.8388313" lon="9.0308848"><ele>235.0</ele><time>2026-04-08T17:30:48.31Z</time></trkpt><trkpt lat="45.8389162" lon="9.0308961"><ele>235.66666666666669</ele><time>2026-04-08T17:30:49.313Z</time></trkpt><trkpt lat="45.8389896" lon="9.0309042"><ele>236.33333333333334</ele><time>2026-04-08T17:30:50.321Z</time></trkpt><trkpt lat="45.8390556" lon="9.0309098"><ele>237.0</ele><time>2026-04-08T17:30:51.33Z</time></trkpt><trkpt lat="45.8391206" lon="9.030924"><ele>237.0</ele><time>2026-04-08T17:30:52.3Z</time></trkpt><trkpt lat="45.839181" lon="9.0309552"><ele>237.0</ele><time>2026-04-08T17:30:53.316Z</time></trkpt><trkpt lat="45.8392389" lon="9.0310012"><ele>237.0</ele><time>2026-04-08T17:30:54.293Z</time></trkpt><trkpt lat="45.8392815" lon="9.0310932"><ele>237.0</ele><time>2026-04-08T17:30:55.311Z</time></trkpt><trkpt lat="45.8392908" lon="9.0312095"><ele>237.0</ele><time>2026-04-08T17:30:56.318Z</time></trkpt><trkpt lat="45.8392825" lon="9.0313445"><ele>237.0</ele><time>2026-04-08T17:30:57.307Z</time></trkpt><trkpt lat="45.839259" lon="9.0314882"><ele>237.0</ele><time>2026-04-08T17:30:58.305Z</time></trkpt><trkpt lat="45.8392309" lon="9.0316336"><ele>237.0</ele><time>2026-04-08T17:30:59.299Z</time></trkpt><trkpt lat="45.8392008" lon="9.0317827"><ele>237.0</ele><time>2026-04-08T17:31:00.308Z</time></trkpt><trkpt lat="45.8391791" lon="9.0319365"><ele>237.0</ele><time>2026-04-08T17:31:01.323Z</time></trkpt><trkpt lat="45.8391692" lon="9.0320965"><ele>237.0</ele><time>2026-04-08T17:31:02.318Z</time></trkpt><trkpt lat="45.8391655" lon="9.0322631"><ele>237.0</ele><time>2026-04-08T17:31:03.306Z</time></trkpt><trkpt lat="45.8391666" lon="9.0324385"><ele>237.0</ele><time>2026-04-08T17:31:04.32Z</time></trkpt><trkpt lat="45.8391717" lon="9.0326224"><ele>237.0</ele><time>2026-04-08T17:31:05.31Z</time></trkpt><trkpt lat="45.839179" lon="9.0328131"><ele>237.0</ele><time>2026-04-08T17:31:06.305Z</time></trkpt><trkpt lat="45.8391934" lon="9.033006"><ele>237.0</ele><time>2026-04-08T17:31:07.308Z</time></trkpt><trkpt lat="45.8392152" lon="9.0332027"><ele>237.0</ele><time>2026-04-08T17:31:08.316Z</time></trkpt><trkpt lat="45.8392424" lon="9.0334008"><ele>237.0</ele><time>2026-04-08T17:31:09.315Z</time></trkpt><trkpt lat="45.8392748" lon="9.0335993"><ele>237.0</ele><time>2026-04-08T17:31:10.295Z</time></trkpt><trkpt lat="45.8393096" lon="9.0337858"><ele>240.75</ele><time>2026-04-08T17:31:11.309Z</time></trkpt><trkpt lat="45.8393461" lon="9.0339598"><ele>244.5</ele><time>2026-04-08T17:31:12.314Z</time></trkpt><trkpt lat="45.8393846" lon="9.0341301"><ele>248.25</ele><time>2026-04-08T17:31:13.324Z</time></trkpt><trkpt lat="45.839425" lon="9.034302"><ele>252.0</ele><time>2026-04-08T17:31:14.3Z</time></trkpt><trkpt lat="45.8394649" lon="9.034474"><ele>252.0</ele><time>2026-04-08T17:31:15.305Z</time></trkpt><trkpt lat="45.8395069" lon="9.0346372"><ele>252.0</ele><time>2026-04-08T17:31:16.317Z</time></trkpt><trkpt lat="45.8395462" lon="9.0347902"><ele>252.0</ele><time>2026-04-08T17:31:17.315Z</time></trkpt><trkpt lat="45.8395908" lon="9.0349211"><ele>252.0</ele><time>2026-04-08T17:31:18.305Z</time></trkpt><trkpt lat="45.839654" lon="9.035044"><ele>252.0</ele><time>2026-04-08T17:31:19.302Z</time></trkpt><trkpt lat="45.8397344" lon="9.0351599"><ele>250.0</ele><time>2026-04-08T17:31:20.322Z</time></trkpt><trkpt lat="45.8398233" lon="9.0352575"><ele>248.0</ele><time>2026-04-08T17:31:21.296Z</time></trkpt><trkpt lat="45.8399161" lon="9.0353307"><ele>246.0</ele><time>2026-04-08T17:31:22.304Z</time></trkpt><trkpt lat="45.8400117" lon="9.0353865"><ele>244.0</ele><time>2026-04-08T17:31:23.302Z</time></trkpt><trkpt lat="45.840109" lon="9.0354288"><ele>242.0</ele><time>2026-04-08T17:31:24.305Z</time></trkpt><trkpt lat="45.8402126" lon="9.0354576"><ele>242.0</ele><time>2026-04-08T17:31:25.305Z</time></trkpt><trkpt lat="45.8403226" lon="9.0354599"><ele>242.0</ele><time>2026-04-08T17:31:26.31Z</time></trkpt><trkpt lat="45.8404346" lon="9.0354659"><ele>242.0</ele><time>2026-04-08T17:31:27.312Z</time></trkpt><trkpt lat="45.8405398" lon="9.0354756"><ele>242.0</ele><time>2026-04-08T17:31:28.308Z</time></trkpt><trkpt lat="45.8406499" lon="9.0354826"><ele>242.0</ele><time>2026-04-08T17:31:29.308Z</time></trkpt><trkpt lat="45.8407621" lon="9.0354926"><ele>242.0</ele><time>2026-04-08T17:31:30.312Z</time></trkpt><trkpt lat="45.8408737" lon="9.0355038"><ele>242.0</ele><time>2026-04-08T17:31:31.306Z</time></trkpt><trkpt lat="45.8409907" lon="9.035528"><ele>242.0</ele><time>2026-04-08T17:31:32.304Z</time></trkpt><trkpt lat="45.8411046" lon="9.0355648"><ele>242.0</ele><time>2026-04-08T17:31:33.306Z</time></trkpt><trkpt lat="45.8412154" lon="9.0356255"><ele>242.75</ele><time>2026-04-08T17:31:34.307Z</time></trkpt><trkpt lat="45.8413207" lon="9.0357079"><ele>243.5</ele><time>2026-04-08T17:31:35.306Z</time></trkpt><trkpt lat="45.8414189" lon="9.0358139"><ele>244.25</ele><time>2026-04-08T17:31:36.311Z</time></trkpt><trkpt lat="45.8415029" lon="9.0359486"><ele>245.0</ele><time>2026-04-08T17:31:37.307Z</time></trkpt><trkpt lat="45.8415803" lon="9.0360957"><ele>245.0</ele><time>2026-04-08T17:31:38.305Z</time></trkpt><trkpt lat="45.8416514" lon="9.0362532"><ele>245.0</ele><time>2026-04-08T17:31:39.317Z</time></trkpt><trkpt lat="45.8417317" lon="9.0364133"><ele>245.0</ele><time>2026-04-08T17:31:40.309Z</time></trkpt><trkpt lat="45.8418019" lon="9.0365846"><ele>245.0</ele><time>2026-04-08T17:31:41.314Z</time></trkpt><trkpt lat="45.8418718" lon="9.0367331"><ele>244.8</ele><time>2026-04-08T17:31:42.295Z</time></trkpt><trkpt lat="45.8419376" lon="9.0368668"><ele>244.6</ele><time>2026-04-08T17:31:43.296Z</time></trkpt><trkpt lat="45.8420024" lon="9.0369939"><ele>244.39999999999998</ele><time>2026-04-08T17:31:44.315Z</time></trkpt><trkpt lat="45.8420615" lon="9.0371024"><ele>244.2</ele><time>2026-04-08T17:31:45.306Z</time></trkpt><trkpt lat="45.842145" lon="9.0371888"><ele>244.0</ele><time>2026-04-08T17:31:46.296Z</time></trkpt><trkpt lat="45.8422296" lon="9.0372636"><ele>244.0</ele><time>2026-04-08T17:31:47.314Z</time></trkpt><trkpt lat="45.842323" lon="9.0373013"><ele>243.99999999999997</ele><time>2026-04-08T17:31:48.314Z</time></trkpt><trkpt lat="45.8424181" lon="9.0373249"><ele>243.99999999999997</ele><time>2026-04-08T17:31:49.311Z</time></trkpt><trkpt lat="45.8425112" lon="9.0373417"><ele>244.0</ele><time>2026-04-08T17:31:50.314Z</time></trkpt><trkpt lat="45.8426027" lon="9.0373621"><ele>244.0</ele><time>2026-04-08T17:31:51.308Z</time></trkpt><trkpt lat="45.8426974" lon="9.0373863"><ele>243.39999999999998</ele><time>2026-04-08T17:31:52.312Z</time></trkpt><trkpt lat="45.8427977" lon="9.0374134"><ele>242.79999999999998</ele><time>2026-04-08T17:31:53.317Z</time></trkpt><trkpt lat="45.8428989" lon="9.0374416"><ele>242.20000000000002</ele><time>2026-04-08T17:31:54.299Z</time></trkpt><trkpt lat="45.8429967" lon="9.0374679"><ele>241.60000000000002</ele><time>2026-04-08T17:31:55.308Z</time></trkpt><trkpt lat="45.843099" lon="9.0374971"><ele>241.0</ele><time>2026-04-08T17:31:56.302Z</time></trkpt><trkpt lat="45.8431976" lon="9.0375347"><ele>240.8</ele><time>2026-04-08T17:31:57.317Z</time></trkpt><trkpt lat="45.8432958" lon="9.0375856"><ele>240.60000000000002</ele><time>2026-04-08T17:31:58.318Z</time></trkpt><trkpt lat="45.8433825" lon="9.0376397"><ele>240.4</ele><time>2026-04-08T17:31:59.319Z</time></trkpt><trkpt lat="45.8434642" lon="9.0377028"><ele>240.2</ele><time>2026-04-08T17:32:00.316Z</time></trkpt><trkpt lat="45.8435413" lon="9.0377731"><ele>240.0</ele><time>2026-04-08T17:32:01.303Z</time></trkpt><trkpt lat="45.8436124" lon="9.0378486"><ele>240.0</ele><time>2026-04-08T17:32:02.297Z</time></trkpt><trkpt lat="45.8436758" lon="9.0379195"><ele>240.0</ele><time>2026-04-08T17:32:03.323Z</time></trkpt><trkpt lat="45.8437287" lon="9.037977"><ele>240.0</ele><time>2026-04-08T17:32:04.308Z</time></trkpt><trkpt lat="45.8437943" lon="9.0380785"><ele>240.0</ele><time>2026-04-08T17:32:06.307Z</time></trkpt><trkpt lat="45.843803" lon="9.038212"><ele>240.0</ele><time>2026-04-08T17:32:08.318Z</time></trkpt><trkpt lat="45.8437455" lon="9.0383378"><ele>240.0</ele><time>2026-04-08T17:32:10.316Z</time></trkpt><trkpt lat="45.8436742" lon="9.0384444"><ele>240.2</ele><time>2026-04-08T17:32:12.305Z</time></trkpt><trkpt lat="45.8436092" lon="9.0385343"><ele>240.4</ele><time>2026-04-08T17:32:14.3Z</time></trkpt><trkpt lat="45.8435507" lon="9.0386301"><ele>240.60000000000002</ele><time>2026-04-08T17:32:16.333Z</time></trkpt><trkpt lat="45.843494" lon="9.0387487"><ele>240.8</ele><time>2026-04-08T17:32:18.303Z</time></trkpt><trkpt lat="45.8434527" lon="9.0388566"><ele>241.0</ele><time>2026-04-08T17:32:20.304Z</time></trkpt><trkpt lat="45.8434101" lon="9.0389737"><ele>239.60000000000002</ele><time>2026-04-08T17:32:22.309Z</time></trkpt><trkpt lat="45.843366" lon="9.0391153"><ele>238.20000000000002</ele><time>2026-04-08T17:32:24.309Z</time></trkpt><trkpt lat="45.8433273" lon="9.039283"><ele>236.79999999999998</ele><time>2026-04-08T17:32:26.314Z</time></trkpt><trkpt lat="45.8433058" lon="9.0394258"><ele>235.39999999999998</ele><time>2026-04-08T17:32:28.306Z</time></trkpt><trkpt lat="45.8432903" lon="9.0395576"><ele>234.0</ele><time>2026-04-08T17:32:30.311Z</time></trkpt><trkpt lat="45.843262" lon="9.0397092"><ele>233.5</ele><time>2026-04-08T17:32:32.312Z</time></trkpt><trkpt lat="45.8432299" lon="9.0397871"><ele>233.0</ele><time>2026-04-08T17:32:33.316Z</time></trkpt><trkpt lat="45.8431888" lon="9.0398688"><ele>232.5</ele><time>2026-04-08T17:32:34.305Z</time></trkpt><trkpt lat="45.8431486" lon="9.0399493"><ele>232.0</ele><time>2026-04-08T17:32:35.309Z</time></trkpt><trkpt lat="45.8430873" lon="9.0400203"><ele>231.5</ele><time>2026-04-08T17:32:36.319Z</time></trkpt><trkpt lat="45.843018" lon="9.040092"><ele>231.0</ele><time>2026-04-08T17:32:37.332Z</time></trkpt><trkpt lat="45.8429487" lon="9.0401599"><ele>230.83333333333334</ele><time>2026-04-08T17:32:38.323Z</time></trkpt><trkpt lat="45.8428791" lon="9.0402256"><ele>230.66666666666669</ele><time>2026-04-08T17:32:39.3Z</time></trkpt><trkpt lat="45.8428084" lon="9.0402927"><ele>230.5</ele><time>2026-04-08T17:32:40.302Z</time></trkpt><trkpt lat="45.8427425" lon="9.0403513"><ele>230.33333333333334</ele><time>2026-04-08T17:32:41.306Z</time></trkpt><trkpt lat="45.842683" lon="9.0403983"><ele>230.16666666666669</ele><time>2026-04-08T17:32:42.304Z</time></trkpt><trkpt lat="45.8425943" lon="9.0404895"><ele>230.0</ele><time>2026-04-08T17:32:44.301Z</time></trkpt><trkpt lat="45.8425783" lon="9.0406153"><ele>230.00000000000003</ele><time>2026-04-08T17:32:46.315Z</time></trkpt><trkpt lat="45.842654" lon="9.0407132"><ele>230.0</ele><time>2026-04-08T17:32:48.294Z</time></trkpt><trkpt lat="45.8427088" lon="9.0407586"><ele>230.0</ele><time>2026-04-08T17:32:49.306Z</time></trkpt><trkpt lat="45.8427667" lon="9.0408127"><ele>230.0</ele><time>2026-04-08T17:32:50.34Z</time></trkpt><trkpt lat="45.842822" lon="9.0408632"><ele>230.00000000000003</ele><time>2026-04-08T17:32:51.292Z</time></trkpt><trkpt lat="45.8428933" lon="9.040926"><ele>230.0</ele><time>2026-04-08T17:32:52.291Z</time></trkpt><trkpt lat="45.8429639" lon="9.040992"><ele>230.50000000000003</ele><time>2026-04-08T17:32:53.311Z</time></trkpt><trkpt lat="45.8430311" lon="9.041062"><ele>231.0</ele><time>2026-04-08T17:32:54.303Z</time></trkpt><trkpt lat="45.8430978" lon="9.0411369"><ele>231.5</ele><time>2026-04-08T17:32:55.305Z</time></trkpt><trkpt lat="45.8431581" lon="9.0412142"><ele>232.0</ele><time>2026-04-08T17:32:56.31Z</time></trkpt><trkpt lat="45.8432074" lon="9.0413031"><ele>232.50000000000003</ele><time>2026-04-08T17:32:57.316Z</time></trkpt><trkpt lat="45.8432493" lon="9.0414069"><ele>233.0</ele><time>2026-04-08T17:32:58.303Z</time></trkpt><trkpt lat="45.8432763" lon="9.0415241"><ele>233.00000000000003</ele><time>2026-04-08T17:32:59.306Z</time></trkpt><trkpt lat="45.8432863" lon="9.0416512"><ele>233.0</ele><time>2026-04-08T17:33:00.323Z</time></trkpt><trkpt lat="45.8432803" lon="9.0417794"><ele>233.0</ele><time>2026-04-08T17:33:01.314Z</time></trkpt><trkpt lat="45.8432679" lon="9.0419101"><ele>233.0</ele><time>2026-04-08T17:33:02.308Z</time></trkpt><trkpt lat="45.8432532" lon="9.042035"><ele>233.00000000000003</ele><time>2026-04-08T17:33:03.312Z</time></trkpt><trkpt lat="45.8432436" lon="9.0421409"><ele>233.0</ele><time>2026-04-08T17:33:04.3Z</time></trkpt><trkpt lat="45.8432286" lon="9.0422903"><ele>233.0</ele><time>2026-04-08T17:33:06.32Z</time></trkpt><trkpt lat="45.8432167" lon="9.0424473"><ele>233.0</ele><time>2026-04-08T17:33:08.31Z</time></trkpt><trkpt lat="45.8432136" lon="9.0425608"><ele>233.0</ele><time>2026-04-08T17:33:09.305Z</time></trkpt><trkpt lat="45.8432128" lon="9.0426883"><ele>233.0</ele><time>2026-04-08T17:33:10.306Z</time></trkpt><trkpt lat="45.8432106" lon="9.0428462"><ele>233.0</ele><time>2026-04-08T17:33:11.304Z</time></trkpt><trkpt lat="45.8432175" lon="9.0431026"><ele>234.0</ele><time>2026-04-08T17:33:12.329Z</time></trkpt><trkpt lat="45.8432259" lon="9.0433224"><ele>235.0</ele><time>2026-04-08T17:33:13.316Z</time></trkpt><trkpt lat="45.8432329" lon="9.0435194"><ele>236.0</ele><time>2026-04-08T17:33:14.307Z</time></trkpt><trkpt lat="45.8432418" lon="9.0436784"><ele>237.0</ele><time>2026-04-08T17:33:15.314Z</time></trkpt><trkpt lat="45.8432524" lon="9.043824"><ele>237.0</ele><time>2026-04-08T17:33:16.309Z</time></trkpt><trkpt lat="45.8432568" lon="9.0439593"><ele>237.0</ele><time>2026-04-08T17:33:17.306Z</time></trkpt><trkpt lat="45.8432531" lon="9.0440793"><ele>237.0</ele><time>2026-04-08T17:33:18.3Z</time></trkpt><trkpt lat="45.8432524" lon="9.0442138"><ele>237.0</ele><time>2026-04-08T17:33:19.301Z</time></trkpt><trkpt lat="45.8432483" lon="9.0443642"><ele>237.0</ele><time>2026-04-08T17:33:20.313Z</time></trkpt><trkpt lat="45.8432444" lon="9.0445269"><ele>237.2</ele><time>2026-04-08T17:33:21.302Z</time></trkpt><trkpt lat="45.8432374" lon="9.0446949"><ele>237.39999999999998</ele><time>2026-04-08T17:33:22.298Z</time></trkpt><trkpt lat="45.8432281" lon="9.0448527"><ele>237.60000000000002</ele><time>2026-04-08T17:33:23.345Z</time></trkpt><trkpt lat="45.8432007" lon="9.0449908"><ele>237.8</ele><time>2026-04-08T17:33:24.325Z</time></trkpt><trkpt lat="45.8431753" lon="9.0451286"><ele>238.0</ele><time>2026-04-08T17:33:25.307Z</time></trkpt><trkpt lat="45.8431508" lon="9.0452631"><ele>238.4</ele><time>2026-04-08T17:33:26.308Z</time></trkpt><trkpt lat="45.8431242" lon="9.0454071"><ele>238.8</ele><time>2026-04-08T17:33:27.301Z</time></trkpt><trkpt lat="45.8430969" lon="9.0455578"><ele>239.2</ele><time>2026-04-08T17:33:28.314Z</time></trkpt><trkpt lat="45.8430686" lon="9.0457104"><ele>239.6</ele><time>2026-04-08T17:33:29.304Z</time></trkpt><trkpt lat="45.8430462" lon="9.0458623"><ele>240.0</ele><time>2026-04-08T17:33:30.327Z</time></trkpt><trkpt lat="45.8430175" lon="9.0460193"><ele>240.2</ele><time>2026-04-08T17:33:31.318Z</time></trkpt><trkpt lat="45.8429869" lon="9.0461749"><ele>240.4</ele><time>2026-04-08T17:33:32.309Z</time></trkpt><trkpt lat="45.8429554" lon="9.0463274"><ele>240.60000000000002</ele><time>2026-04-08T17:33:33.316Z</time></trkpt><trkpt lat="45.8429229" lon="9.0464672"><ele>240.8</ele><time>2026-04-08T17:33:34.315Z</time></trkpt><trkpt lat="45.8428934" lon="9.0466006"><ele>241.0</ele><time>2026-04-08T17:33:35.302Z</time></trkpt><trkpt lat="45.8428612" lon="9.0467323"><ele>240.66666666666666</ele><time>2026-04-08T17:33:36.302Z</time></trkpt><trkpt lat="45.8428291" lon="9.0468664"><ele>240.33333333333331</ele><time>2026-04-08T17:33:37.307Z</time></trkpt><trkpt lat="45.8427945" lon="9.0469989"><ele>240.0</ele><time>2026-04-08T17:33:38.298Z</time></trkpt><trkpt lat="45.8427655" lon="9.0471241"><ele>239.66666666666669</ele><time>2026-04-08T17:33:39.318Z</time></trkpt><trkpt lat="45.8427372" lon="9.0472329"><ele>239.33333333333334</ele><time>2026-04-08T17:33:40.309Z</time></trkpt><trkpt lat="45.8426966" lon="9.0473125"><ele>239.0</ele><time>2026-04-08T17:33:41.303Z</time></trkpt><trkpt lat="45.8426323" lon="9.0473514"><ele>237.00000000000003</ele><time>2026-04-08T17:33:42.311Z</time></trkpt><trkpt lat="45.8425706" lon="9.0473902"><ele>235.0</ele><time>2026-04-08T17:33:43.317Z</time></trkpt><trkpt lat="45.8424677" lon="9.0473569"><ele>233.0</ele><time>2026-04-08T17:33:45.305Z</time></trkpt><trkpt lat="45.8424029" lon="9.0473238"><ele>231.0</ele><time>2026-04-08T17:33:47.304Z</time></trkpt><trkpt lat="45.8423331" lon="9.0472901"><ele>229.00000000000003</ele><time>2026-04-08T17:33:49.325Z</time></trkpt><trkpt lat="45.8422192" lon="9.0472354"><ele>227.0</ele><time>2026-04-08T17:33:51.304Z</time></trkpt><trkpt lat="45.8421489" lon="9.0471947"><ele>227.00000000000003</ele><time>2026-04-08T17:33:52.319Z</time></trkpt><trkpt lat="45.8420748" lon="9.0471516"><ele>227.0</ele><time>2026-04-08T17:33:53.321Z</time></trkpt><trkpt lat="45.8419966" lon="9.0471096"><ele>227.0</ele><time>2026-04-08T17:33:54.304Z</time></trkpt><trkpt lat="45.8419236" lon="9.04707"><ele>227.0</ele><time>2026-04-08T17:33:55.295Z</time></trkpt><trkpt lat="45.8418532" lon="9.0470718"><ele>227.00000000000003</ele><time>2026-04-08T17:33:56.323Z</time></trkpt><trkpt lat="45.8417921" lon="9.0471565"><ele>227.0</ele><time>2026-04-08T17:33:57.311Z</time></trkpt><trkpt lat="45.8417346" lon="9.0472558"><ele>225.75</ele><time>2026-04-08T17:33:58.312Z</time></trkpt><trkpt lat="45.8416952" lon="9.0474051"><ele>224.5</ele><time>2026-04-08T17:33:59.31Z</time></trkpt><trkpt lat="45.8416697" lon="9.0475633"><ele>223.25</ele><time>2026-04-08T17:34:00.306Z</time></trkpt><trkpt lat="45.841643" lon="9.0477207"><ele>222.0</ele><time>2026-04-08T17:34:01.302Z</time></trkpt><trkpt lat="45.8416132" lon="9.0478762"><ele>221.75</ele><time>2026-04-08T17:34:02.315Z</time></trkpt><trkpt lat="45.8415849" lon="9.0480309"><ele>221.5</ele><time>2026-04-08T17:34:03.312Z</time></trkpt><trkpt lat="45.8415497" lon="9.0481962"><ele>221.25</ele><time>2026-04-08T17:34:04.303Z</time></trkpt><trkpt lat="45.841513" lon="9.0483714"><ele>221.0</ele><time>2026-04-08T17:34:05.318Z</time></trkpt><trkpt lat="45.8414738" lon="9.0485437"><ele>221.0</ele><time>2026-04-08T17:34:06.295Z</time></trkpt><trkpt lat="45.8414396" lon="9.0487141"><ele>221.00000000000003</ele><time>2026-04-08T17:34:07.305Z</time></trkpt><trkpt lat="45.8414065" lon="9.0488569"><ele>221.00000000000003</ele><time>2026-04-08T17:34:08.306Z</time></trkpt><trkpt lat="45.8413726" lon="9.0490023"><ele>221.0</ele><time>2026-04-08T17:34:09.304Z</time></trkpt><trkpt lat="45.8413396" lon="9.0491478"><ele>221.0</ele><time>2026-04-08T17:34:10.311Z</time></trkpt><trkpt lat="45.841304" lon="9.0493036"><ele>221.25</ele><time>2026-04-08T17:34:11.312Z</time></trkpt><trkpt lat="45.8412696" lon="9.0494694"><ele>221.5</ele><time>2026-04-08T17:34:12.307Z</time></trkpt><trkpt lat="45.841235" lon="9.0496393"><ele>221.75</ele><time>2026-04-08T17:34:13.323Z</time></trkpt><trkpt lat="45.8412006" lon="9.0497968"><ele>222.0</ele><time>2026-04-08T17:34:14.299Z</time></trkpt><trkpt lat="45.8411691" lon="9.0499451"><ele>221.8</ele><time>2026-04-08T17:34:15.301Z</time></trkpt><trkpt lat="45.8411407" lon="9.0500819"><ele>221.6</ele><time>2026-04-08T17:34:16.305Z</time></trkpt><trkpt lat="45.8411116" lon="9.0502224"><ele>221.40000000000003</ele><time>2026-04-08T17:34:17.332Z</time></trkpt><trkpt lat="45.8410812" lon="9.0503642"><ele>221.20000000000002</ele><time>2026-04-08T17:34:18.314Z</time></trkpt><trkpt lat="45.8410516" lon="9.0505151"><ele>221.0</ele><time>2026-04-08T17:34:19.311Z</time></trkpt><trkpt lat="45.8410183" lon="9.0506706"><ele>221.25</ele><time>2026-04-08T17:34:20.308Z</time></trkpt><trkpt lat="45.840985" lon="9.0508302"><ele>221.5</ele><time>2026-04-08T17:34:21.318Z</time></trkpt><trkpt lat="45.8409518" lon="9.0509941"><ele>221.75</ele><time>2026-04-08T17:34:22.317Z</time></trkpt><trkpt lat="45.8409182" lon="9.051155"><ele>222.0</ele><time>2026-04-08T17:34:23.305Z</time></trkpt><trkpt lat="45.840881" lon="9.0513186"><ele>220.75</ele><time>2026-04-08T17:34:24.309Z</time></trkpt><trkpt lat="45.8408433" lon="9.0514847"><ele>219.5</ele><time>2026-04-08T17:34:25.299Z</time></trkpt><trkpt lat="45.8408054" lon="9.0516549"><ele>218.25</ele><time>2026-04-08T17:34:26.31Z</time></trkpt><trkpt lat="45.8407678" lon="9.0518254"><ele>217.0</ele><time>2026-04-08T17:34:27.323Z</time></trkpt><trkpt lat="45.8407289" lon="9.0519943"><ele>217.0</ele><time>2026-04-08T17:34:28.307Z</time></trkpt><trkpt lat="45.8406888" lon="9.0521655"><ele>217.0</ele><time>2026-04-08T17:34:29.304Z</time></trkpt><trkpt lat="45.8406504" lon="9.0523295"><ele>217.0</ele><time>2026-04-08T17:34:30.304Z</time></trkpt><trkpt lat="45.8406177" lon="9.0524837"><ele>217.0</ele><time>2026-04-08T17:34:31.312Z</time></trkpt><trkpt lat="45.8405828" lon="9.0526282"><ele>217.39999999999998</ele><time>2026-04-08T17:34:32.297Z</time></trkpt><trkpt lat="45.8405545" lon="9.0527603"><ele>217.79999999999998</ele><time>2026-04-08T17:34:33.315Z</time></trkpt><trkpt lat="45.8405267" lon="9.052902"><ele>218.2</ele><time>2026-04-08T17:34:34.316Z</time></trkpt><trkpt lat="45.8404985" lon="9.0530452"><ele>218.6</ele><time>2026-04-08T17:34:35.31Z</time></trkpt><trkpt lat="45.8404715" lon="9.0531926"><ele>219.0</ele><time>2026-04-08T17:34:36.302Z</time></trkpt><trkpt lat="45.8404436" lon="9.0533438"><ele>218.2</ele><time>2026-04-08T17:34:37.319Z</time></trkpt><trkpt lat="45.8404109" lon="9.0534995"><ele>217.39999999999998</ele><time>2026-04-08T17:34:38.312Z</time></trkpt><trkpt lat="45.8403768" lon="9.05365"><ele>216.6</ele><time>2026-04-08T17:34:39.317Z</time></trkpt><trkpt lat="45.840344" lon="9.0537901"><ele>215.8</ele><time>2026-04-08T17:34:40.296Z</time></trkpt><trkpt lat="45.8403145" lon="9.053926"><ele>215.0</ele><time>2026-04-08T17:34:41.309Z</time></trkpt><trkpt lat="45.8402878" lon="9.0540537"><ele>214.7142857142857</ele><time>2026-04-08T17:34:42.314Z</time></trkpt><trkpt lat="45.8402635" lon="9.0541713"><ele>214.42857142857144</ele><time>2026-04-08T17:34:43.311Z</time></trkpt><trkpt lat="45.8402405" lon="9.0542768"><ele>214.14285714285714</ele><time>2026-04-08T17:34:44.319Z</time></trkpt><trkpt lat="45.8402186" lon="9.0543808"><ele>213.85714285714283</ele><time>2026-04-08T17:34:45.317Z</time></trkpt><trkpt lat="45.8401985" lon="9.0544769"><ele>213.57142857142856</ele><time>2026-04-08T17:34:46.313Z</time></trkpt><trkpt lat="45.8401778" lon="9.0545643"><ele>213.28571428571428</ele><time>2026-04-08T17:34:47.307Z</time></trkpt><trkpt lat="45.8401569" lon="9.0546548"><ele>213.0</ele><time>2026-04-08T17:34:48.309Z</time></trkpt><trkpt lat="45.8401355" lon="9.0547485"><ele>213.2</ele><time>2026-04-08T17:34:49.324Z</time></trkpt><trkpt lat="45.8401143" lon="9.0548431"><ele>213.4</ele><time>2026-04-08T17:34:50.303Z</time></trkpt><trkpt lat="45.8400798" lon="9.0550069"><ele>213.59999999999997</ele><time>2026-04-08T17:34:52.298Z</time></trkpt><trkpt lat="45.8400456" lon="9.0551557"><ele>213.79999999999998</ele><time>2026-04-08T17:34:54.32Z</time></trkpt><trkpt lat="45.8400067" lon="9.055289"><ele>214.0</ele><time>2026-04-08T17:34:56.31Z</time></trkpt><trkpt lat="45.8399393" lon="9.05544"><ele>214.00000000000003</ele><time>2026-04-08T17:34:58.326Z</time></trkpt><trkpt lat="45.8399037" lon="9.0555237"><ele>214.0</ele><time>2026-04-08T17:34:59.301Z</time></trkpt><trkpt lat="45.8398943" lon="9.0556298"><ele>214.0</ele><time>2026-04-08T17:35:00.299Z</time></trkpt><trkpt lat="45.8398947" lon="9.0557313"><ele>214.0</ele><time>2026-04-08T17:35:01.298Z</time></trkpt><trkpt lat="45.8398831" lon="9.0558315"><ele>214.0</ele><time>2026-04-08T17:35:02.316Z</time></trkpt><trkpt lat="45.8398629" lon="9.0559409"><ele>214.00000000000003</ele><time>2026-04-08T17:35:03.319Z</time></trkpt><trkpt lat="45.8398394" lon="9.0560545"><ele>214.0</ele><time>2026-04-08T17:35:04.295Z</time></trkpt><trkpt lat="45.839816" lon="9.0561703"><ele>214.0</ele><time>2026-04-08T17:35:05.298Z</time></trkpt><trkpt lat="45.8397873" lon="9.056304"><ele>214.0</ele><time>2026-04-08T17:35:06.314Z</time></trkpt><trkpt lat="45.8397581" lon="9.056462"><ele>214.0</ele><time>2026-04-08T17:35:07.304Z</time></trkpt><trkpt lat="45.8397156" lon="9.0566899"><ele>214.0</ele><time>2026-04-08T17:35:08.301Z</time></trkpt><trkpt lat="45.8396567" lon="9.0569624"><ele>214.0</ele><time>2026-04-08T17:35:09.301Z</time></trkpt><trkpt lat="45.839588" lon="9.0572554"><ele>214.0</ele><time>2026-04-08T17:35:10.308Z</time></trkpt><trkpt lat="45.8395327" lon="9.0575234"><ele>214.0</ele><time>2026-04-08T17:35:11.309Z</time></trkpt><trkpt lat="45.8394745" lon="9.0577847"><ele>213.66666666666666</ele><time>2026-04-08T17:35:12.296Z</time></trkpt><trkpt lat="45.83942" lon="9.0580248"><ele>213.33333333333331</ele><time>2026-04-08T17:35:13.305Z</time></trkpt><trkpt lat="45.8393686" lon="9.0582606"><ele>213.0</ele><time>2026-04-08T17:35:14.303Z</time></trkpt><trkpt lat="45.8393179" lon="9.0584949"><ele>213.0</ele><time>2026-04-08T17:35:15.305Z</time></trkpt><trkpt lat="45.8392654" lon="9.0587292"><ele>213.0</ele><time>2026-04-08T17:35:16.314Z</time></trkpt><trkpt lat="45.8392102" lon="9.0589701"><ele>213.0</ele><time>2026-04-08T17:35:17.319Z</time></trkpt><trkpt lat="45.8391609" lon="9.059198"><ele>212.66666666666669</ele><time>2026-04-08T17:35:18.307Z</time></trkpt><trkpt lat="45.8391162" lon="9.0594321"><ele>212.33333333333334</ele><time>2026-04-08T17:35:19.306Z</time></trkpt><trkpt lat="45.8390678" lon="9.0596581"><ele>212.0</ele><time>2026-04-08T17:35:20.307Z</time></trkpt><trkpt lat="45.8390206" lon="9.0598821"><ele>212.0</ele><time>2026-04-08T17:35:21.308Z</time></trkpt><trkpt lat="45.8389738" lon="9.0600992"><ele>212.0</ele><time>2026-04-08T17:35:22.327Z</time></trkpt><trkpt lat="45.8389241" lon="9.0603103"><ele>212.0</ele><time>2026-04-08T17:35:23.319Z</time></trkpt><trkpt lat="45.8388762" lon="9.0605271"><ele>212.0</ele><time>2026-04-08T17:35:24.303Z</time></trkpt><trkpt lat="45.8388298" lon="9.0607399"><ele>212.0</ele><time>2026-04-08T17:35:25.314Z</time></trkpt><trkpt lat="45.8387854" lon="9.0609481"><ele>212.0</ele><time>2026-04-08T17:35:26.308Z</time></trkpt><trkpt lat="45.8387411" lon="9.0611487"><ele>212.0</ele><time>2026-04-08T17:35:27.319Z</time></trkpt><trkpt lat="45.8386961" lon="9.0613543"><ele>212.0</ele><time>2026-04-08T17:35:28.305Z</time></trkpt><trkpt lat="45.8386664" lon="9.0615563"><ele>212.0</ele><time>2026-04-08T17:35:29.318Z</time></trkpt><trkpt lat="45.8386495" lon="9.0617684"><ele>212.0</ele><time>2026-04-08T17:35:30.304Z</time></trkpt><trkpt lat="45.8386333" lon="9.0619892"><ele>212.0</ele><time>2026-04-08T17:35:31.306Z</time></trkpt><trkpt lat="45.8386179" lon="9.0622202"><ele>212.0</ele><time>2026-04-08T17:35:32.323Z</time></trkpt><trkpt lat="45.8386038" lon="9.0624468"><ele>212.0</ele><time>2026-04-08T17:35:33.308Z</time></trkpt><trkpt lat="45.8385911" lon="9.0626585"><ele>211.75</ele><time>2026-04-08T17:35:34.305Z</time></trkpt><trkpt lat="45.8385796" lon="9.0628564"><ele>211.5</ele><time>2026-04-08T17:35:35.309Z</time></trkpt><trkpt lat="45.8385668" lon="9.0630388"><ele>211.25</ele><time>2026-04-08T17:35:36.309Z</time></trkpt><trkpt lat="45.8385533" lon="9.0632111"><ele>211.0</ele><time>2026-04-08T17:35:37.312Z</time></trkpt><trkpt lat="45.8385394" lon="9.0633873"><ele>212.25</ele><time>2026-04-08T17:35:38.319Z</time></trkpt><trkpt lat="45.838526" lon="9.0635718"><ele>213.5</ele><time>2026-04-08T17:35:39.301Z</time></trkpt><trkpt lat="45.8385079" lon="9.0637595"><ele>214.75</ele><time>2026-04-08T17:35:40.303Z</time></trkpt><trkpt lat="45.8384914" lon="9.0639455"><ele>216.0</ele><time>2026-04-08T17:35:41.304Z</time></trkpt><trkpt lat="45.8384766" lon="9.0641274"><ele>215.5</ele><time>2026-04-08T17:35:42.306Z</time></trkpt><trkpt lat="45.8384602" lon="9.0643066"><ele>215.0</ele><time>2026-04-08T17:35:43.303Z</time></trkpt><trkpt lat="45.8384444" lon="9.0644901"><ele>214.5</ele><time>2026-04-08T17:35:44.315Z</time></trkpt><trkpt lat="45.8384302" lon="9.0646777"><ele>214.0</ele><time>2026-04-08T17:35:45.316Z</time></trkpt><trkpt lat="45.8384154" lon="9.0648694"><ele>214.0</ele><time>2026-04-08T17:35:46.307Z</time></trkpt><trkpt lat="45.8383999" lon="9.0650625"><ele>214.0</ele><time>2026-04-08T17:35:47.308Z</time></trkpt><trkpt lat="45.8383835" lon="9.0652617"><ele>214.0</ele><time>2026-04-08T17:35:48.318Z</time></trkpt><trkpt lat="45.8383672" lon="9.065466"><ele>214.0</ele><time>2026-04-08T17:35:49.306Z</time></trkpt><trkpt lat="45.8383513" lon="9.0656769"><ele>213.75</ele><time>2026-04-08T17:35:50.311Z</time></trkpt><trkpt lat="45.8383332" lon="9.0658914"><ele>213.5</ele><time>2026-04-08T17:35:51.331Z</time></trkpt><trkpt lat="45.838317" lon="9.0661034"><ele>213.25</ele><time>2026-04-08T17:35:52.315Z</time></trkpt><trkpt lat="45.8383019" lon="9.0663006"><ele>213.0</ele><time>2026-04-08T17:35:53.309Z</time></trkpt><trkpt lat="45.8382923" lon="9.0664913"><ele>212.2</ele><time>2026-04-08T17:35:54.313Z</time></trkpt><trkpt lat="45.8382843" lon="9.0666475"><ele>211.4</ele><time>2026-04-08T17:35:55.314Z</time></trkpt><trkpt lat="45.8382647" lon="9.0668049"><ele>210.6</ele><time>2026-04-08T17:35:56.303Z</time></trkpt><trkpt lat="45.8382538" lon="9.0669453"><ele>209.79999999999998</ele><time>2026-04-08T17:35:57.302Z</time></trkpt><trkpt lat="45.8382372" lon="9.0670633"><ele>209.0</ele><time>2026-04-08T17:35:58.315Z</time></trkpt><trkpt lat="45.8382126" lon="9.0671682"><ele>209.0</ele><time>2026-04-08T17:35:59.308Z</time></trkpt><trkpt lat="45.8381514" lon="9.0673037"><ele>209.0</ele><time>2026-04-08T17:36:01.32Z</time></trkpt><trkpt lat="45.8380712" lon="9.0674121"><ele>209.0</ele><time>2026-04-08T17:36:03.32Z</time></trkpt><trkpt lat="45.8379994" lon="9.0675686"><ele>209.0</ele><time>2026-04-08T17:36:05.306Z</time></trkpt><trkpt lat="45.838012" lon="9.0677264"><ele>208.79999999999998</ele><time>2026-04-08T17:36:07.302Z</time></trkpt><trkpt lat="45.8380089" lon="9.067841"><ele>208.6</ele><time>2026-04-08T17:36:09.292Z</time></trkpt><trkpt lat="45.8380554" lon="9.0679445"><ele>208.4</ele><time>2026-04-08T17:36:11.327Z</time></trkpt><trkpt lat="45.8381281" lon="9.0677989"><ele>208.2</ele><time>2026-04-08T17:36:16.316Z</time></trkpt><trkpt lat="45.8381655" lon="9.0676269"><ele>208.0</ele><time>2026-04-08T17:36:20.304Z</time></trkpt><trkpt lat="45.8381817" lon="9.0674609"><ele>208.0</ele><time>2026-04-08T17:36:21.312Z</time></trkpt><trkpt lat="45.8382125" lon="9.0673643"><ele>209.0</ele><time>2026-04-08T17:36:28.306Z</time></trkpt><trkpt lat="45.8382811" lon="9.0673043"><ele>209.0</ele><time>2026-04-08T17:36:29.323Z</time></trkpt><trkpt lat="45.8383642" lon="9.0672753"><ele>209.0</ele><time>2026-04-08T17:36:33.31Z</time></trkpt><trkpt lat="45.8384442" lon="9.0672742"><ele>209.0</ele><time>2026-04-08T17:36:35.314Z</time></trkpt></trkseg></trk></gpx>